Pression Relative Température INT. Humidité INT. Température EXT. Humidité EXT. Point de rosée Windchill Vitesse du vent Direction du Vent Pluie / Total Heure Date
[hPa] [°C] [%] [°C] [%] [°C] [°C] [km/h] [mm]
1008,7 23,2 50 15,7 74 11,0 --- --- --- 0,5 00:06 01.06.2004
1008,5 23,1 50 15,7 75 11,3 --- --- --- 0,5 00:21 01.06.2004
1008,5 23,2 50 15,6 75 11,2 --- --- --- 0,5 00:36 01.06.2004
1008,3 23,2 50 15,7 75 11,3 --- --- --- 0,5 00:51 01.06.2004
1008,1 23,2 50 15,7 76 11,5 --- --- --- 0,5 01:06 01.06.2004
1007,9 23,1 50 15,7 76 11,5 --- --- --- 0,5 01:21 01.06.2004
1007,6 22,9 51 15,7 76 11,5 --- --- --- 0,5 01:36 01.06.2004
1007,5 22,8 51 15,7 76 11,5 --- --- --- 0,5 01:51 01.06.2004
1007,5 22,7 51 15,6 77 11,6 --- --- --- 0,5 02:06 01.06.2004
1007,1 22,6 51 15,5 77 11,5 --- --- --- 0,5 02:21 01.06.2004
1007,0 22,5 52 15,5 77 11,5 --- --- --- 0,5 02:36 01.06.2004
1006,8 22,5 52 15,5 77 11,5 --- --- --- 0,5 02:51 01.06.2004
1006,5 22,4 53 15,5 77 11,5 --- --- --- 0,5 03:06 01.06.2004
1006,4 22,4 53 15,5 77 11,5 --- --- --- 0,5 03:21 01.06.2004
1006,4 22,3 53 15,5 78 11,7 --- --- --- 0,5 03:36 01.06.2004
1006,3 22,3 53 15,5 78 11,7 --- --- --- 0,5 03:51 01.06.2004
1006,0 22,3 53 15,5 78 11,7 --- --- --- 0,5 04:06 01.06.2004
1005,9 22,2 53 15,4 79 11,7 --- --- --- 0,5 04:21 01.06.2004
1005,9 22,2 53 15,4 79 11,7 --- --- --- 0,5 04:36 01.06.2004
1005,9 22,3 54 15,4 79 11,7 --- --- --- 0,5 04:51 01.06.2004
1005,5 22,2 53 15,3 79 11,6 --- --- --- 0,5 05:06 01.06.2004
1005,3 22,0 53 15,3 80 11,8 --- --- --- 0,5 05:21 01.06.2004
1005,4 22,0 53 15,3 80 11,8 --- --- --- 0,5 05:36 01.06.2004
1005,2 21,9 54 15,3 80 11,8 --- --- --- 0,5 05:51 01.06.2004
1005,2 21,9 55 15,3 80 11,8 --- --- --- 0,5 06:06 01.06.2004
1005,2 21,8 55 15,3 80 11,8 --- --- --- 0,5 06:21 01.06.2004
1005,0 21,7 55 15,3 81 12,0 --- --- --- 0,5 06:36 01.06.2004
1005,0 21,7 55 15,3 81 12,0 --- --- --- 0,5 06:51 01.06.2004
1005,0 21,6 55 15,4 81 12,1 --- --- --- 0,5 07:06 01.06.2004
1005,1 21,6 55 15,4 81 12,1 --- --- --- 0,5 07:21 01.06.2004
1005,0 21,5 55 15,5 80 12,0 --- --- --- 0,5 07:36 01.06.2004
1004,9 21,4 55 15,6 80 12,1 --- --- --- 0,5 07:51 01.06.2004
1004,7 21,4 56 15,7 80 12,2 --- --- --- 0,5 08:06 01.06.2004
1004,8 21,4 56 15,8 79 12,1 --- --- --- 0,5 08:21 01.06.2004
1004,8 21,3 56 15,8 79 12,1 --- --- --- 0,5 08:36 01.06.2004
1004,8 21,4 56 15,9 79 12,2 --- --- --- 0,5 08:51 01.06.2004
1005,0 21,4 56 16,1 79 12,4 --- --- --- 0,5 09:06 01.06.2004
1005,0 21,4 56 16,1 79 12,4 --- --- --- 0,5 09:21 01.06.2004
1005,1 21,4 56 16,1 79 12,4 --- --- --- 0,5 09:36 01.06.2004
1005,2 21,4 57 16,2 79 12,5 --- --- --- 0,5 09:51 01.06.2004
1005,2 21,5 57 16,2 79 12,5 --- --- --- 0,5 10:06 01.06.2004
1005,4 21,5 57 16,3 79 12,6 --- --- --- 0,5 10:21 01.06.2004
1005,5 21,6 57 16,4 80 12,9 --- --- --- 0,5 10:36 01.06.2004
1005,5 21,6 58 16,5 79 12,8 --- --- --- 0,5 10:51 01.06.2004
1005,6 21,6 58 16,6 80 13,1 --- --- --- 0,5 11:06 01.06.2004
1005,5 21,6 58 16,7 80 13,2 --- --- --- 0,5 11:21 01.06.2004
1005,6 21,6 58 16,8 80 13,3 --- --- --- 0,5 11:36 01.06.2004
1005,6 21,6 58 17,0 81 13,7 --- --- --- 0,5 11:51 01.06.2004
1005,8 21,6 58 17,1 81 13,8 --- --- --- 0,5 12:06 01.06.2004
1005,8 21,6 59 17,3 81 14,0 --- --- --- 0,5 12:21 01.06.2004
1005,9 21,7 59 17,5 81 14,2 --- --- --- 0,5 12:36 01.06.2004
1006,0 21,6 59 17,7 81 14,4 --- --- --- 0,5 12:51 01.06.2004
1005,9 21,7 59 17,7 80 14,2 --- --- --- 0,5 13:06 01.06.2004
1006,0 21,7 59 18,1 80 14,6 --- --- --- 0,5 13:21 01.06.2004
1005,9 21,7 59 17,9 80 14,4 --- --- --- 0,5 13:36 01.06.2004
1005,9 21,8 59 17,9 80 14,4 --- --- --- 0,5 13:51 01.06.2004
1005,9 21,9 59 18,2 80 14,7 --- --- --- 0,5 14:06 01.06.2004
1006,0 21,9 59 18,1 80 14,6 --- --- --- 0,5 14:21 01.06.2004
1006,1 21,9 59 18,0 81 14,7 --- --- --- 0,5 14:36 01.06.2004
1006,0 22,0 57 18,1 82 15,0 --- --- --- 0,5 14:51 01.06.2004
1006,0 22,0 57 18,2 82 15,0 --- --- --- 0,5 15:06 01.06.2004
1005,8 22,1 57 18,9 82 15,7 --- --- --- 0,5 15:21 01.06.2004
1005,9 22,2 57 19,3 80 15,7 --- --- --- 0,5 15:36 01.06.2004
1006,0 22,2 57 19,1 79 15,3 --- --- --- 0,5 15:51 01.06.2004
1005,9 22,2 57 19,3 79 15,5 --- --- --- 0,5 16:06 01.06.2004
1006,0 22,3 57 19,6 77 15,4 --- --- --- 0,5 16:21 01.06.2004
1006,0 22,3 57 19,5 77 15,3 --- --- --- 0,5 16:36 01.06.2004
1006,1 22,2 58 19,2 78 15,2 --- --- --- 0,5 16:51 01.06.2004
1006,1 22,2 59 18,9 79 15,2 --- --- --- 0,5 17:06 01.06.2004
1006,2 22,3 60 19,1 80 15,5 --- --- --- 0,5 17:21 01.06.2004
1006,3 22,3 60 19,2 80 15,6 --- --- --- 0,5 17:36 01.06.2004
1006,5 22,3 60 18,9 79 15,2 --- --- --- 0,5 17:51 01.06.2004
1006,4 22,3 60 18,8 80 15,2 --- --- --- 0,5 18:06 01.06.2004
1006,6 22,3 60 18,9 80 15,3 --- --- --- 0,5 18:21 01.06.2004
1006,6 22,4 60 19,2 80 15,6 --- --- --- 0,5 18:36 01.06.2004
1006,6 22,4 60 19,2 79 15,4 --- --- --- 0,5 18:51 01.06.2004
1006,7 22,4 60 19,2 78 15,2 --- --- --- 0,5 19:06 01.06.2004
1007,0 22,4 59 19,0 77 14,8 --- --- --- 0,5 19:21 01.06.2004
1007,2 22,4 59 18,8 77 14,7 --- --- --- 0,5 19:36 01.06.2004
1007,5 22,4 59 18,8 76 14,5 --- --- --- 0,5 19:51 01.06.2004
1007,7 22,3 58 18,7 76 14,4 --- --- --- 0,5 20:06 01.06.2004
1007,7 22,1 58 18,7 75 14,2 --- --- --- 0,5 20:21 01.06.2004
1008,0 22,1 58 18,7 75 14,2 --- --- --- 0,5 20:36 01.06.2004
1008,2 22,0 58 18,5 75 14,0 --- --- --- 0,5 20:51 01.06.2004
1008,3 21,9 59 18,2 76 13,9 --- --- --- 0,5 21:06 01.06.2004
1008,5 21,8 58 18,0 75 13,5 --- --- --- 0,5 21:21 01.06.2004
1008,5 21,7 58 17,7 75 13,2 --- --- --- 0,5 21:36 01.06.2004
1008,6 21,8 58 17,6 75 13,1 --- --- --- 0,5 21:51 01.06.2004
1008,8 22,0 57 17,4 75 12,9 --- --- --- 0,5 22:06 01.06.2004
1009,1 22,1 58 17,4 76 13,1 --- --- --- 0,5 22:21 01.06.2004
1009,3 22,2 58 17,2 76 12,9 --- --- --- 0,5 22:36 01.06.2004
1009,4 22,3 57 17,1 76 12,8 --- --- --- 0,5 22:51 01.06.2004
1009,5 22,3 57 16,8 76 12,5 --- --- --- 0,5 23:06 01.06.2004
1009,8 22,4 57 16,6 76 12,3 --- --- --- 0,5 23:21 01.06.2004
1009,8 22,4 57 16,5 76 12,2 --- --- --- 0,5 23:36 01.06.2004
1009,8 22,5 57 16,5 76 12,2 --- --- --- 0,5 23:51 01.06.2004
1009,8 22,6 56 16,4 76 12,1 --- --- --- 0,5 00:06 02.06.2004
1010,1 22,6 57 16,4 77 12,3 --- --- --- 0,5 00:21 02.06.2004
1010,1 22,6 57 16,4 77 12,3 --- --- --- 0,5 00:36 02.06.2004
1010,1 22,6 56 16,4 77 12,3 --- --- --- 0,5 00:51 02.06.2004
1010,1 22,7 56 16,3 77 12,2 --- --- --- 0,5 01:06 02.06.2004
1010,1 22,7 56 16,2 77 12,1 --- --- --- 0,5 01:21 02.06.2004
1010,0 22,7 56 16,2 78 12,3 --- --- --- 0,5 01:36 02.06.2004
1010,1 22,7 56 16,3 79 12,6 --- --- --- 0,5 01:51 02.06.2004
1010,2 22,7 56 16,2 79 12,5 --- --- --- 0,5 02:06 02.06.2004
1010,2 22,6 56 16,2 79 12,5 --- --- --- 0,5 02:21 02.06.2004
1010,2 22,5 56 16,2 80 12,7 --- --- --- 0,5 02:36 02.06.2004
1010,2 22,5 56 16,2 80 12,7 --- --- --- 0,5 02:51 02.06.2004
1010,2 22,4 56 16,2 80 12,7 --- --- --- 0,5 03:06 02.06.2004
1010,3 22,3 57 16,2 80 12,7 --- --- --- 0,5 03:21 02.06.2004
1010,2 22,2 57 16,1 80 12,6 --- --- --- 0,5 03:36 02.06.2004
1010,2 22,2 57 16,2 80 12,7 --- --- --- 0,5 03:51 02.06.2004
1010,3 22,1 57 16,1 80 12,6 --- --- --- 0,5 04:06 02.06.2004
1010,4 22,1 57 16,1 80 12,6 --- --- --- 0,5 04:21 02.06.2004
1010,3 22,0 57 16,1 80 12,6 --- --- --- 0,5 04:36 02.06.2004
1010,3 22,0 57 16,0 80 12,5 --- --- --- 0,5 04:51 02.06.2004
1010,3 21,9 59 15,9 80 12,4 --- --- --- 0,5 05:06 02.06.2004
1010,2 21,9 59 15,9 80 12,4 --- --- --- 0,5 05:21 02.06.2004
1010,6 21,8 59 15,9 80 12,4 --- --- --- 0,5 05:36 02.06.2004
1010,7 21,8 59 15,8 80 12,3 --- --- --- 0,5 05:51 02.06.2004
1010,9 21,7 59 15,8 80 12,3 --- --- --- 0,5 06:06 02.06.2004
1010,8 21,7 59 15,8 80 12,3 --- --- --- 0,5 06:21 02.06.2004
1010,9 21,7 59 15,8 80 12,3 --- --- --- 0,5 06:36 02.06.2004
1011,2 21,7 59 15,8 80 12,3 --- --- --- 0,5 06:51 02.06.2004
1011,4 21,7 59 15,8 80 12,3 --- --- --- 0,5 07:06 02.06.2004
1011,5 21,6 59 15,8 80 12,3 --- --- --- 0,5 07:21 02.06.2004
1011,7 21,6 59 15,8 81 12,5 --- --- --- 0,5 07:36 02.06.2004
1011,9 21,5 59 15,8 81 12,5 --- --- --- 0,5 07:51 02.06.2004
1011,9 21,5 59 15,9 81 12,6 --- --- --- 0,5 08:06 02.06.2004
1012,0 21,5 59 16,0 81 12,7 --- --- --- 0,5 08:21 02.06.2004
1012,3 21,5 59 16,1 81 12,8 --- --- --- 0,5 08:36 02.06.2004
1012,6 21,5 59 16,1 80 12,6 --- --- --- 0,5 08:51 02.06.2004
1012,6 21,5 59 16,0 80 12,5 --- --- --- 0,5 09:06 02.06.2004
1012,7 21,5 59 15,9 79 12,2 --- --- --- 0,5 09:21 02.06.2004
1012,8 21,5 59 16,1 79 12,4 --- --- --- 0,5 09:36 02.06.2004
1012,9 21,5 59 16,1 79 12,4 --- --- --- 0,5 09:51 02.06.2004
1012,9 21,6 59 16,2 79 12,5 --- --- --- 0,5 10:06 02.06.2004
1012,9 21,7 59 16,3 79 12,6 --- --- --- 0,5 10:21 02.06.2004
1013,2 21,7 59 16,5 78 12,6 --- --- --- 0,5 10:36 02.06.2004
1013,4 21,9 58 16,7 77 12,6 --- --- --- 0,5 10:51 02.06.2004
1013,6 21,9 58 16,7 75 12,2 --- --- --- 0,5 11:06 02.06.2004
1013,7 21,9 58 16,8 75 12,3 --- --- --- 0,5 11:21 02.06.2004
1013,8 21,9 57 16,8 73 11,9 --- --- --- 0,5 11:36 02.06.2004
1013,7 21,9 58 16,8 73 11,9 --- --- --- 0,5 11:51 02.06.2004
1014,2 22,0 58 16,7 73 11,8 --- --- --- 0,5 12:06 02.06.2004
1014,0 22,0 59 16,8 72 11,7 --- --- --- 0,5 12:21 02.06.2004
1014,1 22,0 58 16,8 71 11,5 --- --- --- 0,5 12:36 02.06.2004
1014,3 22,0 58 16,8 71 11,5 --- --- --- 0,5 12:51 02.06.2004
1014,3 22,0 58 16,7 71 11,4 --- --- --- 0,5 13:06 02.06.2004
1014,7 22,1 57 16,8 71 11,5 --- --- --- 0,5 13:21 02.06.2004
1014,7 22,1 56 16,8 70 11,3 --- --- --- 0,5 13:36 02.06.2004
1014,8 22,1 56 16,8 71 11,5 --- --- --- 0,5 13:51 02.06.2004
1014,8 22,1 56 16,8 70 11,3 --- --- --- 0,5 14:06 02.06.2004
1014,9 22,1 56 16,9 70 11,4 --- --- --- 0,5 14:21 02.06.2004
1014,9 22,2 56 17,1 70 11,6 --- --- --- 0,5 14:36 02.06.2004
1014,8 22,1 55 18,1 68 12,1 --- --- --- 0,5 14:51 02.06.2004
1014,9 22,0 54 19,1 65 12,3 --- --- --- 0,5 15:06 02.06.2004
1014,8 22,0 53 20,2 61 12,4 --- --- --- 0,5 15:21 02.06.2004
1014,8 22,0 53 20,3 60 12,3 --- --- --- 0,5 15:36 02.06.2004
1014,9 22,0 52 20,4 57 11,6 --- --- --- 0,5 15:51 02.06.2004
1015,0 22,1 52 20,3 57 11,5 --- --- --- 0,5 16:06 02.06.2004
1014,9 22,2 52 20,4 56 11,3 --- --- --- 0,5 16:21 02.06.2004
1015,0 22,3 51 20,5 54 10,9 --- --- --- 0,5 16:36 02.06.2004
1015,1 22,3 50 20,4 55 11,0 --- --- --- 0,5 16:51 02.06.2004
1015,2 22,3 50 20,5 53 10,6 --- --- --- 0,5 17:06 02.06.2004
1015,4 22,4 49 20,5 52 10,3 --- --- --- 0,5 17:21 02.06.2004
1015,4 22,5 48 20,4 53 10,5 --- --- --- 0,5 17:36 02.06.2004
1015,6 22,4 48 20,1 53 10,2 --- --- --- 0,5 17:51 02.06.2004
1015,7 22,4 48 19,8 54 10,2 --- --- --- 0,5 18:06 02.06.2004
1015,6 22,4 47 19,8 53 9,9 --- --- --- 0,5 18:21 02.06.2004
1015,7 22,3 47 19,5 53 9,6 --- --- --- 0,5 18:36 02.06.2004
1015,8 22,3 47 19,5 54 9,9 --- --- --- 0,5 18:51 02.06.2004
1015,8 22,4 47 19,4 55 10,1 --- --- --- 0,5 19:06 02.06.2004
1016,0 22,2 46 19,4 56 10,4 --- --- --- 0,5 19:21 02.06.2004
1016,0 22,1 46 19,4 56 10,4 --- --- --- 0,5 19:36 02.06.2004
1016,2 22,0 46 19,2 56 10,2 --- --- --- 0,5 19:51 02.06.2004
1016,2 21,9 47 19,1 56 10,1 --- --- --- 0,5 20:06 02.06.2004
1016,4 21,8 47 19,0 56 10,0 --- --- --- 0,5 20:21 02.06.2004
1016,5 21,8 47 18,6 57 9,9 --- --- --- 0,5 20:36 02.06.2004
1016,6 21,8 48 18,4 57 9,7 --- --- --- 0,5 20:51 02.06.2004
1016,9 21,8 48 18,4 58 10,0 --- --- --- 0,5 21:06 02.06.2004
1016,8 21,8 48 18,2 58 9,8 --- --- --- 0,5 21:21 02.06.2004
1017,1 21,8 48 18,1 59 9,9 --- --- --- 0,5 21:36 02.06.2004
1017,3 21,7 48 17,8 59 9,7 --- --- --- 0,5 21:51 02.06.2004
1017,5 21,7 48 17,7 59 9,6 --- --- --- 0,5 22:06 02.06.2004
1017,5 21,6 47 17,5 59 9,4 --- --- --- 0,5 22:21 02.06.2004
1017,6 21,4 47 17,2 59 9,1 --- --- --- 0,5 22:36 02.06.2004
1017,8 21,3 47 16,9 60 9,1 --- --- --- 0,5 22:51 02.06.2004
1017,9 21,3 48 16,7 60 8,9 --- --- --- 0,5 23:06 02.06.2004
1018,0 21,5 49 16,5 62 9,2 --- --- --- 0,5 23:21 02.06.2004
1018,0 21,5 50 16,2 63 9,1 --- --- --- 0,5 23:36 02.06.2004
1018,2 21,5 50 15,9 63 8,8 --- --- --- 0,5 23:51 02.06.2004
1018,0 21,7 51 15,7 64 8,9 --- --- --- 0,5 00:06 03.06.2004
1018,2 21,7 51 15,6 65 9,0 --- --- --- 0,5 00:21 03.06.2004
1018,3 21,7 51 15,5 65 8,9 --- --- --- 0,5 00:36 03.06.2004
1018,3 21,7 51 15,4 67 9,3 --- --- --- 0,5 00:51 03.06.2004
1018,4 21,7 51 15,2 67 9,1 --- --- --- 0,5 01:06 03.06.2004
1018,7 21,7 51 15,0 68 9,1 --- --- --- 0,5 01:21 03.06.2004
1018,4 21,6 51 14,7 69 9,0 --- --- --- 0,5 01:36 03.06.2004
1018,6 21,5 51 14,4 70 9,0 --- --- --- 0,5 01:51 03.06.2004
1018,5 21,5 51 14,3 71 9,1 --- --- --- 0,5 02:06 03.06.2004
1018,5 21,5 52 14,2 72 9,2 --- --- --- 0,5 02:21 03.06.2004
1018,4 21,5 52 14,2 72 9,2 --- --- --- 0,5 02:36 03.06.2004
1018,3 21,4 53 14,1 72 9,1 --- --- --- 0,5 02:51 03.06.2004
1018,2 21,4 53 14,0 73 9,2 --- --- --- 0,5 03:06 03.06.2004
1018,3 21,4 53 13,9 73 9,1 --- --- --- 0,5 03:21 03.06.2004
1018,2 21,4 53 13,8 73 9,0 --- --- --- 0,5 03:36 03.06.2004
1018,2 21,4 53 13,7 73 8,9 --- --- --- 0,5 03:51 03.06.2004
1018,3 21,4 53 13,7 73 8,9 --- --- --- 0,5 04:06 03.06.2004
1018,4 21,3 54 13,6 73 8,8 --- --- --- 0,5 04:21 03.06.2004
1018,3 21,3 54 13,6 74 9,0 --- --- --- 0,5 04:36 03.06.2004
1018,3 21,2 54 13,4 74 8,8 --- --- --- 0,5 04:51 03.06.2004
1018,2 21,2 54 13,4 75 9,0 --- --- --- 0,5 05:06 03.06.2004
1018,2 21,1 54 13,3 75 8,9 --- --- --- 0,5 05:21 03.06.2004
1018,3 21,1 54 13,3 75 8,9 --- --- --- 0,5 05:36 03.06.2004
1018,5 21,0 53 13,2 75 8,8 --- --- --- 0,5 05:51 03.06.2004
1018,5 21,0 54 13,1 75 8,7 --- --- --- 0,5 06:06 03.06.2004
1018,4 20,9 55 13,0 76 8,8 --- --- --- 0,5 06:21 03.06.2004
1018,5 20,9 55 12,9 76 8,7 --- --- --- 0,5 06:36 03.06.2004
1018,8 20,8 55 12,9 76 8,7 --- --- --- 0,5 06:51 03.06.2004
1018,9 20,8 55 13,1 76 8,9 --- --- --- 0,5 07:06 03.06.2004
1018,8 20,7 55 13,1 75 8,7 --- --- --- 0,5 07:21 03.06.2004
1019,0 20,7 55 13,2 75 8,8 --- --- --- 0,5 07:36 03.06.2004
1019,1 20,7 54 13,4 75 9,0 --- --- --- 0,5 07:51 03.06.2004
1019,4 20,4 53 13,5 74 8,9 --- --- --- 0,5 08:06 03.06.2004
1019,4 20,2 52 13,5 73 8,7 --- --- --- 0,5 08:21 03.06.2004
1019,4 19,9 51 13,8 73 9,0 --- --- --- 0,5 08:36 03.06.2004
1019,4 19,8 51 14,1 73 9,3 --- --- --- 0,5 08:51 03.06.2004
1019,7 19,7 51 14,3 72 9,3 --- --- --- 0,5 09:06 03.06.2004
1019,8 19,7 51 14,5 71 9,3 --- --- --- 0,5 09:21 03.06.2004
1019,9 19,7 51 14,7 70 9,3 --- --- --- 0,5 09:36 03.06.2004
1020,1 19,8 51 14,7 69 9,0 --- --- --- 0,5 09:51 03.06.2004
1020,0 19,9 51 14,8 69 9,1 --- --- --- 0,5 10:06 03.06.2004
1020,0 19,9 51 14,9 69 9,2 --- --- --- 0,5 10:21 03.06.2004
1019,9 19,9 51 15,1 69 9,4 --- --- --- 0,5 10:36 03.06.2004
1019,8 19,9 51 15,2 69 9,5 --- --- --- 0,5 10:51 03.06.2004
1019,9 20,0 51 15,2 69 9,5 --- --- --- 0,5 11:06 03.06.2004
1019,8 20,0 51 15,4 69 9,7 --- --- --- 0,5 11:21 03.06.2004
1020,0 20,1 52 15,5 68 9,6 --- --- --- 0,5 11:36 03.06.2004
1020,0 20,2 53 15,7 67 9,6 --- --- --- 0,5 11:51 03.06.2004
1020,0 20,3 53 15,8 67 9,7 --- --- --- 0,5 12:06 03.06.2004
1020,0 20,4 53 16,1 67 9,9 --- --- --- 0,5 12:21 03.06.2004
1020,1 20,5 53 16,3 67 10,1 --- --- --- 0,5 12:36 03.06.2004
1020,1 20,5 53 16,4 66 10,0 --- --- --- 0,5 12:51 03.06.2004
1020,0 20,6 53 16,6 65 10,0 --- --- --- 0,5 13:06 03.06.2004
1019,8 20,7 53 16,7 65 10,1 --- --- --- 0,5 13:21 03.06.2004
1020,0 20,9 53 17,1 64 10,2 --- --- --- 0,5 13:36 03.06.2004
1019,6 20,9 53 17,2 64 10,3 --- --- --- 0,5 13:51 03.06.2004
1019,6 21,0 52 17,5 63 10,4 --- --- --- 0,5 14:06 03.06.2004
1019,5 21,1 52 17,6 62 10,2 --- --- --- 0,5 14:21 03.06.2004
1019,6 21,2 52 18,4 62 11,0 --- --- --- 0,5 14:36 03.06.2004
1019,3 21,3 52 19,1 61 11,4 --- --- --- 0,5 14:51 03.06.2004
1019,3 21,4 52 20,3 58 11,7 --- --- --- 0,5 15:06 03.06.2004
1019,1 21,5 52 20,7 55 11,3 --- --- --- 0,5 15:21 03.06.2004
1019,1 21,6 52 20,5 54 10,9 --- --- --- 0,5 15:36 03.06.2004
1019,1 21,7 53 20,7 54 11,0 --- --- --- 0,5 15:51 03.06.2004
1018,9 21,8 53 20,7 55 11,3 --- --- --- 0,5 16:06 03.06.2004
1018,9 21,9 52 20,9 54 11,2 --- --- --- 0,5 16:21 03.06.2004
1018,7 22,0 52 21,0 54 11,3 --- --- --- 0,5 16:36 03.06.2004
1018,7 22,1 51 21,1 53 11,1 --- --- --- 0,5 16:51 03.06.2004
1018,8 22,2 50 20,8 53 10,8 --- --- --- 0,5 17:06 03.06.2004
1018,7 22,4 50 20,9 53 10,9 --- --- --- 0,5 17:21 03.06.2004
1018,5 22,6 50 21,0 54 11,3 --- --- --- 0,5 17:36 03.06.2004
1018,4 22,8 50 21,0 53 11,0 --- --- --- 0,5 17:51 03.06.2004
1018,2 22,8 50 20,8 54 11,1 --- --- --- 0,5 18:06 03.06.2004
1018,0 22,8 51 20,7 54 11,0 --- --- --- 0,5 18:21 03.06.2004
1018,0 22,7 50 20,5 54 10,9 --- --- --- 0,5 18:36 03.06.2004
1018,1 22,8 50 20,6 55 11,2 --- --- --- 0,5 18:51 03.06.2004
1018,3 22,7 51 20,4 56 11,3 --- --- --- 0,5 19:06 03.06.2004
1018,4 22,6 51 20,3 56 11,2 --- --- --- 0,5 19:21 03.06.2004
1018,5 22,5 50 20,1 56 11,0 --- --- --- 0,5 19:36 03.06.2004
1018,4 22,4 49 20,1 56 11,0 --- --- --- 0,5 19:51 03.06.2004
1018,4 22,5 50 20,1 56 11,0 --- --- --- 0,5 20:06 03.06.2004
1018,0 22,6 50 20,2 56 11,1 --- --- --- 0,5 20:21 03.06.2004
1017,9 22,5 49 20,1 56 11,0 --- --- --- 0,5 20:36 03.06.2004
1018,1 22,5 49 19,8 57 11,0 --- --- --- 0,5 20:51 03.06.2004
1018,0 22,4 50 19,2 59 11,0 --- --- --- 0,5 21:06 03.06.2004
1018,1 22,2 50 18,6 60 10,7 --- --- --- 0,5 21:21 03.06.2004
1018,2 22,0 50 18,1 62 10,7 --- --- --- 0,5 21:36 03.06.2004
1018,2 21,8 51 17,7 64 10,8 --- --- --- 0,5 21:51 03.06.2004
1018,2 21,6 51 17,5 65 10,8 --- --- --- 0,5 22:06 03.06.2004
1018,4 21,5 51 17,1 66 10,7 --- --- --- 0,5 22:21 03.06.2004
1018,5 21,4 51 16,7 67 10,5 --- --- --- 0,5 22:36 03.06.2004
1018,5 21,6 53 16,4 67 10,2 --- --- --- 0,5 22:51 03.06.2004
1018,4 21,8 53 16,2 69 10,5 --- --- --- 0,5 23:06 03.06.2004
1018,2 21,9 54 15,8 69 10,1 --- --- --- 0,5 23:21 03.06.2004
1018,1 21,9 54 15,5 70 10,0 --- --- --- 0,5 23:36 03.06.2004
1018,1 21,9 54 15,5 71 10,2 --- --- --- 0,5 23:51 03.06.2004
1018,1 22,0 53 15,3 72 10,3 --- --- --- 0,5 00:06 04.06.2004
1018,1 22,1 53 15,1 72 10,1 --- --- --- 0,5 00:21 04.06.2004
1018,1 22,0 53 15,1 73 10,3 --- --- --- 0,5 00:36 04.06.2004
1018,0 22,0 54 15,1 73 10,3 --- --- --- 0,5 00:51 04.06.2004
1018,0 21,9 54 15,0 73 10,2 --- --- --- 0,5 01:06 04.06.2004
1017,8 21,9 54 15,1 74 10,5 --- --- --- 0,5 01:21 04.06.2004
1017,5 21,8 54 15,0 74 10,4 --- --- --- 0,5 01:36 04.06.2004
1017,6 21,8 54 15,1 75 10,7 --- --- --- 0,5 01:51 04.06.2004
1017,6 21,8 54 15,1 75 10,7 --- --- --- 0,5 02:06 04.06.2004
1017,3 21,7 54 15,1 75 10,7 --- --- --- 0,5 02:21 04.06.2004
1017,3 21,7 54 15,0 76 10,8 --- --- --- 0,5 02:36 04.06.2004
1017,1 21,7 55 15,1 76 10,9 --- --- --- 0,5 02:51 04.06.2004
1017,1 21,7 55 15,1 76 10,9 --- --- --- 0,5 03:06 04.06.2004
1017,0 21,7 55 15,1 76 10,9 --- --- --- 0,5 03:21 04.06.2004
1016,8 21,7 56 15,1 77 11,1 --- --- --- 0,5 03:36 04.06.2004
1016,9 21,7 56 15,2 77 11,2 --- --- --- 0,5 03:51 04.06.2004
1016,6 21,7 56 15,1 77 11,1 --- --- --- 0,5 04:06 04.06.2004
1016,6 21,6 56 15,1 77 11,1 --- --- --- 0,5 04:21 04.06.2004
1016,6 21,5 56 15,1 77 11,1 --- --- --- 0,5 04:36 04.06.2004
1016,5 21,4 56 15,0 77 11,0 --- --- --- 0,5 04:51 04.06.2004
1016,5 21,4 56 15,0 77 11,0 --- --- --- 0,5 05:06 04.06.2004
1016,5 21,4 56 15,0 77 11,0 --- --- --- 0,5 05:21 04.06.2004
1016,5 21,4 56 14,8 77 10,8 --- --- --- 0,5 05:36 04.06.2004
1016,3 21,3 56 15,0 77 11,0 --- --- --- 0,5 05:51 04.06.2004
1016,2 21,3 56 14,9 77 10,9 --- --- --- 0,5 06:06 04.06.2004
1016,2 21,3 56 14,9 77 10,9 --- --- --- 0,5 06:21 04.06.2004
1016,2 21,3 56 14,9 77 10,9 --- --- --- 0,5 06:36 04.06.2004
1016,0 21,3 56 14,8 77 10,8 --- --- --- 0,5 06:51 04.06.2004
1016,0 21,3 55 14,9 77 10,9 --- --- --- 0,5 07:06 04.06.2004
1015,8 21,3 55 14,9 78 11,1 --- --- --- 0,5 07:21 04.06.2004
1015,6 21,3 56 15,0 78 11,2 --- --- --- 0,5 07:36 04.06.2004
1015,7 21,2 56 15,1 78 11,3 --- --- --- 0,5 07:51 04.06.2004
1015,8 21,1 56 15,1 78 11,3 --- --- --- 0,5 08:06 04.06.2004
1015,9 21,1 56 15,1 78 11,3 --- --- --- 0,5 08:21 04.06.2004
1015,6 21,0 56 15,2 78 11,4 --- --- --- 0,5 08:36 04.06.2004
1015,8 20,9 57 15,5 77 11,5 --- --- --- 0,5 08:51 04.06.2004
1015,6 20,9 57 15,8 76 11,5 --- --- --- 0,5 09:06 04.06.2004
1015,6 20,8 57 15,9 75 11,4 --- --- --- 0,5 09:21 04.06.2004
1015,5 20,8 56 16,1 73 11,2 --- --- --- 0,5 09:36 04.06.2004
1015,5 20,8 56 16,2 72 11,1 --- --- --- 0,5 09:51 04.06.2004
1015,5 20,8 56 16,3 71 11,0 --- --- --- 0,5 10:06 04.06.2004
1015,4 20,8 56 16,4 70 10,9 --- --- --- 0,5 10:21 04.06.2004
1015,3 20,8 56 16,5 69 10,8 --- --- --- 0,5 10:36 04.06.2004
1015,3 20,8 56 16,7 68 10,7 --- --- --- 0,5 10:51 04.06.2004
1015,3 20,8 56 16,8 67 10,6 --- --- --- 0,5 11:06 04.06.2004
1015,1 20,7 56 16,7 67 10,5 --- --- --- 0,5 11:21 04.06.2004
1015,0 20,7 57 16,7 68 10,7 --- --- --- 0,5 11:36 04.06.2004
1014,8 20,7 57 16,9 69 11,1 --- --- --- 0,5 11:51 04.06.2004
1014,8 20,7 57 17,1 70 11,6 --- --- --- 0,5 12:06 04.06.2004
1014,8 20,7 57 17,0 69 11,2 --- --- --- 0,5 12:21 04.06.2004
1014,9 20,7 57 16,8 68 10,8 --- --- --- 0,5 12:36 04.06.2004
1014,6 20,7 57 16,8 69 11,1 --- --- --- 0,5 12:51 04.06.2004
1014,4 20,7 57 17,0 69 11,2 --- --- --- 0,5 13:06 04.06.2004
1014,2 20,7 57 17,0 69 11,2 --- --- --- 0,5 13:21 04.06.2004
1014,1 20,7 57 17,2 69 11,4 --- --- --- 0,5 13:36 04.06.2004
1014,0 20,7 57 17,4 69 11,6 --- --- --- 0,5 13:51 04.06.2004
1013,8 20,7 57 17,4 68 11,4 --- --- --- 0,5 14:06 04.06.2004
1013,7 20,7 57 17,4 69 11,6 --- --- --- 0,5 14:21 04.06.2004
1013,5 20,7 57 17,3 69 11,5 --- --- --- 0,5 14:36 04.06.2004
1013,4 20,7 57 17,3 70 11,7 --- --- --- 0,5 14:51 04.06.2004
1013,4 20,7 57 17,4 71 12,1 --- --- --- 0,5 15:06 04.06.2004
1013,2 20,8 57 17,6 71 12,3 --- --- --- 0,5 15:21 04.06.2004
1013,2 20,8 57 17,9 71 12,5 --- --- --- 0,5 15:36 04.06.2004
1013,1 20,7 57 17,9 71 12,5 --- --- --- 0,5 15:51 04.06.2004
1013,1 20,7 57 17,7 72 12,6 --- --- --- 0,5 16:06 04.06.2004
1013,0 20,7 57 17,6 73 12,7 --- --- --- 0,5 16:21 04.06.2004
1012,9 20,7 57 17,7 74 13,0 --- --- --- 0,5 16:36 04.06.2004
1012,6 20,7 57 17,7 75 13,2 --- --- --- 0,5 16:51 04.06.2004
1012,7 20,7 57 17,7 75 13,2 --- --- --- 0,5 17:06 04.06.2004
1012,4 20,7 57 17,7 75 13,2 --- --- --- 0,5 17:21 04.06.2004
1012,3 20,6 58 17,8 75 13,3 --- --- --- 0,5 17:36 04.06.2004
1012,3 20,8 58 17,9 75 13,4 --- --- --- 0,5 17:51 04.06.2004
1012,2 20,8 59 18,0 75 13,5 --- --- --- 0,5 18:06 04.06.2004
1012,2 20,9 60 18,0 76 13,7 --- --- --- 0,5 18:21 04.06.2004
1012,0 20,9 60 18,1 76 13,8 --- --- --- 0,5 18:36 04.06.2004
1011,7 21,0 59 18,2 76 13,9 --- --- --- 0,5 18:51 04.06.2004
1011,8 21,0 59 18,3 76 14,0 --- --- --- 0,5 19:06 04.06.2004
1011,7 21,0 60 18,2 76 13,9 --- --- --- 0,5 19:21 04.06.2004
1011,9 21,2 60 18,3 76 14,0 --- --- --- 0,5 19:36 04.06.2004
1011,8 21,2 60 18,3 76 14,0 --- --- --- 0,5 19:51 04.06.2004
1012,0 21,2 60 18,2 76 13,9 --- --- --- 0,5 20:06 04.06.2004
1012,1 21,2 60 18,4 76 14,1 --- --- --- 0,5 20:21 04.06.2004
1011,9 21,3 60 18,4 76 14,1 --- --- --- 0,5 20:36 04.06.2004
1012,0 21,3 60 18,3 75 13,8 --- --- --- 0,5 20:51 04.06.2004
1011,8 21,3 60 18,2 75 13,7 --- --- --- 0,5 21:06 04.06.2004
1011,8 21,3 60 18,1 75 13,6 --- --- --- 0,5 21:21 04.06.2004
1011,9 21,3 60 17,8 75 13,3 --- --- --- 0,5 21:36 04.06.2004
1011,9 21,5 60 17,5 76 13,2 --- --- --- 0,5 21:51 04.06.2004
1011,9 21,6 60 17,2 77 13,1 --- --- --- 0,5 22:06 04.06.2004
1011,8 21,6 60 17,0 77 12,9 --- --- --- 0,5 22:21 04.06.2004
1012,0 21,7 60 16,8 78 12,9 --- --- --- 0,5 22:36 04.06.2004
1011,9 21,8 60 16,6 78 12,7 --- --- --- 0,5 22:51 04.06.2004
1011,7 21,7 59 16,3 79 12,6 --- --- --- 0,5 23:06 04.06.2004
1011,6 21,7 59 16,2 80 12,7 --- --- --- 0,5 23:21 04.06.2004
1011,5 21,8 59 16,0 80 12,5 --- --- --- 0,5 23:36 04.06.2004
1011,5 21,9 59 15,8 80 12,3 --- --- --- 0,5 23:51 04.06.2004
1011,5 21,8 59 15,7 80 12,2 --- --- --- 0,5 00:06 05.06.2004
1011,4 21,8 59 15,7 80 12,2 --- --- --- 0,5 00:21 05.06.2004
1011,3 21,7 59 15,7 81 12,4 --- --- --- 0,5 00:36 05.06.2004
1011,2 21,7 59 15,5 81 12,2 --- --- --- 0,5 00:51 05.06.2004
1011,0 21,6 59 15,8 81 12,5 --- --- --- 0,5 01:06 05.06.2004
1011,0 21,5 59 15,7 81 12,4 --- --- --- 0,5 01:21 05.06.2004
1010,9 21,5 59 15,8 81 12,5 --- --- --- 0,5 01:36 05.06.2004
1010,6 21,5 59 15,9 81 12,6 --- --- --- 0,5 01:51 05.06.2004
1010,5 21,4 59 16,0 82 12,9 --- --- --- 0,5 02:06 05.06.2004
1010,3 21,4 60 16,1 82 13,0 --- --- --- 0,5 02:21 05.06.2004
1010,3 21,4 60 16,3 82 13,2 --- --- --- 0,5 02:36 05.06.2004
1010,3 21,4 60 16,5 81 13,2 --- --- --- 0,5 02:51 05.06.2004
1010,2 21,3 60 16,5 81 13,2 --- --- --- 0,5 03:06 05.06.2004
1010,1 21,3 60 16,6 81 13,3 --- --- --- 0,5 03:21 05.06.2004
1010,1 21,3 60 16,7 81 13,4 --- --- --- 0,5 03:36 05.06.2004
1010,2 21,4 61 16,7 81 13,4 --- --- --- 0,5 03:51 05.06.2004
1009,9 21,5 61 16,7 81 13,4 --- --- --- 0,5 04:06 05.06.2004
1009,8 21,4 61 16,8 81 13,5 --- --- --- 0,5 04:21 05.06.2004
1010,1 21,4 61 16,7 81 13,4 --- --- --- 0,5 04:36 05.06.2004
1010,0 21,4 61 16,7 81 13,4 --- --- --- 0,5 04:51 05.06.2004
1009,8 21,4 61 16,7 81 13,4 --- --- --- 0,5 05:06 05.06.2004
1010,0 21,3 61 16,5 81 13,2 --- --- --- 0,5 05:21 05.06.2004
1010,0 21,3 61 16,5 81 13,2 --- --- --- 0,5 05:36 05.06.2004
1010,0 21,2 61 16,4 81 13,1 --- --- --- 0,5 05:51 05.06.2004
1010,0 21,1 61 16,3 82 13,2 --- --- --- 0,5 06:06 05.06.2004
1009,9 21,1 61 16,3 82 13,2 --- --- --- 0,5 06:21 05.06.2004
1010,1 21,1 61 16,3 82 13,2 --- --- --- 0,5 06:36 05.06.2004
1010,1 21,1 61 16,3 82 13,2 --- --- --- 0,5 06:51 05.06.2004
1010,1 21,1 61 16,4 81 13,1 --- --- --- 0,5 07:06 05.06.2004
1010,1 21,1 61 16,4 81 13,1 --- --- --- 0,5 07:21 05.06.2004
1009,9 21,2 61 16,4 81 13,1 --- --- --- 0,5 07:36 05.06.2004
1010,1 21,2 61 16,5 80 13,0 --- --- --- 0,5 07:51 05.06.2004
1010,2 21,2 61 16,7 80 13,2 --- --- --- 0,5 08:06 05.06.2004
1010,2 21,2 61 16,8 79 13,1 --- --- --- 0,5 08:21 05.06.2004
1010,3 21,2 61 16,9 78 13,0 --- --- --- 0,5 08:36 05.06.2004
1010,3 21,2 61 16,8 77 12,7 --- --- --- 0,5 08:51 05.06.2004
1010,5 21,1 61 16,9 77 12,8 --- --- --- 0,5 09:06 05.06.2004
1010,4 21,1 61 17,0 75 12,5 --- --- --- 0,5 09:21 05.06.2004
1010,6 21,2 61 17,2 73 12,3 --- --- --- 0,5 09:36 05.06.2004
1010,6 21,2 61 17,3 72 12,2 --- --- --- 0,5 09:51 05.06.2004
1010,5 21,2 61 17,5 72 12,4 --- --- --- 0,5 10:06 05.06.2004
1010,5 21,2 60 17,8 70 12,2 --- --- --- 0,5 10:21 05.06.2004
1010,7 21,1 59 18,1 69 12,3 --- --- --- 0,5 10:36 05.06.2004
1010,7 21,1 59 17,9 69 12,1 --- --- --- 0,5 10:51 05.06.2004
1010,7 21,0 59 18,1 69 12,3 --- --- --- 0,5 11:06 05.06.2004
1010,6 21,0 59 18,2 69 12,4 --- --- --- 0,5 11:21 05.06.2004
1010,5 21,1 59 18,5 67 12,2 --- --- --- 0,5 11:36 05.06.2004
1010,4 21,2 59 19,1 65 12,3 --- --- --- 0,5 11:51 05.06.2004
1010,5 21,2 59 19,3 64 12,3 --- --- --- 0,5 12:06 05.06.2004
1010,3 21,2 59 19,5 61 11,8 --- --- --- 0,5 12:21 05.06.2004
1010,5 21,3 59 19,7 60 11,7 --- --- --- 0,5 12:36 05.06.2004
1010,4 21,4 60 19,8 60 11,8 --- --- --- 0,5 12:51 05.06.2004
1010,4 21,6 60 20,1 59 11,8 --- --- --- 0,5 13:06 05.06.2004
1010,3 21,8 60 20,2 58 11,6 --- --- --- 0,5 13:21 05.06.2004
1010,3 21,9 60 20,6 58 12,0 --- --- --- 0,5 13:36 05.06.2004
1010,3 22,0 58 20,7 58 12,1 --- --- --- 0,5 13:51 05.06.2004
1010,1 22,2 58 21,0 56 11,9 --- --- --- 0,5 14:06 05.06.2004
1010,1 22,3 58 21,4 55 12,0 --- --- --- 0,5 14:21 05.06.2004
1010,0 22,3 58 21,5 53 11,5 --- --- --- 0,5 14:36 05.06.2004
1010,1 22,4 57 22,6 53 12,5 --- --- --- 0,5 14:51 05.06.2004
1010,0 22,5 57 23,2 50 12,2 --- --- --- 0,5 15:06 05.06.2004
1010,1 22,7 58 24,2 49 12,8 --- --- --- 0,5 15:21 05.06.2004
1010,0 22,8 58 24,8 45 12,0 --- --- --- 0,5 15:36 05.06.2004
1010,0 22,9 57 25,2 44 12,1 --- --- --- 0,5 15:51 05.06.2004
1009,9 23,0 56 24,7 44 11,6 --- --- --- 0,5 16:06 05.06.2004
1009,9 23,0 56 23,8 46 11,5 --- --- --- 0,5 16:21 05.06.2004
1009,8 23,0 56 23,2 47 11,2 --- --- --- 0,5 16:36 05.06.2004
1009,8 23,0 56 23,0 49 11,7 --- --- --- 0,5 16:51 05.06.2004
1009,8 23,1 55 23,2 49 11,9 --- --- --- 0,5 17:06 05.06.2004
1009,6 23,1 55 23,1 49 11,8 --- --- --- 0,5 17:21 05.06.2004
1009,6 23,2 54 23,4 48 11,7 --- --- --- 0,5 17:36 05.06.2004
1009,5 23,3 54 23,5 47 11,5 --- --- --- 0,5 17:51 05.06.2004
1009,6 23,5 55 23,7 46 11,4 --- --- --- 0,5 18:06 05.06.2004
1009,5 23,6 54 23,7 46 11,4 --- --- --- 0,5 18:21 05.06.2004
1009,5 23,6 54 23,5 46 11,2 --- --- --- 0,5 18:36 05.06.2004
1009,6 23,6 54 23,2 47 11,2 --- --- --- 0,5 18:51 05.06.2004
1009,6 23,7 54 23,2 48 11,6 --- --- --- 0,5 19:06 05.06.2004
1009,5 23,8 54 23,1 48 11,5 --- --- --- 0,5 19:21 05.06.2004
1009,6 23,8 53 23,1 47 11,2 --- --- --- 0,5 19:36 05.06.2004
1009,7 23,9 53 23,0 48 11,4 --- --- --- 0,5 19:51 05.06.2004
1009,7 23,9 53 22,8 48 11,2 --- --- --- 0,5 20:06 05.06.2004
1009,8 23,8 53 22,6 49 11,3 --- --- --- 0,5 20:21 05.06.2004
1009,9 23,6 52 22,4 49 11,1 --- --- --- 0,5 20:36 05.06.2004
1009,8 23,5 52 22,2 50 11,3 --- --- --- 0,5 20:51 05.06.2004
1010,0 23,4 52 21,9 51 11,3 --- --- --- 0,5 21:06 05.06.2004
1010,0 23,3 53 21,7 52 11,4 --- --- --- 0,5 21:21 05.06.2004
1010,1 23,4 53 21,5 52 11,2 --- --- --- 0,5 21:36 05.06.2004
1010,2 23,4 53 21,5 54 11,8 --- --- --- 0,5 21:51 05.06.2004
1010,5 23,4 53 21,4 54 11,7 --- --- --- 0,5 22:06 05.06.2004
1010,7 23,4 53 21,2 54 11,5 --- --- --- 0,5 22:21 05.06.2004
1010,9 23,4 53 21,0 55 11,6 --- --- --- 0,5 22:36 05.06.2004
1010,9 23,4 53 20,9 55 11,5 --- --- --- 0,5 22:51 05.06.2004
1011,1 23,4 53 20,8 55 11,4 --- --- --- 0,5 23:06 05.06.2004
1011,1 23,4 53 20,7 56 11,6 --- --- --- 0,5 23:21 05.06.2004
1011,2 23,4 53 20,6 56 11,5 --- --- --- 0,5 23:36 05.06.2004
1011,2 23,4 53 20,3 57 11,5 --- --- --- 0,5 23:51 05.06.2004
1011,3 23,4 53 20,1 58 11,6 --- --- --- 0,5 00:06 06.06.2004
1011,3 23,4 53 19,7 58 11,2 --- --- --- 0,5 00:21 06.06.2004
1011,3 23,4 53 19,5 59 11,3 --- --- --- 0,5 00:36 06.06.2004
1011,3 23,4 53 19,2 61 11,5 --- --- --- 0,5 00:51 06.06.2004
1011,4 23,4 53 18,8 61 11,1 --- --- --- 0,5 01:06 06.06.2004
1011,3 23,4 53 18,6 61 10,9 --- --- --- 0,5 01:21 06.06.2004
1011,3 23,5 53 18,2 63 11,0 --- --- --- 0,5 01:36 06.06.2004
1011,2 23,5 53 17,9 63 10,7 --- --- --- 0,5 01:51 06.06.2004
1011,0 23,6 53 17,5 63 10,4 --- --- --- 0,5 02:06 06.06.2004
1011,0 23,5 53 17,2 64 10,3 --- --- --- 0,5 02:21 06.06.2004
1010,8 23,5 53 17,0 64 10,1 --- --- --- 0,5 02:36 06.06.2004
1010,8 23,5 53 16,6 64 9,7 --- --- --- 0,5 02:51 06.06.2004
1010,7 23,4 53 16,4 65 9,8 --- --- --- 0,5 03:06 06.06.2004
1010,8 23,3 53 16,1 66 9,7 --- --- --- 0,5 03:21 06.06.2004
1010,7 23,1 53 16,1 67 9,9 --- --- --- 0,5 03:36 06.06.2004
1010,9 23,1 53 15,9 67 9,8 --- --- --- 0,5 03:51 06.06.2004
1010,8 23,0 53 15,7 67 9,6 --- --- --- 0,5 04:06 06.06.2004
1010,6 22,9 54 15,4 68 9,5 --- --- --- 0,5 04:21 06.06.2004
1010,5 22,8 54 15,3 69 9,6 --- --- --- 0,5 04:36 06.06.2004
1010,5 22,7 54 15,0 69 9,3 --- --- --- 0,5 04:51 06.06.2004
1010,5 22,7 54 14,7 69 9,0 --- --- --- 0,5 05:06 06.06.2004
1010,5 22,6 54 14,7 70 9,3 --- --- --- 0,5 05:21 06.06.2004
1010,5 22,5 54 14,5 70 9,1 --- --- --- 0,5 05:36 06.06.2004
1010,6 22,5 54 14,3 71 9,1 --- --- --- 0,5 05:51 06.06.2004
1010,7 22,5 54 14,3 71 9,1 --- --- --- 0,5 06:06 06.06.2004
1010,5 22,3 54 14,2 71 9,0 --- --- --- 0,5 06:21 06.06.2004
1010,5 22,3 54 14,2 71 9,0 --- --- --- 0,5 06:36 06.06.2004
1010,6 22,3 54 14,1 72 9,1 --- --- --- 0,5 06:51 06.06.2004
1010,6 22,3 55 14,1 72 9,1 --- --- --- 0,5 07:06 06.06.2004
1010,6 22,3 55 14,1 72 9,1 --- --- --- 0,5 07:21 06.06.2004
1010,7 22,3 55 14,2 73 9,4 --- --- --- 0,5 07:36 06.06.2004
1010,9 22,2 55 14,4 73 9,6 --- --- --- 0,5 07:51 06.06.2004
1011,0 22,2 55 14,5 73 9,7 --- --- --- 0,5 08:06 06.06.2004
1011,2 22,2 55 14,8 74 10,2 --- --- --- 0,5 08:21 06.06.2004
1011,2 22,2 55 15,3 73 10,5 --- --- --- 0,5 08:36 06.06.2004
1011,1 22,2 55 15,8 70 10,3 --- --- --- 0,5 08:51 06.06.2004
1011,3 22,2 55 16,2 68 10,3 --- --- --- 0,5 09:06 06.06.2004
1011,3 22,2 55 16,4 67 10,2 --- --- --- 0,5 09:21 06.06.2004
1011,3 22,2 55 16,7 65 10,1 --- --- --- 0,5 09:36 06.06.2004
1011,3 22,3 55 16,9 65 10,3 --- --- --- 0,5 09:51 06.06.2004
1011,4 22,3 55 17,2 64 10,3 --- --- --- 0,5 10:06 06.06.2004
1011,5 22,3 54 17,5 64 10,6 --- --- --- 0,5 10:21 06.06.2004
1011,7 22,1 54 17,7 63 10,5 --- --- --- 0,5 10:36 06.06.2004
1011,6 22,0 53 17,8 62 10,4 --- --- --- 0,5 10:51 06.06.2004
1011,6 22,0 53 18,1 62 10,7 --- --- --- 0,5 11:06 06.06.2004
1011,6 22,1 52 18,4 62 11,0 --- --- --- 0,5 11:21 06.06.2004
1011,5 22,2 52 18,5 60 10,6 --- --- --- 0,5 11:36 06.06.2004
1011,4 22,2 51 18,7 61 11,0 --- --- --- 0,5 11:51 06.06.2004
1011,4 22,2 51 18,9 60 10,9 --- --- --- 0,5 12:06 06.06.2004
1011,4 22,2 51 19,1 59 10,9 --- --- --- 0,5 12:21 06.06.2004
1011,2 22,3 50 19,3 59 11,1 --- --- --- 0,5 12:36 06.06.2004
1011,3 22,4 51 19,5 57 10,7 --- --- --- 0,5 12:51 06.06.2004
1011,1 22,5 50 19,8 56 10,7 --- --- --- 0,5 13:06 06.06.2004
1011,1 22,6 50 20,1 55 10,8 --- --- --- 0,5 13:21 06.06.2004
1010,9 22,8 51 20,5 54 10,9 --- --- --- 0,5 13:36 06.06.2004
1010,8 23,0 50 20,8 53 10,8 --- --- --- 0,5 13:51 06.06.2004
1010,9 23,1 49 21,2 53 11,2 --- --- --- 0,5 14:06 06.06.2004
1010,8 23,1 49 21,5 50 10,6 --- --- --- 0,5 14:21 06.06.2004
1010,7 23,1 48 22,2 49 11,0 --- --- --- 0,5 14:36 06.06.2004
1010,6 23,3 49 23,4 47 11,4 --- --- --- 0,5 14:51 06.06.2004
1010,3 23,4 48 24,5 44 11,4 --- --- --- 0,5 15:06 06.06.2004
1010,3 23,5 48 25,4 43 11,9 --- --- --- 0,5 15:21 06.06.2004
1010,2 23,6 48 26,2 40 11,5 --- --- --- 0,5 15:36 06.06.2004
1010,1 23,7 49 26,4 39 11,3 --- --- --- 0,5 15:51 06.06.2004
1010,1 23,8 48 26,1 40 11,4 --- --- --- 0,5 16:06 06.06.2004
1010,0 23,9 48 25,8 40 11,2 --- --- --- 0,5 16:21 06.06.2004
1010,0 24,1 48 25,7 41 11,4 --- --- --- 0,5 16:36 06.06.2004
1009,9 24,2 49 25,5 41 11,3 --- --- --- 0,5 16:51 06.06.2004
1009,8 24,4 49 25,4 42 11,5 --- --- --- 0,5 17:06 06.06.2004
1009,7 24,6 47 25,1 43 11,6 --- --- --- 0,5 17:21 06.06.2004
1009,5 24,8 47 24,8 44 11,7 --- --- --- 0,5 17:36 06.06.2004
1009,6 25,1 46 24,7 43 11,3 --- --- --- 0,5 17:51 06.06.2004
1009,4 25,4 46 24,7 43 11,3 --- --- --- 0,5 18:06 06.06.2004
1009,3 25,6 45 24,8 43 11,4 --- --- --- 0,5 18:21 06.06.2004
1009,2 25,7 45 24,8 44 11,7 --- --- --- 0,5 18:36 06.06.2004
1009,3 25,8 45 24,7 43 11,3 --- --- --- 0,5 18:51 06.06.2004
1009,2 25,8 45 24,7 44 11,6 --- --- --- 0,5 19:06 06.06.2004
1009,3 25,8 45 24,7 43 11,3 --- --- --- 0,5 19:21 06.06.2004
1009,2 25,9 45 24,7 44 11,6 --- --- --- 0,5 19:36 06.06.2004
1009,3 26,1 44 24,6 44 11,5 --- --- --- 0,5 19:51 06.06.2004
1009,2 26,0 44 24,5 45 11,8 --- --- --- 0,5 20:06 06.06.2004
1009,3 25,8 46 24,4 45 11,7 --- --- --- 0,5 20:21 06.06.2004
1009,3 25,7 47 24,3 47 12,2 --- --- --- 0,5 20:36 06.06.2004
1009,2 25,5 47 24,0 48 12,3 --- --- --- 0,5 20:51 06.06.2004
1009,4 25,3 47 23,7 49 12,3 --- --- --- 0,5 21:06 06.06.2004
1009,6 25,1 47 23,2 51 12,5 --- --- --- 0,5 21:21 06.06.2004
1009,6 25,0 47 22,7 52 12,3 --- --- --- 0,5 21:36 06.06.2004
1009,5 24,8 48 22,3 53 12,2 --- --- --- 0,5 21:51 06.06.2004
1009,8 24,8 48 21,8 54 12,1 --- --- --- 0,5 22:06 06.06.2004
1010,0 24,9 49 21,5 55 12,1 --- --- --- 0,5 22:21 06.06.2004
1010,0 24,9 49 21,3 56 12,1 --- --- --- 0,5 22:36 06.06.2004
1010,2 24,9 50 21,1 57 12,2 --- --- --- 0,5 22:51 06.06.2004
1010,1 24,9 50 20,8 59 12,5 --- --- --- 0,5 23:06 06.06.2004
1010,1 25,0 50 20,5 59 12,2 --- --- --- 0,5 23:21 06.06.2004
1010,1 25,1 51 20,2 61 12,4 --- --- --- 0,5 23:36 06.06.2004
1010,3 25,1 51 19,9 62 12,4 --- --- --- 0,5 23:51 06.06.2004
1010,0 25,1 51 19,7 62 12,2 --- --- --- 0,5 00:06 07.06.2004
1010,0 25,1 52 19,4 64 12,4 --- --- --- 0,5 00:21 07.06.2004
1010,2 25,1 52 19,1 64 12,1 --- --- --- 0,5 00:36 07.06.2004
1009,9 25,1 52 18,8 65 12,1 --- --- --- 0,5 00:51 07.06.2004
1010,0 25,2 52 18,7 65 12,0 --- --- --- 0,5 01:06 07.06.2004
1009,9 25,2 51 18,5 66 12,0 --- --- --- 0,5 01:21 07.06.2004
1010,0 25,1 51 18,3 67 12,0 --- --- --- 0,5 01:36 07.06.2004
1010,0 25,0 51 18,2 67 11,9 --- --- --- 0,5 01:51 07.06.2004
1010,2 25,0 51 18,1 67 11,8 --- --- --- 0,5 02:06 07.06.2004
1010,1 24,9 52 17,7 67 11,5 --- --- --- 0,5 02:21 07.06.2004
1010,1 24,9 51 17,6 68 11,6 --- --- --- 0,5 02:36 07.06.2004
1010,1 24,8 51 17,4 68 11,4 --- --- --- 0,5 02:51 07.06.2004
1010,0 24,7 52 17,2 69 11,4 --- --- --- 0,5 03:06 07.06.2004
1010,0 24,6 52 17,1 69 11,3 --- --- --- 0,5 03:21 07.06.2004
1010,0 24,5 52 16,8 69 11,1 --- --- --- 0,5 03:36 07.06.2004
1010,2 24,5 52 16,7 69 11,0 --- --- --- 0,5 03:51 07.06.2004
1010,2 24,5 52 16,5 69 10,8 --- --- --- 0,5 04:06 07.06.2004
1010,1 24,4 52 16,4 71 11,1 --- --- --- 0,5 04:21 07.06.2004
1010,2 24,3 52 16,3 71 11,0 --- --- --- 0,5 04:36 07.06.2004
1010,1 24,3 52 16,2 71 10,9 --- --- --- 0,5 04:51 07.06.2004
1010,0 24,2 52 16,0 71 10,7 --- --- --- 0,5 05:06 07.06.2004
1010,0 24,2 52 15,8 71 10,5 --- --- --- 0,5 05:21 07.06.2004
1010,1 24,1 52 15,7 71 10,4 --- --- --- 0,5 05:36 07.06.2004
1010,2 24,0 52 15,5 71 10,2 --- --- --- 0,5 05:51 07.06.2004
1010,5 23,9 52 15,4 72 10,3 --- --- --- 0,5 06:06 07.06.2004
1010,4 23,8 52 15,3 73 10,5 --- --- --- 0,5 06:21 07.06.2004
1010,5 23,8 52 15,3 73 10,5 --- --- --- 0,5 06:36 07.06.2004
1010,6 23,6 52 15,4 73 10,6 --- --- --- 0,5 06:51 07.06.2004
1010,6 23,6 52 15,4 73 10,6 --- --- --- 0,5 07:06 07.06.2004
1010,8 23,5 52 15,5 72 10,4 --- --- --- 0,5 07:21 07.06.2004
1010,7 23,3 53 15,7 73 10,8 --- --- --- 0,5 07:36 07.06.2004
1010,9 23,3 53 15,8 73 10,9 --- --- --- 0,5 07:51 07.06.2004
1010,9 23,3 53 16,1 74 11,4 --- --- --- 0,5 08:06 07.06.2004
1010,9 23,3 54 16,4 74 11,7 --- --- --- 0,5 08:21 07.06.2004
1011,0 23,3 54 16,8 73 11,9 --- --- --- 0,5 08:36 07.06.2004
1011,2 23,3 54 17,2 73 12,3 --- --- --- 0,5 08:51 07.06.2004
1011,2 23,3 54 17,5 73 12,6 --- --- --- 0,5 09:06 07.06.2004
1011,2 23,3 54 18,1 72 12,9 --- --- --- 0,5 09:21 07.06.2004
1011,2 23,2 53 18,3 72 13,1 --- --- --- 0,5 09:36 07.06.2004
1011,2 23,2 53 18,7 68 12,6 --- --- --- 0,5 09:51 07.06.2004
1011,2 23,2 52 19,1 67 12,8 --- --- --- 0,5 10:06 07.06.2004
1011,4 23,0 50 19,4 65 12,6 --- --- --- 0,5 10:21 07.06.2004
1011,4 23,1 49 19,7 62 12,2 --- --- --- 0,5 10:36 07.06.2004
1011,3 23,1 49 20,1 60 12,1 --- --- --- 0,5 10:51 07.06.2004
1011,0 23,1 48 20,3 59 12,0 --- --- --- 0,5 11:06 07.06.2004
1011,2 23,2 49 20,6 57 11,8 --- --- --- 0,5 11:21 07.06.2004
1011,1 23,2 50 20,7 56 11,6 --- --- --- 0,5 11:36 07.06.2004
1011,2 23,2 51 20,9 56 11,8 --- --- --- 0,5 11:51 07.06.2004
1011,1 23,2 52 21,1 56 12,0 --- --- --- 0,5 12:06 07.06.2004
1011,2 23,3 52 21,4 56 12,2 --- --- --- 0,5 12:21 07.06.2004
1011,0 23,3 53 21,6 54 11,9 --- --- --- 0,5 12:36 07.06.2004
1010,9 23,3 53 21,8 54 12,1 --- --- --- 0,5 12:51 07.06.2004
1010,9 23,3 53 22,1 53 12,1 --- --- --- 0,5 13:06 07.06.2004
1010,9 23,4 54 22,4 54 12,6 --- --- --- 0,5 13:21 07.06.2004
1010,7 23,4 54 22,8 53 12,7 --- --- --- 0,5 13:36 07.06.2004
1010,7 23,4 54 23,2 52 12,8 --- --- --- 0,5 13:51 07.06.2004
1010,6 23,5 54 23,6 50 12,5 --- --- --- 0,5 14:06 07.06.2004
1010,5 23,6 55 24,1 50 13,0 --- --- --- 0,5 14:21 07.06.2004
1010,5 23,6 55 25,1 49 13,6 --- --- --- 0,5 14:36 07.06.2004
1010,6 23,7 55 26,4 46 13,8 --- --- --- 0,5 14:51 07.06.2004
1010,5 23,8 55 27,6 43 13,9 --- --- --- 0,5 15:06 07.06.2004
1010,3 23,8 55 28,5 40 13,6 --- --- --- 0,5 15:21 07.06.2004
1010,1 23,9 55 29,6 37 13,4 --- --- --- 0,5 15:36 07.06.2004
1010,1 24,1 55 29,7 38 13,9 --- --- --- 0,5 15:51 07.06.2004
1010,2 24,3 56 29,5 37 13,3 --- --- --- 0,5 16:06 07.06.2004
1010,0 24,6 55 28,9 39 13,5 --- --- --- 0,5 16:21 07.06.2004
1009,7 25,0 54 28,8 39 13,5 --- --- --- 0,5 16:36 07.06.2004
1009,9 25,2 53 28,5 38 12,8 --- --- --- 0,5 16:51 07.06.2004
1009,8 25,4 52 28,4 38 12,7 --- --- --- 0,5 17:06 07.06.2004
1009,5 25,7 51 27,4 42 13,3 --- --- --- 0,5 17:21 07.06.2004
1009,6 26,1 47 27,0 42 13,0 --- --- --- 0,5 17:36 07.06.2004
1009,6 26,4 49 26,6 44 13,3 --- --- --- 0,5 17:51 07.06.2004
1009,5 26,6 48 26,3 45 13,4 --- --- --- 0,5 18:06 07.06.2004
1009,6 26,8 49 26,5 46 13,9 --- --- --- 0,5 18:21 07.06.2004
1009,6 27,1 48 26,4 47 14,2 --- --- --- 0,5 18:36 07.06.2004
1009,4 27,2 48 26,6 46 14,0 --- --- --- 0,5 18:51 07.06.2004
1009,5 27,2 48 27,1 45 14,1 --- --- --- 0,5 19:06 07.06.2004
1009,5 27,2 48 27,4 44 14,1 --- --- --- 0,5 19:21 07.06.2004
1009,5 27,3 49 27,4 45 14,4 --- --- --- 0,5 19:36 07.06.2004
1009,5 27,3 49 27,3 46 14,7 --- --- --- 0,5 19:51 07.06.2004
1009,4 27,3 49 27,2 47 14,9 --- --- --- 0,5 20:06 07.06.2004
1009,5 27,4 50 26,8 48 14,9 --- --- --- 0,5 20:21 07.06.2004
1009,5 27,3 50 26,4 48 14,5 --- --- --- 0,5 20:36 07.06.2004
1009,4 27,2 50 26,1 50 14,8 --- --- --- 0,5 20:51 07.06.2004
1009,4 27,1 50 25,5 51 14,6 --- --- --- 0,5 21:06 07.06.2004
1009,4 27,0 51 25,1 52 14,5 --- --- --- 0,5 21:21 07.06.2004
1009,6 26,9 52 24,6 53 14,4 --- --- --- 0,5 21:36 07.06.2004
1009,8 26,8 51 24,2 55 14,6 --- --- --- 0,5 21:51 07.06.2004
1009,7 26,6 51 24,1 56 14,8 --- --- --- 0,5 22:06 07.06.2004
1009,9 26,5 51 23,7 57 14,7 --- --- --- 0,5 22:21 07.06.2004
1009,9 26,4 51 23,2 59 14,7 --- --- --- 0,5 22:36 07.06.2004
1009,9 26,3 51 23,0 60 14,8 --- --- --- 0,5 22:51 07.06.2004
1009,9 26,1 51 22,8 61 14,9 --- --- --- 0,5 23:06 07.06.2004
1010,0 26,0 51 22,5 62 14,8 --- --- --- 0,5 23:21 07.06.2004
1009,9 26,0 52 22,3 63 14,9 --- --- --- 0,5 23:36 07.06.2004
1010,1 26,2 53 22,2 63 14,8 --- --- --- 0,5 23:51 07.06.2004
1010,1 26,4 53 22,0 64 14,9 --- --- --- 0,5 00:06 08.06.2004
1010,3 26,5 53 21,7 64 14,6 --- --- --- 0,5 00:21 08.06.2004
1010,4 26,6 53 21,5 65 14,6 --- --- --- 0,5 00:36 08.06.2004
1010,4 26,6 53 21,4 66 14,8 --- --- --- 0,5 00:51 08.06.2004
1010,5 26,7 53 21,2 66 14,6 --- --- --- 0,5 01:06 08.06.2004
1010,5 26,7 54 21,0 67 14,6 --- --- --- 0,5 01:21 08.06.2004
1010,5 26,7 54 20,8 67 14,4 --- --- --- 0,5 01:36 08.06.2004
1010,6 26,6 54 20,7 68 14,6 --- --- --- 0,5 01:51 08.06.2004
1010,5 26,6 54 20,5 68 14,4 --- --- --- 0,5 02:06 08.06.2004
1010,5 26,5 54 20,5 69 14,6 --- --- --- 0,5 02:21 08.06.2004
1010,5 26,5 54 20,3 70 14,6 --- --- --- 0,5 02:36 08.06.2004
1010,4 26,5 54 20,3 70 14,6 --- --- --- 0,5 02:51 08.06.2004
1010,4 26,4 54 20,2 70 14,5 --- --- --- 0,5 03:06 08.06.2004
1010,4 26,4 54 20,1 70 14,4 --- --- --- 0,5 03:21 08.06.2004
1010,3 26,4 54 19,8 71 14,4 --- --- --- 0,5 03:36 08.06.2004
1010,4 26,4 54 19,5 71 14,1 --- --- --- 0,5 03:51 08.06.2004
1010,3 26,3 54 19,5 71 14,1 --- --- --- 0,5 04:06 08.06.2004
1010,3 26,2 54 19,5 71 14,1 --- --- --- 0,5 04:21 08.06.2004
1010,4 26,1 54 19,4 72 14,2 --- --- --- 0,5 04:36 08.06.2004
1010,3 26,0 54 19,3 72 14,1 --- --- --- 0,5 04:51 08.06.2004
1010,4 25,9 55 19,1 72 13,9 --- --- --- 0,5 05:06 08.06.2004
1010,5 25,8 55 19,0 72 13,8 --- --- --- 0,5 05:21 08.06.2004
1010,5 25,8 55 18,8 72 13,6 --- --- --- 0,5 05:36 08.06.2004
1010,6 25,7 55 18,7 72 13,5 --- --- --- 0,5 05:51 08.06.2004
1010,6 25,6 55 18,7 72 13,5 --- --- --- 0,5 06:06 08.06.2004
1010,5 25,5 55 18,7 72 13,5 --- --- --- 0,5 06:21 08.06.2004
1010,5 25,5 55 18,4 72 13,2 --- --- --- 0,5 06:36 08.06.2004
1010,6 25,4 55 18,5 73 13,5 --- --- --- 0,5 06:51 08.06.2004
1010,3 25,4 55 18,5 74 13,8 --- --- --- 0,5 07:06 08.06.2004
1010,3 25,2 55 18,5 73 13,5 --- --- --- 0,5 07:21 08.06.2004
1010,7 25,1 55 18,7 73 13,7 --- --- --- 0,5 07:36 08.06.2004
1010,7 25,1 55 19,1 73 14,1 --- --- --- 0,5 07:51 08.06.2004
1010,9 24,9 55 19,3 73 14,3 --- --- --- 0,5 08:06 08.06.2004
1010,9 24,8 55 19,7 71 14,3 --- --- --- 0,5 08:21 08.06.2004
1011,0 24,6 55 20,1 71 14,7 --- --- --- 0,5 08:36 08.06.2004
1011,1 24,5 55 20,4 70 14,7 --- --- --- 0,5 08:51 08.06.2004
1011,2 24,5 54 20,7 69 14,8 --- --- --- 0,5 09:06 08.06.2004
1011,2 24,4 54 21,0 68 14,8 --- --- --- 0,5 09:21 08.06.2004
1011,3 24,5 55 21,2 67 14,8 --- --- --- 0,5 09:36 08.06.2004
1011,3 24,5 55 21,6 65 14,7 --- --- --- 0,5 09:51 08.06.2004
1011,3 24,5 55 21,9 65 15,0 --- --- --- 0,5 10:06 08.06.2004
1011,4 24,6 55 22,1 64 14,9 --- --- --- 0,5 10:21 08.06.2004
1011,3 24,7 55 22,5 64 15,3 --- --- --- 0,5 10:36 08.06.2004
1011,1 24,8 55 22,7 63 15,3 --- --- --- 0,5 10:51 08.06.2004
1011,3 24,9 55 22,9 63 15,5 --- --- --- 0,5 11:06 08.06.2004
1011,4 25,0 54 23,2 62 15,5 --- --- --- 0,5 11:21 08.06.2004
1011,4 25,2 55 23,5 61 15,5 --- --- --- 0,5 11:36 08.06.2004
1011,3 25,4 55 23,7 61 15,7 --- --- --- 0,5 11:51 08.06.2004
1011,4 25,5 55 24,1 60 15,8 --- --- --- 0,5 12:06 08.06.2004
1011,3 25,6 55 24,3 60 16,0 --- --- --- 0,5 12:21 08.06.2004
1011,3 25,8 55 24,5 58 15,7 --- --- --- 0,5 12:36 08.06.2004
1011,4 26,0 53 24,7 57 15,6 --- --- --- 0,5 12:51 08.06.2004
1011,3 26,1 52 25,1 56 15,7 --- --- --- 0,5 13:06 08.06.2004
1010,9 26,3 52 25,3 55 15,6 --- --- --- 0,5 13:21 08.06.2004
1010,9 26,4 52 25,6 53 15,3 --- --- --- 0,5 13:36 08.06.2004
1010,9 26,4 52 26,1 50 14,8 --- --- --- 0,5 13:51 08.06.2004
1010,5 26,4 52 26,6 49 15,0 --- --- --- 0,5 14:06 08.06.2004
1010,7 26,4 52 27,1 49 15,5 --- --- --- 0,5 14:21 08.06.2004
1010,7 26,4 51 27,9 48 15,9 --- --- --- 0,5 14:36 08.06.2004
1010,6 26,4 51 29,3 44 15,8 --- --- --- 0,5 14:51 08.06.2004
1010,5 26,5 50 30,5 41 15,7 --- --- --- 0,5 15:06 08.06.2004
1010,5 26,6 51 31,1 39 15,5 --- --- --- 0,5 15:21 08.06.2004
1010,5 26,9 50 31,0 39 15,4 --- --- --- 0,5 15:36 08.06.2004
1010,5 27,1 48 30,8 39 15,2 --- --- --- 0,5 15:51 08.06.2004
1010,5 27,3 46 30,6 38 14,7 --- --- --- 0,5 16:06 08.06.2004
1010,2 27,6 45 30,6 37 14,2 --- --- --- 0,5 16:21 08.06.2004
1010,2 27,8 45 30,5 36 13,7 --- --- --- 0,5 16:36 08.06.2004
1010,2 27,9 45 30,5 36 13,7 --- --- --- 0,5 16:51 08.06.2004
1010,0 28,1 44 30,2 38 14,3 --- --- --- 0,5 17:06 08.06.2004
1009,8 28,4 44 30,1 39 14,6 --- --- --- 0,5 17:21 08.06.2004
1009,7 28,7 43 30,1 39 14,6 --- --- --- 0,5 17:36 08.06.2004
1009,9 28,9 43 30,1 39 14,6 --- --- --- 0,5 17:51 08.06.2004
1009,6 29,0 41 30,0 39 14,5 --- --- --- 0,5 18:06 08.06.2004
1009,5 29,2 42 29,7 40 14,6 --- --- --- 0,5 18:21 08.06.2004
1009,6 29,3 41 29,7 39 14,3 --- --- --- 0,5 18:36 08.06.2004
1009,5 29,4 41 29,8 39 14,3 --- --- --- 0,5 18:51 08.06.2004
1009,4 29,4 41 29,8 39 14,3 --- --- --- 0,5 19:06 08.06.2004
1009,5 29,5 41 29,8 39 14,3 --- --- --- 0,5 19:21 08.06.2004
1009,4 29,5 42 29,7 40 14,6 --- --- --- 0,5 19:36 08.06.2004
1009,6 29,5 42 29,7 40 14,6 --- --- --- 0,5 19:51 08.06.2004
1009,6 29,6 42 29,6 40 14,6 --- --- --- 0,5 20:06 08.06.2004
1009,5 29,5 42 29,5 41 14,9 --- --- --- 0,5 20:21 08.06.2004
1009,7 29,5 44 29,3 45 16,1 --- --- --- 0,5 20:36 08.06.2004
1009,9 29,3 46 28,7 46 15,9 --- --- --- 0,5 20:51 08.06.2004
1009,8 29,2 46 28,2 49 16,5 --- --- --- 0,5 21:06 08.06.2004
1010,0 29,0 47 27,7 49 16,0 --- --- --- 0,5 21:21 08.06.2004
1009,9 28,8 48 27,2 51 16,2 --- --- --- 0,5 21:36 08.06.2004
1010,1 28,7 48 26,7 52 16,0 --- --- --- 0,5 21:51 08.06.2004
1010,2 28,5 48 26,2 54 16,1 --- --- --- 0,5 22:06 08.06.2004
1010,4 28,3 48 25,7 54 15,7 --- --- --- 0,5 22:21 08.06.2004
1010,5 28,1 49 25,3 56 15,9 --- --- --- 0,5 22:36 08.06.2004
1010,5 28,2 50 25,1 57 16,0 --- --- --- 0,5 22:51 08.06.2004
1010,4 28,3 51 24,7 57 15,6 --- --- --- 0,5 23:06 08.06.2004
1010,4 28,4 50 24,5 58 15,7 --- --- --- 0,5 23:21 08.06.2004
1010,4 28,3 51 24,4 59 15,8 --- --- --- 0,5 23:36 08.06.2004
1010,5 28,4 51 24,1 59 15,6 --- --- --- 0,5 23:51 08.06.2004
1010,6 28,5 51 24,0 60 15,7 --- --- --- 0,5 00:06 09.06.2004
1010,6 28,5 51 23,8 60 15,5 --- --- --- 0,5 00:21 09.06.2004
1010,8 28,5 52 23,7 61 15,7 --- --- --- 0,5 00:36 09.06.2004
1010,8 28,5 52 23,4 61 15,4 --- --- --- 0,5 00:51 09.06.2004
1011,0 28,5 52 23,2 62 15,5 --- --- --- 0,5 01:06 09.06.2004
1011,3 28,5 52 23,2 63 15,7 --- --- --- 0,5 01:21 09.06.2004
1011,2 28,5 52 23,2 63 15,7 --- --- --- 0,5 01:36 09.06.2004
1011,2 28,5 52 23,1 63 15,7 --- --- --- 0,5 01:51 09.06.2004
1011,2 28,5 52 22,7 63 15,3 --- --- --- 0,5 02:06 09.06.2004
1011,1 28,6 52 22,6 64 15,4 --- --- --- 0,5 02:21 09.06.2004
1011,0 28,6 52 22,4 64 15,2 --- --- --- 0,5 02:36 09.06.2004
1011,0 28,5 52 22,2 65 15,3 --- --- --- 0,5 02:51 09.06.2004
1011,3 28,5 52 21,9 66 15,2 --- --- --- 0,5 03:06 09.06.2004
1011,3 28,5 52 21,7 66 15,0 --- --- --- 0,5 03:21 09.06.2004
1011,3 28,5 52 21,5 67 15,1 --- --- --- 0,5 03:36 09.06.2004
1011,4 28,5 52 21,4 68 15,2 --- --- --- 0,5 03:51 09.06.2004
1011,4 28,5 52 21,2 69 15,3 --- --- --- 0,5 04:06 09.06.2004
1011,2 28,3 52 21,2 69 15,3 --- --- --- 0,5 04:21 09.06.2004
1011,2 28,2 52 21,1 69 15,2 --- --- --- 0,5 04:36 09.06.2004
1011,2 28,1 52 21,0 69 15,1 --- --- --- 0,5 04:51 09.06.2004
1011,1 28,0 52 20,8 69 14,9 --- --- --- 0,5 05:06 09.06.2004
1011,1 27,8 53 20,7 69 14,8 --- --- --- 0,5 05:21 09.06.2004
1010,9 27,7 53 20,6 69 14,7 --- --- --- 0,5 05:36 09.06.2004
1010,9 27,6 53 20,5 69 14,6 --- --- --- 0,5 05:51 09.06.2004
1010,8 27,6 53 20,3 70 14,6 --- --- --- 0,5 06:06 09.06.2004
1010,8 27,5 53 20,3 71 14,8 --- --- --- 0,5 06:21 09.06.2004
1010,8 27,4 52 20,2 71 14,7 --- --- --- 0,5 06:36 09.06.2004
1011,0 27,3 53 20,4 71 14,9 --- --- --- 0,5 06:51 09.06.2004
1011,2 27,3 53 20,3 71 14,8 --- --- --- 0,5 07:06 09.06.2004
1011,3 27,2 53 20,4 72 15,2 --- --- --- 0,5 07:21 09.06.2004
1011,4 27,2 53 20,5 71 15,0 --- --- --- 0,5 07:36 09.06.2004
1011,6 27,1 53 20,7 72 15,4 --- --- --- 0,5 07:51 09.06.2004
1011,5 27,1 53 20,9 72 15,6 --- --- --- 0,5 08:06 09.06.2004
1011,6 27,0 53 21,1 73 16,0 --- --- --- 0,5 08:21 09.06.2004
1011,6 27,0 53 21,4 73 16,3 --- --- --- 0,5 08:36 09.06.2004
1011,5 27,0 54 21,7 71 16,2 --- --- --- 0,5 08:51 09.06.2004
1011,8 27,0 54 22,0 71 16,5 --- --- --- 0,5 09:06 09.06.2004
1011,7 26,9 55 22,4 70 16,6 --- --- --- 0,5 09:21 09.06.2004
1011,8 26,9 55 22,8 69 16,8 --- --- --- 0,5 09:36 09.06.2004
1011,7 26,9 56 23,1 69 17,1 --- --- --- 0,5 09:51 09.06.2004
1011,7 26,9 56 23,4 69 17,4 --- --- --- 0,5 10:06 09.06.2004
1011,8 27,0 55 23,7 67 17,2 --- --- --- 0,5 10:21 09.06.2004
1011,7 27,0 55 24,1 65 17,1 --- --- --- 0,5 10:36 09.06.2004
1011,8 27,0 53 24,4 63 16,9 --- --- --- 0,5 10:51 09.06.2004
1011,9 27,0 53 24,5 60 16,2 --- --- --- 0,5 11:06 09.06.2004
1011,9 27,0 52 24,7 60 16,4 --- --- --- 0,5 11:21 09.06.2004
1011,8 27,0 52 24,8 60 16,5 --- --- --- 0,5 11:36 09.06.2004
1011,9 27,0 52 25,1 60 16,8 --- --- --- 0,5 11:51 09.06.2004
1011,8 27,1 52 25,2 59 16,6 --- --- --- 0,5 12:06 09.06.2004
1011,8 27,1 52 25,3 58 16,4 --- --- --- 0,5 12:21 09.06.2004
1011,7 27,1 52 25,5 57 16,3 --- --- --- 0,5 12:36 09.06.2004
1011,6 27,2 52 25,8 56 16,3 --- --- --- 0,5 12:51 09.06.2004
1011,5 27,3 52 26,2 56 16,7 --- --- --- 0,5 13:06 09.06.2004
1011,6 27,4 52 26,4 54 16,3 --- --- --- 0,5 13:21 09.06.2004
1011,6 27,5 51 26,8 53 16,4 --- --- --- 0,5 13:36 09.06.2004
1011,6 27,5 50 27,1 51 16,1 --- --- --- 0,5 13:51 09.06.2004
1011,6 27,6 50 27,4 51 16,4 --- --- --- 0,5 14:06 09.06.2004
1011,4 27,7 50 27,9 49 16,2 --- --- --- 0,5 14:21 09.06.2004
1011,4 27,8 50 28,2 50 16,8 --- --- --- 0,5 14:36 09.06.2004
1011,4 28,0 50 28,9 48 16,8 --- --- --- 0,5 14:51 09.06.2004
1011,2 28,1 50 29,7 45 16,5 --- --- --- 0,5 15:06 09.06.2004
1011,4 28,1 50 29,1 47 16,6 --- --- --- 0,5 15:21 09.06.2004
1011,3 28,2 50 29,4 49 17,6 --- --- --- 0,5 15:36 09.06.2004
1011,2 28,3 51 30,1 47 17,5 --- --- --- 0,5 15:51 09.06.2004
1011,2 28,5 50 29,9 47 17,4 --- --- --- 0,5 16:06 09.06.2004
1011,1 28,5 51 29,4 48 17,2 --- --- --- 0,5 16:21 09.06.2004
1010,9 28,6 51 29,0 49 17,2 --- --- --- 0,5 16:36 09.06.2004
1010,8 28,7 51 28,9 50 17,4 --- --- --- 0,5 16:51 09.06.2004
1010,8 28,7 51 28,9 50 17,4 --- --- --- 0,5 17:06 09.06.2004
1010,8 28,8 51 28,7 51 17,5 --- --- --- 0,5 17:21 09.06.2004
1010,7 28,8 51 28,7 51 17,5 --- --- --- 0,5 17:36 09.06.2004
1010,7 28,9 52 28,8 52 17,9 --- --- --- 0,5 17:51 09.06.2004
1010,7 29,0 51 28,9 52 18,0 --- --- --- 0,5 18:06 09.06.2004
1010,6 29,2 51 28,8 52 17,9 --- --- --- 0,5 18:21 09.06.2004
1010,5 29,3 51 28,8 51 17,6 --- --- --- 0,5 18:36 09.06.2004
1010,3 29,4 50 28,9 51 17,7 --- --- --- 0,5 18:51 09.06.2004
1010,3 29,4 50 28,9 51 17,7 --- --- --- 0,5 19:06 09.06.2004
1010,2 29,5 49 28,8 51 17,6 --- --- --- 0,5 19:21 09.06.2004
1010,2 29,5 50 28,8 51 17,6 --- --- --- 0,5 19:36 09.06.2004
1010,2 29,4 50 28,7 51 17,5 --- --- --- 0,5 19:51 09.06.2004
1010,3 29,4 50 28,6 51 17,5 --- --- --- 0,5 20:06 09.06.2004
1010,6 29,3 50 28,4 52 17,6 --- --- --- 0,5 20:21 09.06.2004
1010,6 29,3 50 28,2 52 17,4 --- --- --- 0,5 20:36 09.06.2004
1010,6 29,2 50 28,1 52 17,3 --- --- --- 0,5 20:51 09.06.2004
1010,3 29,4 50 28,9 51 17,7 --- --- --- 0,5 21:06 09.06.2004
1010,2 29,5 49 28,8 51 17,6 --- --- --- 0,5 21:21 09.06.2004
1010,2 29,5 50 28,8 51 17,6 --- --- --- 0,5 21:36 09.06.2004
1010,2 29,4 50 28,7 51 17,5 --- --- --- 0,5 21:51 09.06.2004
1010,3 29,4 50 28,6 51 17,5 --- --- --- 0,5 22:06 09.06.2004
1010,6 29,3 50 28,4 52 17,6 --- --- --- 0,5 22:21 09.06.2004
1010,6 29,3 50 28,2 52 17,4 --- --- --- 0,5 22:36 09.06.2004
1010,6 29,2 50 28,1 52 17,3 --- --- --- 0,5 22:51 09.06.2004
1010,6 29,1 51 27,5 53 17,1 --- --- --- 0,5 23:06 09.06.2004
1010,8 28,9 52 27,2 55 17,4 --- --- --- 0,5 23:21 09.06.2004
1010,9 28,7 52 26,7 56 17,2 --- --- --- 0,5 23:36 09.06.2004
1011,2 28,5 52 26,4 57 17,2 --- --- --- 0,5 23:51 09.06.2004
1011,3 28,3 52 25,9 59 17,3 --- --- --- 0,5 00:06 10.06.2004
1011,5 28,0 52 25,5 60 17,1 --- --- --- 0,5 00:21 10.06.2004
1011,6 27,8 54 25,2 62 17,4 --- --- --- 0,5 00:36 10.06.2004
1011,7 28,0 54 25,1 62 17,3 --- --- --- 0,5 00:51 10.06.2004
1011,7 28,1 54 24,7 63 17,2 --- --- --- 0,5 01:06 10.06.2004
1011,9 28,2 54 24,8 63 17,3 --- --- --- 0,5 01:21 10.06.2004
1011,8 28,3 55 24,8 63 17,3 --- --- --- 0,5 01:36 10.06.2004
1011,9 28,4 55 24,6 63 17,1 --- --- --- 0,5 01:51 10.06.2004
1011,9 28,5 55 24,5 63 17,0 --- --- --- 0,5 02:06 10.06.2004
1012,0 28,5 55 24,3 64 17,0 --- --- --- 0,5 02:21 10.06.2004
1012,0 28,5 56 23,9 65 16,9 --- --- --- 0,5 02:36 10.06.2004
1012,1 28,5 56 23,7 65 16,7 --- --- --- 0,5 02:51 10.06.2004
1012,2 28,5 57 23,5 66 16,8 --- --- --- 0,5 03:06 10.06.2004
1012,1 28,5 57 23,3 67 16,8 --- --- --- 0,5 03:21 10.06.2004
1012,0 28,4 57 23,1 67 16,6 --- --- --- 0,5 03:36 10.06.2004
1011,9 28,4 57 22,8 67 16,3 --- --- --- 0,5 03:51 10.06.2004
1011,9 28,3 57 22,7 67 16,2 --- --- --- 0,5 04:06 10.06.2004
1011,9 28,3 58 22,4 68 16,2 --- --- --- 0,5 04:21 10.06.2004
1011,6 28,3 58 22,3 69 16,3 --- --- --- 0,5 04:36 10.06.2004
1011,5 28,2 57 22,2 69 16,2 --- --- --- 0,5 04:51 10.06.2004
1011,4 28,1 57 22,1 69 16,1 --- --- --- 0,5 05:06 10.06.2004
1011,1 28,1 57 21,8 69 15,8 --- --- --- 0,5 05:21 10.06.2004
1011,1 28,1 57 21,6 69 15,6 --- --- --- 0,5 05:36 10.06.2004
1011,0 28,0 57 21,5 69 15,5 --- --- --- 0,5 05:51 10.06.2004
1010,9 27,9 58 21,5 69 15,5 --- --- --- 0,5 06:06 10.06.2004
1010,7 27,9 57 21,4 69 15,5 --- --- --- 0,5 06:21 10.06.2004
1010,8 27,8 57 21,2 70 15,5 --- --- --- 0,5 06:36 10.06.2004
1010,7 27,8 57 21,1 69 15,2 --- --- --- 0,5 06:51 10.06.2004
1010,7 27,7 57 21,1 70 15,4 --- --- --- 0,5 07:06 10.06.2004
1010,7 27,7 57 21,0 70 15,3 --- --- --- 0,5 07:21 10.06.2004
1010,8 27,6 57 20,9 70 15,2 --- --- --- 0,5 07:36 10.06.2004
1010,6 27,6 56 20,7 70 15,0 --- --- --- 0,5 07:51 10.06.2004
1010,6 27,5 56 20,7 70 15,0 --- --- --- 0,5 08:06 10.06.2004
1010,5 27,5 56 20,7 70 15,0 --- --- --- 0,5 08:21 10.06.2004
1010,6 27,4 56 20,6 70 14,9 --- --- --- 0,5 08:36 10.06.2004
1010,6 27,4 56 20,7 71 15,2 --- --- --- 0,5 08:51 10.06.2004
1010,6 27,3 56 20,7 71 15,2 --- --- --- 0,5 09:06 10.06.2004
1010,6 27,3 56 20,8 71 15,3 --- --- --- 0,5 09:21 10.06.2004
1010,5 27,2 56 20,9 72 15,6 --- --- --- 0,5 09:36 10.06.2004
1010,6 27,0 54 21,1 72 15,8 --- --- --- 0,5 09:51 10.06.2004
1010,5 26,8 55 21,4 73 16,3 --- --- --- 0,5 10:06 10.06.2004
1010,4 26,7 55 21,6 72 16,3 --- --- --- 0,5 10:21 10.06.2004
1010,4 26,5 56 21,9 72 16,6 --- --- --- 0,5 10:36 10.06.2004
1010,4 26,5 57 22,3 72 17,0 --- --- --- 0,5 10:51 10.06.2004
1010,3 26,4 58 22,7 71 17,1 --- --- --- 0,5 11:06 10.06.2004
1010,2 26,4 58 22,9 71 17,3 --- --- --- 0,5 11:21 10.06.2004
1010,3 26,5 59 23,2 71 17,6 --- --- --- 0,5 11:36 10.06.2004
1010,4 26,6 59 23,5 70 17,7 --- --- --- 0,5 11:51 10.06.2004
1010,3 26,6 59 23,8 70 18,0 --- --- --- 0,5 12:06 10.06.2004
1010,4 26,7 60 24,1 71 18,5 --- --- --- 0,5 12:21 10.06.2004
1010,5 26,8 59 24,2 69 18,1 --- --- --- 0,5 12:36 10.06.2004
1010,5 26,9 58 24,5 66 17,7 --- --- --- 0,5 12:51 10.06.2004
1010,6 26,9 58 24,7 65 17,7 --- --- --- 0,5 13:06 10.06.2004
1010,6 27,0 56 24,8 65 17,8 --- --- --- 0,5 13:21 10.06.2004
1010,8 27,0 57 25,1 65 18,0 --- --- --- 0,5 13:36 10.06.2004
1010,8 27,1 57 25,2 65 18,1 --- --- --- 0,5 13:51 10.06.2004
1010,9 27,1 57 25,2 65 18,1 --- --- --- 0,5 14:06 10.06.2004
1011,0 27,1 57 25,4 65 18,3 --- --- --- 0,5 14:21 10.06.2004
1010,9 27,0 57 25,4 65 18,3 --- --- --- 0,5 14:36 10.06.2004
1011,0 27,1 57 25,5 64 18,2 --- --- --- 0,5 14:51 10.06.2004
1010,9 27,1 57 25,7 63 18,1 --- --- --- 0,5 15:06 10.06.2004
1011,1 27,2 57 25,9 63 18,3 --- --- --- 0,5 15:21 10.06.2004
1011,0 27,2 56 26,1 61 18,0 --- --- --- 0,5 15:36 10.06.2004
1010,9 27,2 55 26,1 60 17,7 --- --- --- 0,5 15:51 10.06.2004
1010,8 27,2 55 26,2 60 17,8 --- --- --- 0,5 16:06 10.06.2004
1010,8 27,3 55 26,5 58 17,5 --- --- --- 0,5 16:21 10.06.2004
1010,6 27,4 55 26,8 58 17,8 --- --- --- 0,5 16:36 10.06.2004
1010,7 27,4 54 26,9 57 17,6 --- --- --- 0,5 16:51 10.06.2004
1010,9 27,4 53 26,7 55 16,9 --- --- --- 0,5 17:06 10.06.2004
1010,7 27,3 52 26,6 55 16,8 --- --- --- 0,5 17:21 10.06.2004
1010,6 27,4 52 26,5 55 16,7 --- --- --- 0,5 17:36 10.06.2004
1010,6 27,4 52 26,8 54 16,7 --- --- --- 0,5 17:51 10.06.2004
1010,6 27,5 50 27,3 52 16,6 --- --- --- 0,5 18:06 10.06.2004
1010,5 27,5 50 27,2 51 16,2 --- --- --- 0,5 18:21 10.06.2004
1010,7 27,4 49 26,8 52 16,1 --- --- --- 0,5 18:36 10.06.2004
1010,8 27,3 50 26,5 52 15,8 --- --- --- 0,5 18:51 10.06.2004
1010,9 27,2 49 26,2 52 15,5 --- --- --- 0,5 19:06 10.06.2004
1011,4 27,1 49 25,6 53 15,3 --- --- --- 0,5 19:21 10.06.2004
1011,0 27,2 51 25,0 56 15,6 --- --- --- 0,5 19:36 10.06.2004
1010,5 27,5 52 25,1 58 16,2 --- --- --- 0,5 19:51 10.06.2004
1010,3 27,6 52 25,1 57 16,0 --- --- --- 0,5 20:06 10.06.2004
1010,6 27,7 52 25,4 57 16,2 --- --- --- 0,5 20:21 10.06.2004
1010,7 27,5 50 25,6 56 16,2 --- --- --- 0,5 20:36 10.06.2004
1010,6 27,2 49 25,3 56 15,9 --- --- --- 0,5 20:51 10.06.2004
1010,8 27,1 50 25,1 56 15,7 --- --- --- 0,5 21:06 10.06.2004
1010,9 27,1 51 25,1 57 16,0 --- --- --- 0,5 21:21 10.06.2004
1011,2 27,1 51 25,0 58 16,1 --- --- --- 0,5 21:36 10.06.2004
1011,4 27,2 52 24,9 58 16,0 --- --- --- 0,5 21:51 10.06.2004
1011,4 27,2 51 24,8 58 16,0 --- --- --- 0,5 22:06 10.06.2004
1011,4 27,2 50 24,9 57 15,8 --- --- --- 0,5 22:21 10.06.2004
1011,6 27,1 49 24,8 57 15,7 --- --- --- 0,5 22:36 10.06.2004
1011,6 26,9 50 24,5 57 15,4 --- --- --- 0,5 22:51 10.06.2004
1012,4 27,2 51 21,9 63 14,5 --- --- --- 0,5 22:51 10.06.2004
1012,3 27,2 51 21,6 64 14,5 --- --- --- 0,5 23:06 10.06.2004
1012,3 27,2 52 21,4 65 14,5 --- --- --- 0,5 23:21 10.06.2004
1012,4 27,2 52 21,1 66 14,5 --- --- --- 0,5 23:36 10.06.2004
1012,3 27,1 52 20,8 66 14,2 --- --- --- 0,5 23:51 10.06.2004
1012,3 27,1 52 20,5 67 14,1 --- --- --- 0,5 00:06 11.06.2004
1012,3 27,1 53 20,4 68 14,3 --- --- --- 0,5 00:21 11.06.2004
1012,3 27,0 53 20,1 68 14,0 --- --- --- 0,5 00:36 11.06.2004
1012,2 27,0 53 20,0 68 13,9 --- --- --- 0,5 00:51 11.06.2004
1012,1 27,0 53 19,8 69 13,9 --- --- --- 0,5 01:06 11.06.2004
1012,2 26,9 53 19,5 69 13,6 --- --- --- 0,5 01:21 11.06.2004
1012,0 26,9 54 19,4 70 13,8 --- --- --- 0,5 01:36 11.06.2004
1012,2 26,8 54 19,2 70 13,6 --- --- --- 0,5 01:51 11.06.2004
1012,1 26,8 54 18,8 69 13,0 --- --- --- 0,5 02:06 11.06.2004
1012,0 26,7 54 18,7 70 13,1 --- --- --- 0,5 02:21 11.06.2004
1012,0 26,7 54 18,6 70 13,0 --- --- --- 0,5 02:36 11.06.2004
1012,3 26,6 54 18,4 71 13,0 --- --- --- 0,5 02:51 11.06.2004
1012,0 26,6 54 18,2 71 12,8 --- --- --- 0,5 03:06 11.06.2004
1012,0 26,5 53 18,1 72 12,9 --- --- --- 0,5 03:21 11.06.2004
1011,9 26,5 54 18,2 72 13,0 --- --- --- 0,5 03:36 11.06.2004
1012,0 26,5 53 18,1 72 12,9 --- --- --- 0,5 03:51 11.06.2004
1011,7 26,4 53 18,1 72 12,9 --- --- --- 0,5 04:06 11.06.2004
1011,9 26,4 53 18,2 73 13,3 --- --- --- 0,5 04:21 11.06.2004
1011,7 26,3 53 18,2 73 13,3 --- --- --- 0,5 04:36 11.06.2004
1011,7 26,3 53 18,1 73 13,2 --- --- --- 0,5 04:51 11.06.2004
1011,9 26,2 53 17,9 73 13,0 --- --- --- 0,5 05:06 11.06.2004
1011,9 26,1 53 17,9 74 13,2 --- --- --- 0,5 05:21 11.06.2004
1011,8 26,1 53 17,9 74 13,2 --- --- --- 0,5 05:36 11.06.2004
1012,3 26,0 53 17,7 74 13,0 --- --- --- 0,5 05:51 11.06.2004
1012,4 26,0 53 17,7 74 13,0 --- --- --- 0,5 06:06 11.06.2004
1012,4 26,0 53 17,7 75 13,2 --- --- --- 0,5 06:21 11.06.2004
1012,3 26,0 53 17,7 75 13,2 --- --- --- 0,5 06:36 11.06.2004
1012,2 25,9 54 17,9 75 13,4 --- --- --- 0,5 06:51 11.06.2004
1012,3 25,9 54 18,1 75 13,6 --- --- --- 0,5 07:06 11.06.2004
1012,4 25,8 54 18,1 75 13,6 --- --- --- 0,5 07:21 11.06.2004
1012,3 25,8 54 18,4 75 13,9 --- --- --- 0,5 07:36 11.06.2004
1012,3 25,7 53 18,7 74 13,9 --- --- --- 0,5 07:51 11.06.2004
1012,4 25,5 53 18,8 74 14,0 --- --- --- 0,5 08:06 11.06.2004
1012,5 25,2 53 19,1 74 14,3 --- --- --- 0,5 08:21 11.06.2004
1012,5 24,9 53 19,2 74 14,4 --- --- --- 0,5 08:36 11.06.2004
1012,6 24,6 52 19,6 72 14,4 --- --- --- 0,5 08:51 11.06.2004
1012,8 24,5 52 19,8 71 14,4 --- --- --- 0,5 09:06 11.06.2004
1012,9 24,3 52 20,1 70 14,4 --- --- --- 0,5 09:21 11.06.2004
1013,0 24,2 51 20,2 69 14,3 --- --- --- 0,5 09:36 11.06.2004
1013,0 24,1 51 20,2 68 14,1 --- --- --- 0,5 09:51 11.06.2004
1013,0 24,1 51 20,5 67 14,1 --- --- --- 0,5 10:06 11.06.2004
1012,8 24,1 50 20,5 65 13,7 --- --- --- 0,5 10:21 11.06.2004
1012,7 24,1 51 20,6 64 13,5 --- --- --- 0,5 10:36 11.06.2004
1012,6 24,2 51 20,7 63 13,4 --- --- --- 0,5 10:51 11.06.2004
1012,4 24,2 52 20,9 63 13,6 --- --- --- 0,5 11:06 11.06.2004
1012,4 24,3 52 21,0 62 13,4 --- --- --- 0,5 11:21 11.06.2004
1012,3 24,3 52 21,1 62 13,5 --- --- --- 0,5 11:36 11.06.2004
1012,2 24,4 52 21,3 61 13,5 --- --- --- 0,5 11:51 11.06.2004
1012,1 24,4 52 21,4 61 13,5 --- --- --- 0,5 12:06 11.06.2004
1012,1 24,5 52 21,7 60 13,6 --- --- --- 0,5 12:21 11.06.2004
1011,9 24,5 52 21,8 59 13,4 --- --- --- 0,5 12:36 11.06.2004
1011,9 24,6 52 22,0 58 13,3 --- --- --- 0,5 12:51 11.06.2004
1011,9 24,6 52 21,9 58 13,2 --- --- --- 0,5 13:06 11.06.2004
1011,7 24,7 52 22,2 58 13,5 --- --- --- 0,5 13:21 11.06.2004
1011,6 24,7 53 22,4 58 13,7 --- --- --- 0,5 13:36 11.06.2004
1011,5 24,7 52 22,4 56 13,2 --- --- --- 0,5 13:51 11.06.2004
1011,5 24,7 52 22,5 55 13,0 --- --- --- 0,5 14:06 11.06.2004
1012,1 24,7 52 21,9 59 13,5 --- --- --- 0,5 14:21 11.06.2004
1011,9 24,7 53 21,3 63 13,9 --- --- --- 0,5 14:36 11.06.2004
1011,4 24,8 53 21,6 67 15,2 --- --- --- 0,5 14:51 11.06.2004
1011,4 24,9 53 22,6 66 15,9 --- --- --- 0,5 15:06 11.06.2004
1011,5 25,0 53 23,7 63 16,2 --- --- --- 0,5 15:21 11.06.2004
1011,4 25,1 53 23,9 61 15,9 --- --- --- 0,5 15:36 11.06.2004
1011,4 25,1 53 23,6 61 15,6 --- --- --- 0,5 15:51 11.06.2004
1011,3 25,2 53 23,9 58 15,1 --- --- --- 0,5 16:06 11.06.2004
1011,4 25,3 53 23,8 56 14,5 --- --- --- 0,5 16:21 11.06.2004
1011,3 25,4 53 23,8 54 13,9 --- --- --- 0,5 16:36 11.06.2004
1011,4 25,5 53 24,0 55 14,4 --- --- --- 0,5 16:51 11.06.2004
1012,0 25,7 53 24,1 53 13,9 --- --- --- 0,5 17:06 11.06.2004
1012,0 25,7 53 23,5 53 13,3 --- --- --- 0,5 17:21 11.06.2004
1011,9 25,6 53 22,9 56 13,6 --- --- --- 0,5 17:36 11.06.2004
1012,1 25,6 53 22,4 58 13,7 --- --- --- 0,5 17:51 11.06.2004
1011,6 25,7 53 22,0 58 13,3 --- --- --- 0,5 18:06 11.06.2004
1011,6 25,8 53 21,8 59 13,4 --- --- --- 0,5 18:21 11.06.2004
1011,4 25,9 53 21,8 59 13,4 --- --- --- 0,5 18:36 11.06.2004
1011,6 26,0 52 21,9 59 13,5 --- --- --- 0,5 18:51 11.06.2004
1011,3 26,4 52 22,2 58 13,5 --- --- --- 0,5 19:06 11.06.2004
1011,4 26,6 52 22,2 57 13,3 --- --- --- 0,5 19:21 11.06.2004
1011,4 26,7 52 22,1 56 12,9 --- --- --- 0,5 19:36 11.06.2004
1011,5 26,8 51 22,1 56 12,9 --- --- --- 0,5 19:51 11.06.2004
1011,5 26,8 51 22,1 56 12,9 --- --- --- 0,5 20:06 11.06.2004
1011,5 26,7 50 22,1 55 12,6 --- --- --- 0,5 20:21 11.06.2004
1011,5 26,6 50 21,9 55 12,4 --- --- --- 0,5 20:36 11.06.2004
1011,5 26,4 47 21,7 55 12,2 --- --- --- 0,5 20:51 11.06.2004
1011,9 26,2 46 21,4 56 12,2 --- --- --- 0,5 21:06 11.06.2004
1011,9 26,5 54 18,2 72 13,0 --- --- --- 0,5 03:36 09.06.2004
1012,0 26,5 53 18,1 72 12,9 --- --- --- 0,5 03:51 09.06.2004
1011,7 26,4 53 18,1 72 12,9 --- --- --- 0,5 04:06 09.06.2004
1011,9 26,4 53 18,2 73 13,3 --- --- --- 0,5 04:21 09.06.2004
1011,7 26,3 53 18,2 73 13,3 --- --- --- 0,5 04:36 09.06.2004
1011,7 26,3 53 18,1 73 13,2 --- --- --- 0,5 04:51 09.06.2004
1011,9 26,2 53 17,9 73 13,0 --- --- --- 0,5 05:06 09.06.2004
1011,9 26,1 53 17,9 74 13,2 --- --- --- 0,5 05:21 09.06.2004
1011,8 26,1 53 17,9 74 13,2 --- --- --- 0,5 05:36 09.06.2004
1012,3 26,0 53 17,7 74 13,0 --- --- --- 0,5 05:51 09.06.2004
1012,4 26,0 53 17,7 74 13,0 --- --- --- 0,5 06:06 09.06.2004
1012,4 26,0 53 17,7 75 13,2 --- --- --- 0,5 06:21 09.06.2004
1012,3 26,0 53 17,7 75 13,2 --- --- --- 0,5 06:36 09.06.2004
1012,2 25,9 54 17,9 75 13,4 --- --- --- 0,5 06:51 09.06.2004
1012,3 25,9 54 18,1 75 13,6 --- --- --- 0,5 07:06 09.06.2004
1012,4 25,8 54 18,1 75 13,6 --- --- --- 0,5 07:21 09.06.2004
1012,3 25,8 54 18,4 75 13,9 --- --- --- 0,5 07:36 09.06.2004
1012,3 25,7 53 18,7 74 13,9 --- --- --- 0,5 07:51 09.06.2004
1012,4 25,5 53 18,8 74 14,0 --- --- --- 0,5 08:06 09.06.2004
1012,5 25,2 53 19,1 74 14,3 --- --- --- 0,5 08:21 09.06.2004
1012,5 24,9 53 19,2 74 14,4 --- --- --- 0,5 08:36 09.06.2004
1012,6 24,6 52 19,6 72 14,4 --- --- --- 0,5 08:51 09.06.2004
1012,8 24,5 52 19,8 71 14,4 --- --- --- 0,5 09:06 09.06.2004
1012,9 24,3 52 20,1 70 14,4 --- --- --- 0,5 09:21 09.06.2004
1013,0 24,2 51 20,2 69 14,3 --- --- --- 0,5 09:36 09.06.2004
1013,0 24,1 51 20,2 68 14,1 --- --- --- 0,5 09:51 09.06.2004
1013,0 24,1 51 20,5 67 14,1 --- --- --- 0,5 10:06 09.06.2004
1012,8 24,1 50 20,5 65 13,7 --- --- --- 0,5 10:21 09.06.2004
1012,7 24,1 51 20,6 64 13,5 --- --- --- 0,5 10:36 09.06.2004
1012,6 24,2 51 20,7 63 13,4 --- --- --- 0,5 10:51 09.06.2004
1012,4 24,2 52 20,9 63 13,6 --- --- --- 0,5 11:06 09.06.2004
1012,4 24,3 52 21,0 62 13,4 --- --- --- 0,5 11:21 09.06.2004
1012,3 24,3 52 21,1 62 13,5 --- --- --- 0,5 11:36 09.06.2004
1012,2 24,4 52 21,3 61 13,5 --- --- --- 0,5 11:51 09.06.2004
1012,1 24,4 52 21,4 61 13,5 --- --- --- 0,5 12:06 09.06.2004
1012,1 24,5 52 21,7 60 13,6 --- --- --- 0,5 12:21 09.06.2004
1011,9 24,5 52 21,8 59 13,4 --- --- --- 0,5 12:36 09.06.2004
1011,9 24,6 52 22,0 58 13,3 --- --- --- 0,5 12:51 09.06.2004
1011,9 24,6 52 21,9 58 13,2 --- --- --- 0,5 13:06 09.06.2004
1011,7 24,7 52 22,2 58 13,5 --- --- --- 0,5 13:21 09.06.2004
1011,6 24,7 53 22,4 58 13,7 --- --- --- 0,5 13:36 09.06.2004
1011,5 24,7 52 22,4 56 13,2 --- --- --- 0,5 13:51 09.06.2004
1011,5 24,7 52 22,5 55 13,0 --- --- --- 0,5 14:06 09.06.2004
1012,1 24,7 52 21,9 59 13,5 --- --- --- 0,5 14:21 09.06.2004
1011,9 24,7 53 21,3 63 13,9 --- --- --- 0,5 14:36 09.06.2004
1011,4 24,8 53 21,6 67 15,2 --- --- --- 0,5 14:51 09.06.2004
1011,4 24,9 53 22,6 66 15,9 --- --- --- 0,5 15:06 09.06.2004
1011,5 25,0 53 23,7 63 16,2 --- --- --- 0,5 15:21 09.06.2004
1011,4 25,1 53 23,9 61 15,9 --- --- --- 0,5 15:36 09.06.2004
1011,4 25,1 53 23,6 61 15,6 --- --- --- 0,5 15:51 09.06.2004
1011,3 25,2 53 23,9 58 15,1 --- --- --- 0,5 16:06 09.06.2004
1011,4 25,3 53 23,8 56 14,5 --- --- --- 0,5 16:21 09.06.2004
1011,3 25,4 53 23,8 54 13,9 --- --- --- 0,5 16:36 09.06.2004
1011,4 25,5 53 24,0 55 14,4 --- --- --- 0,5 16:51 09.06.2004
1012,0 25,7 53 24,1 53 13,9 --- --- --- 0,5 17:06 09.06.2004
1012,0 25,7 53 23,5 53 13,3 --- --- --- 0,5 17:21 09.06.2004
1011,9 25,6 53 22,9 56 13,6 --- --- --- 0,5 17:36 09.06.2004
1012,1 25,6 53 22,4 58 13,7 --- --- --- 0,5 17:51 09.06.2004
1011,6 25,7 53 22,0 58 13,3 --- --- --- 0,5 18:06 09.06.2004
1011,6 25,8 53 21,8 59 13,4 --- --- --- 0,5 18:21 09.06.2004
1011,4 25,9 53 21,8 59 13,4 --- --- --- 0,5 18:36 09.06.2004
1011,6 26,0 52 21,9 59 13,5 --- --- --- 0,5 18:51 09.06.2004
1011,3 26,4 52 22,2 58 13,5 --- --- --- 0,5 19:06 09.06.2004
1011,4 26,6 52 22,2 57 13,3 --- --- --- 0,5 19:21 09.06.2004
1011,4 26,7 52 22,1 56 12,9 --- --- --- 0,5 19:36 09.06.2004
1011,5 26,8 51 22,1 56 12,9 --- --- --- 0,5 19:51 09.06.2004
1011,5 26,8 51 22,1 56 12,9 --- --- --- 0,5 20:06 09.06.2004
1011,5 26,7 50 22,1 55 12,6 --- --- --- 0,5 20:21 09.06.2004
1011,5 26,6 50 21,9 55 12,4 --- --- --- 0,5 20:36 09.06.2004
1011,5 26,4 47 21,7 55 12,2 --- --- --- 0,5 20:51 09.06.2004
1011,9 26,2 46 21,4 56 12,2 --- --- --- 0,5 21:06 09.06.2004
1011,7 26,0 46 21,1 56 12,0 --- --- --- 0,5 21:21 09.06.2004
1011,8 25,9 47 20,8 56 11,7 --- --- --- 0,5 21:36 09.06.2004
1012,0 25,9 47 20,5 57 11,7 --- --- --- 0,5 21:51 09.06.2004
1012,3 25,7 46 20,2 58 11,6 --- --- --- 0,5 22:06 09.06.2004
1012,3 25,5 46 20,1 58 11,6 --- --- --- 0,5 22:21 09.06.2004
1012,3 25,5 46 19,8 58 11,3 --- --- --- 0,5 22:36 09.06.2004
1012,6 25,5 46 19,7 58 11,2 --- --- --- 0,5 22:51 09.06.2004
1012,6 25,6 47 19,6 57 10,8 --- --- --- 0,5 23:06 09.06.2004
1012,6 25,6 48 19,5 58 11,0 --- --- --- 0,5 23:21 09.06.2004
1012,6 25,6 48 19,2 58 10,7 --- --- --- 0,5 23:36 09.06.2004
1012,7 25,5 48 19,0 59 10,8 --- --- --- 0,5 23:51 09.06.2004
1012,9 25,5 48 18,8 59 10,6 --- --- --- 0,5 00:06 10.06.2004
1012,9 25,4 48 18,6 59 10,4 --- --- --- 0,5 00:21 10.06.2004
1013,0 25,4 48 18,4 61 10,7 --- --- --- 0,5 00:36 10.06.2004
1013,1 25,4 49 18,2 61 10,5 --- --- --- 0,5 00:51 10.06.2004
1013,0 25,4 49 17,7 62 10,3 --- --- --- 0,5 01:06 10.06.2004
1013,2 25,4 49 17,4 63 10,3 --- --- --- 0,5 01:21 10.06.2004
1013,2 25,4 50 17,1 64 10,2 --- --- --- 0,5 01:36 10.06.2004
1013,3 25,4 51 16,8 64 9,9 --- --- --- 0,5 01:51 10.06.2004
1013,4 25,3 50 16,5 65 9,9 --- --- --- 0,5 02:06 10.06.2004
1013,4 25,2 50 16,2 66 9,8 --- --- --- 0,5 02:21 10.06.2004
1013,5 25,1 50 15,8 67 9,7 --- --- --- 0,5 02:36 10.06.2004
1013,4 25,0 50 15,7 67 9,6 --- --- --- 0,5 02:51 10.06.2004
1013,1 24,9 51 15,5 67 9,4 --- --- --- 0,5 03:06 10.06.2004
1013,2 24,8 51 15,5 68 9,6 --- --- --- 0,5 03:21 10.06.2004
1013,2 24,7 50 15,3 69 9,6 --- --- --- 0,5 03:36 10.06.2004
1013,1 24,6 51 15,3 69 9,6 --- --- --- 0,5 03:51 10.06.2004
1013,0 24,6 50 15,2 69 9,5 --- --- --- 0,5 04:06 10.06.2004
1013,0 24,5 50 15,2 70 9,7 --- --- --- 0,5 04:21 10.06.2004
1013,1 24,5 50 15,4 70 9,9 --- --- --- 0,5 04:36 10.06.2004
1013,1 24,4 50 15,5 68 9,6 --- --- --- 0,5 04:51 10.06.2004
1013,2 24,3 50 15,4 68 9,5 --- --- --- 0,5 05:06 10.06.2004
1013,3 24,3 50 15,5 68 9,6 --- --- --- 0,5 05:21 10.06.2004
1013,2 24,2 50 15,4 68 9,5 --- --- --- 0,5 05:36 10.06.2004
1013,2 24,1 50 15,4 69 9,7 --- --- --- 0,5 05:51 10.06.2004
1013,3 24,1 50 15,2 69 9,5 --- --- --- 0,5 06:06 10.06.2004
1013,3 24,0 50 15,2 69 9,5 --- --- --- 0,5 06:21 10.06.2004
1013,3 24,0 50 15,2 70 9,7 --- --- --- 0,5 06:36 10.06.2004
1013,3 23,9 50 15,2 70 9,7 --- --- --- 0,5 06:51 10.06.2004
1013,3 24,0 49 15,2 70 9,7 --- --- --- 0,5 07:06 10.06.2004
1013,3 24,0 49 15,2 70 9,7 --- --- --- 0,5 07:21 10.06.2004
1013,4 24,0 50 15,3 70 9,8 --- --- --- 0,5 07:36 10.06.2004
1013,5 24,0 51 15,4 70 9,9 --- --- --- 0,5 07:51 10.06.2004
1013,5 24,0 51 15,4 70 9,9 --- --- --- 0,5 08:06 10.06.2004
1013,7 23,9 52 15,5 69 9,8 --- --- --- 0,5 08:21 10.06.2004
1013,8 23,8 52 15,7 69 10,0 --- --- --- 0,5 08:36 10.06.2004
1013,9 23,7 52 15,8 68 9,9 --- --- --- 0,5 08:51 10.06.2004
1013,9 23,7 52 16,0 68 10,1 --- --- --- 0,5 09:06 10.06.2004
1013,9 23,6 52 16,2 68 10,3 --- --- --- 0,5 09:21 10.06.2004
1014,0 23,6 51 16,5 66 10,1 --- --- --- 0,5 09:36 10.06.2004
1014,0 23,5 50 16,7 65 10,1 --- --- --- 0,5 09:51 10.06.2004
1014,2 23,4 50 16,8 64 9,9 --- --- --- 0,5 10:06 10.06.2004
1014,3 23,4 50 17,2 64 10,3 --- --- --- 0,5 10:21 10.06.2004
1014,1 23,5 49 17,5 63 10,4 --- --- --- 0,5 10:36 10.06.2004
1014,2 23,4 48 17,6 63 10,4 --- --- --- 0,5 10:51 10.06.2004
1014,2 23,3 47 17,7 62 10,3 --- --- --- 0,5 11:06 10.06.2004
1014,3 23,2 47 18,1 61 10,4 --- --- --- 0,5 11:21 10.06.2004
1014,4 23,1 47 18,1 60 10,2 --- --- --- 0,5 11:36 10.06.2004
1014,6 23,0 46 18,3 59 10,1 --- --- --- 0,5 11:51 10.06.2004
1014,6 23,0 46 18,5 58 10,1 --- --- --- 0,5 12:06 10.06.2004
1014,8 22,9 47 18,5 58 10,1 --- --- --- 0,5 12:21 10.06.2004
1014,8 22,9 46 18,7 56 9,7 --- --- --- 0,5 12:36 10.06.2004
1014,9 23,0 45 18,7 55 9,5 --- --- --- 0,5 12:51 10.06.2004
1014,8 23,1 45 19,1 54 9,5 --- --- --- 0,5 13:06 10.06.2004
1014,9 23,2 44 19,4 52 9,3 --- --- --- 0,5 13:21 10.06.2004
1014,9 23,3 40 19,4 52 9,3 --- --- --- 0,5 13:36 10.06.2004
1014,9 23,4 42 19,5 51 9,1 --- --- --- 0,5 13:51 10.06.2004
1014,8 23,4 43 19,7 50 9,0 --- --- --- 0,5 14:06 10.06.2004
1014,6 23,6 44 20,0 49 8,9 --- --- --- 0,5 14:21 10.06.2004
1014,9 23,8 44 20,1 49 9,0 --- --- --- 0,5 14:36 10.06.2004
1014,7 24,0 44 20,2 50 9,4 --- --- --- 0,5 14:51 10.06.2004
1014,6 24,0 44 21,2 48 9,7 --- --- --- 0,5 15:06 10.06.2004
1014,7 24,0 44 22,2 45 9,7 --- --- --- 0,5 15:21 10.06.2004
1014,7 24,0 44 21,8 45 9,3 --- --- --- 0,5 15:36 10.06.2004
1014,5 24,0 44 21,2 46 9,1 --- --- --- 0,5 15:51 10.06.2004
1014,7 24,0 44 20,7 47 9,0 --- --- --- 0,5 16:06 10.06.2004
1014,5 24,0 44 21,0 47 9,2 --- --- --- 0,5 16:21 10.06.2004
1014,7 24,0 44 21,1 46 9,0 --- --- --- 0,5 16:36 10.06.2004
1014,8 23,9 44 20,8 47 9,1 --- --- --- 0,5 16:51 10.06.2004
1015,1 23,9 43 20,7 47 9,0 --- --- --- 0,5 17:06 10.06.2004
1014,9 23,9 43 20,7 48 9,3 --- --- --- 0,5 17:21 10.06.2004
1014,8 23,9 43 20,7 47 9,0 --- --- --- 0,5 17:36 10.06.2004
1014,9 24,1 42 21,2 47 9,4 --- --- --- 0,5 17:51 10.06.2004
1015,1 24,1 42 21,3 46 9,2 --- --- --- 0,5 18:06 10.06.2004
1015,0 24,2 42 21,1 46 9,0 --- --- --- 0,5 18:21 10.06.2004
1015,1 24,5 42 21,1 46 9,0 --- --- --- 0,5 18:36 10.06.2004
1015,1 24,6 42 21,0 46 8,9 --- --- --- 0,5 18:51 10.06.2004
1015,1 24,7 42 20,8 46 8,7 --- --- --- 0,5 19:06 10.06.2004
1015,2 24,8 42 20,8 46 8,7 --- --- --- 0,5 19:21 10.06.2004
1015,3 24,9 42 21,1 45 8,7 --- --- --- 0,5 19:36 10.06.2004
1015,6 24,9 41 21,1 44 8,3 --- --- --- 0,5 19:51 10.06.2004
1015,6 24,8 41 20,8 45 8,4 --- --- --- 0,5 20:06 10.06.2004
1015,9 24,8 41 20,7 45 8,3 --- --- --- 0,5 20:21 10.06.2004
1016,1 24,8 41 20,7 46 8,6 --- --- --- 0,5 20:36 10.06.2004
1016,1 24,7 42 20,4 47 8,7 --- --- --- 0,5 20:51 10.06.2004
1016,3 24,6 42 20,2 47 8,5 --- --- --- 0,5 21:06 10.06.2004
1016,6 24,6 43 20,1 48 8,7 --- --- --- 0,5 21:21 10.06.2004
1016,8 24,5 43 19,8 48 8,4 --- --- --- 0,5 21:36 10.06.2004
1017,0 24,6 43 19,6 48 8,3 --- --- --- 0,5 21:51 10.06.2004
1017,4 24,6 43 19,4 50 8,7 --- --- --- 0,5 22:06 10.06.2004
1017,6 24,6 43 19,2 50 8,5 --- --- --- 0,5 22:21 10.06.2004
1017,9 24,6 43 19,0 51 8,6 --- --- --- 0,5 22:36 10.06.2004
1018,0 24,7 44 18,7 51 8,3 --- --- --- 0,5 22:51 10.06.2004
1018,1 24,7 44 18,5 52 8,4 --- --- --- 0,5 23:06 10.06.2004
1018,0 24,7 45 18,4 53 8,6 --- --- --- 0,5 23:21 10.06.2004
1011,6 25,8 53 21,8 59 13,4 --- --- --- 0,5 18:21 11.06.2004
1011,4 25,9 53 21,8 59 13,4 --- --- --- 0,5 18:36 11.06.2004
1011,6 26,0 52 21,9 59 13,5 --- --- --- 0,5 18:51 11.06.2004
1011,3 26,4 52 22,2 58 13,5 --- --- --- 0,5 19:06 11.06.2004
1011,4 26,6 52 22,2 57 13,3 --- --- --- 0,5 19:21 11.06.2004
1011,4 26,7 52 22,1 56 12,9 --- --- --- 0,5 19:36 11.06.2004
1011,5 26,8 51 22,1 56 12,9 --- --- --- 0,5 19:51 11.06.2004
1011,5 26,8 51 22,1 56 12,9 --- --- --- 0,5 20:06 11.06.2004
1011,5 26,7 50 22,1 55 12,6 --- --- --- 0,5 20:21 11.06.2004
1011,5 26,6 50 21,9 55 12,4 --- --- --- 0,5 20:36 11.06.2004
1011,5 26,4 47 21,7 55 12,2 --- --- --- 0,5 20:51 11.06.2004
1011,9 26,2 46 21,4 56 12,2 --- --- --- 0,5 21:06 11.06.2004
1011,7 26,0 46 21,1 56 12,0 --- --- --- 0,5 21:21 11.06.2004
1011,8 25,9 47 20,8 56 11,7 --- --- --- 0,5 21:36 11.06.2004
1012,0 25,9 47 20,5 57 11,7 --- --- --- 0,5 21:51 11.06.2004
1012,3 25,7 46 20,2 58 11,6 --- --- --- 0,5 22:06 11.06.2004
1012,3 25,5 46 20,1 58 11,6 --- --- --- 0,5 22:21 11.06.2004
1012,3 25,5 46 19,8 58 11,3 --- --- --- 0,5 22:36 11.06.2004
1012,6 25,5 46 19,7 58 11,2 --- --- --- 0,5 22:51 11.06.2004
1012,6 25,6 47 19,6 57 10,8 --- --- --- 0,5 23:06 11.06.2004
1012,6 25,6 48 19,5 58 11,0 --- --- --- 0,5 23:21 11.06.2004
1012,6 25,6 48 19,2 58 10,7 --- --- --- 0,5 23:36 11.06.2004
1012,7 25,5 48 19,0 59 10,8 --- --- --- 0,5 23:51 11.06.2004
1012,9 25,5 48 18,8 59 10,6 --- --- --- 0,5 00:06 12.06.2004
1012,9 25,4 48 18,6 59 10,4 --- --- --- 0,5 00:21 12.06.2004
1013,0 25,4 48 18,4 61 10,7 --- --- --- 0,5 00:36 12.06.2004
1013,1 25,4 49 18,2 61 10,5 --- --- --- 0,5 00:51 12.06.2004
1013,0 25,4 49 17,7 62 10,3 --- --- --- 0,5 01:06 12.06.2004
1013,2 25,4 49 17,4 63 10,3 --- --- --- 0,5 01:21 12.06.2004
1013,2 25,4 50 17,1 64 10,2 --- --- --- 0,5 01:36 12.06.2004
1013,3 25,4 51 16,8 64 9,9 --- --- --- 0,5 01:51 12.06.2004
1013,4 25,3 50 16,5 65 9,9 --- --- --- 0,5 02:06 12.06.2004
1013,4 25,2 50 16,2 66 9,8 --- --- --- 0,5 02:21 12.06.2004
1013,5 25,1 50 15,8 67 9,7 --- --- --- 0,5 02:36 12.06.2004
1013,4 25,0 50 15,7 67 9,6 --- --- --- 0,5 02:51 12.06.2004
1013,1 24,9 51 15,5 67 9,4 --- --- --- 0,5 03:06 12.06.2004
1013,2 24,8 51 15,5 68 9,6 --- --- --- 0,5 03:21 12.06.2004
1013,2 24,7 50 15,3 69 9,6 --- --- --- 0,5 03:36 12.06.2004
1013,1 24,6 51 15,3 69 9,6 --- --- --- 0,5 03:51 12.06.2004
1013,0 24,6 50 15,2 69 9,5 --- --- --- 0,5 04:06 12.06.2004
1013,0 24,5 50 15,2 70 9,7 --- --- --- 0,5 04:21 12.06.2004
1013,1 24,5 50 15,4 70 9,9 --- --- --- 0,5 04:36 12.06.2004
1013,1 24,4 50 15,5 68 9,6 --- --- --- 0,5 04:51 12.06.2004
1013,2 24,3 50 15,4 68 9,5 --- --- --- 0,5 05:06 12.06.2004
1013,3 24,3 50 15,5 68 9,6 --- --- --- 0,5 05:21 12.06.2004
1013,2 24,2 50 15,4 68 9,5 --- --- --- 0,5 05:36 12.06.2004
1013,2 24,1 50 15,4 69 9,7 --- --- --- 0,5 05:51 12.06.2004
1013,3 24,1 50 15,2 69 9,5 --- --- --- 0,5 06:06 12.06.2004
1013,3 24,0 50 15,2 69 9,5 --- --- --- 0,5 06:21 12.06.2004
1013,3 24,0 50 15,2 70 9,7 --- --- --- 0,5 06:36 12.06.2004
1013,3 23,9 50 15,2 70 9,7 --- --- --- 0,5 06:51 12.06.2004
1013,3 24,0 49 15,2 70 9,7 --- --- --- 0,5 07:06 12.06.2004
1013,3 24,0 49 15,2 70 9,7 --- --- --- 0,5 07:21 12.06.2004
1013,4 24,0 50 15,3 70 9,8 --- --- --- 0,5 07:36 12.06.2004
1013,5 24,0 51 15,4 70 9,9 --- --- --- 0,5 07:51 12.06.2004
1013,5 24,0 51 15,4 70 9,9 --- --- --- 0,5 08:06 12.06.2004
1013,7 23,9 52 15,5 69 9,8 --- --- --- 0,5 08:21 12.06.2004
1013,8 23,8 52 15,7 69 10,0 --- --- --- 0,5 08:36 12.06.2004
1013,9 23,7 52 15,8 68 9,9 --- --- --- 0,5 08:51 12.06.2004
1013,9 23,7 52 16,0 68 10,1 --- --- --- 0,5 09:06 12.06.2004
1013,9 23,6 52 16,2 68 10,3 --- --- --- 0,5 09:21 12.06.2004
1014,0 23,6 51 16,5 66 10,1 --- --- --- 0,5 09:36 12.06.2004
1014,0 23,5 50 16,7 65 10,1 --- --- --- 0,5 09:51 12.06.2004
1014,2 23,4 50 16,8 64 9,9 --- --- --- 0,5 10:06 12.06.2004
1014,3 23,4 50 17,2 64 10,3 --- --- --- 0,5 10:21 12.06.2004
1014,1 23,5 49 17,5 63 10,4 --- --- --- 0,5 10:36 12.06.2004
1014,2 23,4 48 17,6 63 10,4 --- --- --- 0,5 10:51 12.06.2004
1014,2 23,3 47 17,7 62 10,3 --- --- --- 0,5 11:06 12.06.2004
1014,3 23,2 47 18,1 61 10,4 --- --- --- 0,5 11:21 12.06.2004
1014,4 23,1 47 18,1 60 10,2 --- --- --- 0,5 11:36 12.06.2004
1014,6 23,0 46 18,3 59 10,1 --- --- --- 0,5 11:51 12.06.2004
1014,6 23,0 46 18,5 58 10,1 --- --- --- 0,5 12:06 12.06.2004
1014,8 22,9 47 18,5 58 10,1 --- --- --- 0,5 12:21 12.06.2004
1014,8 22,9 46 18,7 56 9,7 --- --- --- 0,5 12:36 12.06.2004
1014,9 23,0 45 18,7 55 9,5 --- --- --- 0,5 12:51 12.06.2004
1014,8 23,1 45 19,1 54 9,5 --- --- --- 0,5 13:06 12.06.2004
1014,9 23,2 44 19,4 52 9,3 --- --- --- 0,5 13:21 12.06.2004
1014,9 23,3 40 19,4 52 9,3 --- --- --- 0,5 13:36 12.06.2004
1014,9 23,4 42 19,5 51 9,1 --- --- --- 0,5 13:51 12.06.2004
1014,8 23,4 43 19,7 50 9,0 --- --- --- 0,5 14:06 12.06.2004
1014,6 23,6 44 20,0 49 8,9 --- --- --- 0,5 14:21 12.06.2004
1014,9 23,8 44 20,1 49 9,0 --- --- --- 0,5 14:36 12.06.2004
1014,7 24,0 44 20,2 50 9,4 --- --- --- 0,5 14:51 12.06.2004
1014,6 24,0 44 21,2 48 9,7 --- --- --- 0,5 15:06 12.06.2004
1014,7 24,0 44 22,2 45 9,7 --- --- --- 0,5 15:21 12.06.2004
1014,7 24,0 44 21,8 45 9,3 --- --- --- 0,5 15:36 12.06.2004
1014,5 24,0 44 21,2 46 9,1 --- --- --- 0,5 15:51 12.06.2004
1014,7 24,0 44 20,7 47 9,0 --- --- --- 0,5 16:06 12.06.2004
1014,5 24,0 44 21,0 47 9,2 --- --- --- 0,5 16:21 12.06.2004
1014,7 24,0 44 21,1 46 9,0 --- --- --- 0,5 16:36 12.06.2004
1014,8 23,9 44 20,8 47 9,1 --- --- --- 0,5 16:51 12.06.2004
1015,1 23,9 43 20,7 47 9,0 --- --- --- 0,5 17:06 12.06.2004
1014,9 23,9 43 20,7 48 9,3 --- --- --- 0,5 17:21 12.06.2004
1014,8 23,9 43 20,7 47 9,0 --- --- --- 0,5 17:36 12.06.2004
1014,9 24,1 42 21,2 47 9,4 --- --- --- 0,5 17:51 12.06.2004
1015,1 24,1 42 21,3 46 9,2 --- --- --- 0,5 18:06 12.06.2004
1015,0 24,2 42 21,1 46 9,0 --- --- --- 0,5 18:21 12.06.2004
1015,1 24,5 42 21,1 46 9,0 --- --- --- 0,5 18:36 12.06.2004
1015,1 24,6 42 21,0 46 8,9 --- --- --- 0,5 18:51 12.06.2004
1015,1 24,7 42 20,8 46 8,7 --- --- --- 0,5 19:06 12.06.2004
1015,2 24,8 42 20,8 46 8,7 --- --- --- 0,5 19:21 12.06.2004
1015,3 24,9 42 21,1 45 8,7 --- --- --- 0,5 19:36 12.06.2004
1015,6 24,9 41 21,1 44 8,3 --- --- --- 0,5 19:51 12.06.2004
1015,6 24,8 41 20,8 45 8,4 --- --- --- 0,5 20:06 12.06.2004
1015,9 24,8 41 20,7 45 8,3 --- --- --- 0,5 20:21 12.06.2004
1016,1 24,8 41 20,7 46 8,6 --- --- --- 0,5 20:36 12.06.2004
1016,1 24,7 42 20,4 47 8,7 --- --- --- 0,5 20:51 12.06.2004
1016,3 24,6 42 20,2 47 8,5 --- --- --- 0,5 21:06 12.06.2004
1016,6 24,6 43 20,1 48 8,7 --- --- --- 0,5 21:21 12.06.2004
1016,8 24,5 43 19,8 48 8,4 --- --- --- 0,5 21:36 12.06.2004
1017,0 24,6 43 19,6 48 8,3 --- --- --- 0,5 21:51 12.06.2004
1017,4 24,6 43 19,4 50 8,7 --- --- --- 0,5 22:06 12.06.2004
1017,6 24,6 43 19,2 50 8,5 --- --- --- 0,5 22:21 12.06.2004
1017,9 24,6 43 19,0 51 8,6 --- --- --- 0,5 22:36 12.06.2004
1018,0 24,7 44 18,7 51 8,3 --- --- --- 0,5 22:51 12.06.2004
1018,1 24,7 44 18,5 52 8,4 --- --- --- 0,5 23:06 12.06.2004
1018,0 24,7 45 18,4 53 8,6 --- --- --- 0,5 23:21 12.06.2004
1018,2 24,8 45 18,2 54 8,7 --- --- --- 0,5 23:36 12.06.2004
1018,2 24,8 45 18,1 54 8,6 --- --- --- 0,5 23:51 12.06.2004
1018,3 24,7 45 17,9 55 8,7 --- --- --- 0,5 00:06 13.06.2004
1018,4 24,7 45 17,7 55 8,5 --- --- --- 0,5 00:21 13.06.2004
1018,5 24,7 45 17,5 56 8,6 --- --- --- 0,5 00:36 13.06.2004
1018,6 24,7 45 17,2 57 8,6 --- --- --- 0,5 00:51 13.06.2004
1018,5 24,7 45 16,9 58 8,6 --- --- --- 0,5 01:06 13.06.2004
1018,5 24,7 45 16,7 59 8,6 --- --- --- 0,5 01:21 13.06.2004
1018,7 24,7 45 16,4 61 8,8 --- --- --- 0,5 01:36 13.06.2004
1018,9 24,7 45 16,1 62 8,8 --- --- --- 0,5 01:51 13.06.2004
1018,8 24,7 45 15,9 63 8,8 --- --- --- 0,5 02:06 13.06.2004
1018,8 24,7 45 15,7 64 8,9 --- --- --- 0,5 02:21 13.06.2004
1019,0 24,6 45 15,4 64 8,6 --- --- --- 0,5 02:36 13.06.2004
1019,0 24,6 45 15,2 66 8,9 --- --- --- 0,5 02:51 13.06.2004
1019,0 24,6 45 15,1 66 8,8 --- --- --- 0,5 03:06 13.06.2004
1019,0 24,5 45 14,8 67 8,7 --- --- --- 0,5 03:21 13.06.2004
1019,2 24,5 45 14,6 67 8,5 --- --- --- 0,5 03:36 13.06.2004
1019,3 24,5 45 14,5 68 8,6 --- --- --- 0,5 03:51 13.06.2004
1019,4 24,4 45 14,4 69 8,8 --- --- --- 0,5 04:06 13.06.2004
1019,5 24,4 45 14,4 69 8,8 --- --- --- 0,5 04:21 13.06.2004
1019,4 24,4 45 14,2 69 8,6 --- --- --- 0,5 04:36 13.06.2004
1019,6 24,3 45 14,1 69 8,5 --- --- --- 0,5 04:51 13.06.2004
1019,6 24,2 45 13,8 70 8,4 --- --- --- 0,5 05:06 13.06.2004
1019,8 24,1 45 13,8 70 8,4 --- --- --- 0,5 05:21 13.06.2004
1019,8 24,0 45 13,7 70 8,3 --- --- --- 0,5 05:36 13.06.2004
1020,0 23,9 46 13,7 71 8,5 --- --- --- 0,5 05:51 13.06.2004
1020,0 23,8 46 13,8 71 8,6 --- --- --- 0,5 06:06 13.06.2004
1020,1 23,7 46 13,9 72 8,9 --- --- --- 0,5 06:21 13.06.2004
1020,1 23,7 47 13,7 72 8,7 --- --- --- 0,5 06:36 13.06.2004
1020,2 23,6 47 13,8 73 9,0 --- --- --- 0,5 06:51 13.06.2004
1020,5 23,5 47 14,1 73 9,3 --- --- --- 0,5 07:06 13.06.2004
1020,3 23,5 47 14,3 73 9,5 --- --- --- 0,5 07:21 13.06.2004
1020,3 23,5 47 14,6 72 9,6 --- --- --- 0,5 07:36 13.06.2004
1020,5 23,4 47 14,8 72 9,8 --- --- --- 0,5 07:51 13.06.2004
1020,6 23,4 47 15,0 72 10,0 --- --- --- 0,5 08:06 13.06.2004
1020,7 23,4 47 15,2 72 10,2 --- --- --- 0,5 08:21 13.06.2004
1020,9 23,4 48 15,3 71 10,0 --- --- --- 0,5 08:36 13.06.2004
1020,8 23,4 48 15,4 71 10,1 --- --- --- 0,5 08:51 13.06.2004
1021,1 23,5 48 15,6 69 9,9 --- --- --- 0,5 09:06 13.06.2004
1021,2 23,5 47 15,9 68 10,0 --- --- --- 0,5 09:21 13.06.2004
1021,4 23,4 47 16,2 67 10,0 --- --- --- 0,5 09:36 13.06.2004
1021,4 23,4 47 16,4 66 10,0 --- --- --- 0,5 09:51 13.06.2004
1021,5 23,4 46 16,5 64 9,6 --- --- --- 0,5 10:06 13.06.2004
1021,5 23,4 46 16,6 63 9,5 --- --- --- 0,5 10:21 13.06.2004
1021,3 23,4 47 16,8 63 9,7 --- --- --- 0,5 10:36 13.06.2004
1021,4 23,4 47 17,0 62 9,6 --- --- --- 0,5 10:51 13.06.2004
1021,4 23,3 46 17,2 61 9,6 --- --- --- 0,5 11:06 13.06.2004
1021,4 23,2 46 17,4 62 10,0 --- --- --- 0,5 11:21 13.06.2004
1021,5 23,1 46 17,5 61 9,9 --- --- --- 0,5 11:36 13.06.2004
1021,7 23,1 46 17,7 60 9,8 --- --- --- 0,5 11:51 13.06.2004
1021,7 23,2 47 17,8 59 9,7 --- --- --- 0,5 12:06 13.06.2004
1021,7 23,1 47 17,9 58 9,5 --- --- --- 0,5 12:21 13.06.2004
1021,5 23,1 47 18,2 58 9,8 --- --- --- 0,5 12:36 13.06.2004
1021,6 23,1 47 18,2 57 9,5 --- --- --- 0,5 12:51 13.06.2004
1021,5 23,2 47 18,4 58 10,0 --- --- --- 0,5 13:06 13.06.2004
1021,5 23,3 47 18,6 56 9,6 --- --- --- 0,5 13:21 13.06.2004
1021,3 23,4 48 19,1 56 10,1 --- --- --- 0,5 13:36 13.06.2004
1021,3 23,4 47 19,5 54 9,9 --- --- --- 0,5 13:51 13.06.2004
1021,4 23,6 47 19,7 54 10,1 --- --- --- 0,5 14:06 13.06.2004
1021,2 23,6 47 19,7 51 9,3 --- --- --- 0,5 14:21 13.06.2004
1021,1 23,6 45 20,2 50 9,4 --- --- --- 0,5 14:36 13.06.2004
1021,2 23,7 44 20,8 47 9,1 --- --- --- 0,5 14:51 13.06.2004
1021,2 23,8 43 21,5 47 9,7 --- --- --- 0,5 15:06 13.06.2004
1021,3 23,7 42 21,8 45 9,3 --- --- --- 0,5 15:21 13.06.2004
1021,1 23,6 41 22,4 44 9,5 --- --- --- 0,5 15:36 13.06.2004
1021,0 23,6 40 22,7 43 9,5 --- --- --- 0,5 15:51 13.06.2004
1021,0 23,6 40 22,5 43 9,3 --- --- --- 0,5 16:06 13.06.2004
1021,0 23,7 41 22,3 43 9,1 --- --- --- 0,5 16:21 13.06.2004
1020,8 24,0 40 22,1 43 8,9 --- --- --- 0,5 16:36 13.06.2004
1020,6 24,3 40 21,9 43 8,7 --- --- --- 0,5 16:51 13.06.2004
1020,6 24,3 39 22,1 43 8,9 --- --- --- 0,5 17:06 13.06.2004
1020,7 24,2 38 22,1 43 8,9 --- --- --- 0,5 17:21 13.06.2004
1020,5 24,3 38 22,1 43 8,9 --- --- --- 0,5 17:36 13.06.2004
1020,7 24,3 38 22,2 43 9,0 --- --- --- 0,5 17:51 13.06.2004
1020,6 24,4 39 22,2 43 9,0 --- --- --- 0,5 18:06 13.06.2004
1020,6 24,5 38 22,1 42 8,6 --- --- --- 0,5 18:21 13.06.2004
1020,5 24,6 37 22,2 42 8,7 --- --- --- 0,5 18:36 13.06.2004
1020,6 24,6 37 22,2 43 9,0 --- --- --- 0,5 18:51 13.06.2004
1020,6 24,6 38 22,1 42 8,6 --- --- --- 0,5 19:06 13.06.2004
1020,8 24,7 38 22,1 41 8,2 --- --- --- 0,5 19:21 13.06.2004
1020,7 24,7 38 22,1 41 8,2 --- --- --- 0,5 19:36 13.06.2004
1020,9 24,9 39 21,9 41 8,0 --- --- --- 0,5 19:51 13.06.2004
1021,0 25,0 39 21,8 41 7,9 --- --- --- 0,5 20:06 13.06.2004
1021,1 25,1 39 21,7 41 7,9 --- --- --- 0,5 20:21 13.06.2004
1021,2 25,1 39 21,5 41 7,7 --- --- --- 0,5 20:36 13.06.2004
1021,2 25,0 38 21,4 43 8,3 --- --- --- 0,5 20:51 13.06.2004
1021,2 24,8 37 21,2 43 8,1 --- --- --- 0,5 21:06 13.06.2004
1021,3 24,4 36 20,9 43 7,8 --- --- --- 0,5 21:21 13.06.2004
1021,4 24,2 36 20,7 44 8,0 --- --- --- 0,5 21:36 13.06.2004
1021,4 24,1 36 20,4 45 8,0 --- --- --- 0,5 21:51 13.06.2004
1021,6 23,9 37 20,2 45 7,9 --- --- --- 0,5 22:06 13.06.2004
1021,8 23,8 37 20,0 45 7,7 --- --- --- 0,5 22:21 13.06.2004
1021,9 23,8 38 19,8 45 7,5 --- --- --- 0,5 22:36 13.06.2004
1022,0 23,9 39 19,5 45 7,2 --- --- --- 0,5 22:51 13.06.2004
1022,1 24,1 39 19,2 46 7,3 --- --- --- 0,5 23:06 13.06.2004
1022,3 24,3 39 18,9 46 7,0 --- --- --- 0,5 23:21 13.06.2004
1022,3 24,4 40 18,8 46 6,9 --- --- --- 0,5 23:36 13.06.2004
1022,0 24,5 40 18,7 47 7,1 --- --- --- 0,5 23:51 13.06.2004
1022,3 24,5 41 18,5 47 7,0 --- --- --- 0,5 00:06 14.06.2004
1022,4 24,5 41 18,4 48 7,2 --- --- --- 0,5 00:21 14.06.2004
1022,7 24,6 41 18,1 49 7,2 --- --- --- 0,5 00:36 14.06.2004
1022,8 24,6 41 17,8 49 6,9 --- --- --- 0,5 00:51 14.06.2004
1022,7 24,6 42 17,4 51 7,1 --- --- --- 0,5 01:06 14.06.2004
1022,6 24,6 42 17,1 52 7,1 --- --- --- 0,5 01:21 14.06.2004
1022,5 25,0 41 16,7 53 7,0 --- --- --- 0,5 01:36 14.06.2004
1022,5 25,1 41 16,5 54 7,1 --- --- --- 0,5 01:51 14.06.2004
1022,3 25,2 41 16,2 55 7,1 --- --- --- 0,5 02:06 14.06.2004
1022,2 25,2 41 15,9 56 7,1 --- --- --- 0,5 02:21 14.06.2004
1022,2 25,2 41 15,5 57 7,0 --- --- --- 0,5 02:36 14.06.2004
1022,4 25,1 41 15,4 58 7,1 --- --- --- 0,5 02:51 14.06.2004
1022,4 25,1 41 15,2 59 7,2 --- --- --- 0,5 03:06 14.06.2004
1022,3 25,1 41 14,9 60 7,2 --- --- --- 0,5 03:21 14.06.2004
1022,1 25,1 41 14,5 60 6,8 --- --- --- 0,5 03:36 14.06.2004
1022,0 25,1 41 14,2 62 7,0 --- --- --- 0,5 03:51 14.06.2004
1022,0 25,0 40 14,2 62 7,0 --- --- --- 0,5 04:06 14.06.2004
1022,0 24,9 40 13,8 63 6,8 --- --- --- 0,5 04:21 14.06.2004
1021,9 24,7 40 13,8 63 6,8 --- --- --- 0,5 04:36 14.06.2004
1022,1 24,6 40 13,7 63 6,8 --- --- --- 0,5 04:51 14.06.2004
1021,9 24,6 40 13,5 63 6,6 --- --- --- 0,5 05:06 14.06.2004
1022,0 24,5 40 13,4 64 6,7 --- --- --- 0,5 05:21 14.06.2004
1022,1 24,4 40 13,3 64 6,6 --- --- --- 0,5 05:36 14.06.2004
1022,1 24,3 40 13,1 65 6,6 --- --- --- 0,5 05:51 14.06.2004
1022,0 24,1 40 13,0 65 6,5 --- --- --- 0,5 06:06 14.06.2004
1022,1 24,1 40 12,9 65 6,4 --- --- --- 0,5 06:21 14.06.2004
1022,2 24,1 40 12,8 66 6,6 --- --- --- 0,5 06:36 14.06.2004
1022,2 24,1 40 12,8 66 6,6 --- --- --- 0,5 06:51 14.06.2004
1022,2 24,0 41 12,8 66 6,6 --- --- --- 0,5 07:06 14.06.2004
1022,2 23,8 42 12,9 67 6,9 --- --- --- 0,5 07:21 14.06.2004
1022,1 23,6 42 13,1 67 7,1 --- --- --- 0,5 07:36 14.06.2004
1022,3 23,4 42 13,3 68 7,5 --- --- --- 0,5 07:51 14.06.2004
1022,4 23,3 42 13,5 67 7,5 --- --- --- 0,5 08:06 14.06.2004
1022,4 23,3 43 13,9 68 8,1 --- --- --- 0,5 08:21 14.06.2004
1022,4 23,3 43 14,4 68 8,5 --- --- --- 0,5 08:36 14.06.2004
1022,3 23,2 43 14,7 66 8,4 --- --- --- 0,5 08:51 14.06.2004
1022,3 23,2 43 15,1 65 8,5 --- --- --- 0,5 09:06 14.06.2004
1022,2 23,1 43 15,4 65 8,8 --- --- --- 0,5 09:21 14.06.2004
1022,4 23,2 43 15,7 63 8,6 --- --- --- 0,5 09:36 14.06.2004
1022,5 23,3 43 15,9 62 8,6 --- --- --- 0,5 09:51 14.06.2004
1022,2 23,6 43 16,1 62 8,8 --- --- --- 0,5 10:06 14.06.2004
1022,1 23,5 43 16,4 61 8,8 --- --- --- 0,5 10:21 14.06.2004
1022,0 23,5 42 16,5 59 8,4 --- --- --- 0,5 10:36 14.06.2004
1021,9 23,5 43 16,6 58 8,3 --- --- --- 0,5 10:51 14.06.2004
1021,7 23,4 43 16,9 58 8,6 --- --- --- 0,5 11:06 14.06.2004
1021,5 23,2 44 17,1 57 8,5 --- --- --- 0,5 11:21 14.06.2004
1021,6 23,0 44 17,2 56 8,3 --- --- --- 0,5 11:36 14.06.2004
1021,5 22,9 45 17,6 54 8,2 --- --- --- 0,5 11:51 14.06.2004
1021,3 22,9 45 17,9 53 8,2 --- --- --- 0,5 12:06 14.06.2004
1021,4 22,8 45 18,2 52 8,2 --- --- --- 0,5 12:21 14.06.2004
1021,4 22,7 45 18,5 51 8,1 --- --- --- 0,5 12:36 14.06.2004
1021,3 22,7 45 18,8 51 8,4 --- --- --- 0,5 12:51 14.06.2004
1021,2 22,7 45 19,2 49 8,2 --- --- --- 0,5 13:06 14.06.2004
1021,1 22,6 45 19,6 47 8,0 --- --- --- 0,5 13:21 14.06.2004
1021,0 22,6 45 19,9 46 7,9 --- --- --- 0,5 13:36 14.06.2004
1020,8 22,6 45 20,2 45 7,9 --- --- --- 0,5 13:51 14.06.2004
1020,6 22,6 45 20,5 43 7,5 --- --- --- 0,5 14:06 14.06.2004
1020,4 23,0 45 20,9 41 7,1 --- --- --- 0,5 14:21 14.06.2004
1020,3 23,4 43 21,4 41 7,6 --- --- --- 0,5 14:36 14.06.2004
1019,9 23,8 43 22,2 40 7,9 --- --- --- 0,5 14:51 14.06.2004
1019,8 24,0 42 23,1 39 8,4 --- --- --- 0,5 15:06 14.06.2004
1019,6 24,3 41 24,1 36 8,1 --- --- --- 0,5 15:21 14.06.2004
1019,4 24,4 40 24,6 35 8,1 --- --- --- 0,5 15:36 14.06.2004
1019,3 24,5 39 25,1 33 7,7 --- --- --- 0,5 15:51 14.06.2004
1019,2 24,5 38 24,8 34 7,9 --- --- --- 0,5 16:06 14.06.2004
1019,1 24,7 37 24,5 33 7,2 --- --- --- 0,5 16:21 14.06.2004
1018,9 24,7 37 24,1 34 7,2 --- --- --- 0,5 16:36 14.06.2004
1018,7 24,7 37 23,6 34 6,8 --- --- --- 0,5 16:51 14.06.2004
1018,6 24,8 38 23,5 36 7,5 --- --- --- 0,5 17:06 14.06.2004
1018,5 24,9 38 23,7 36 7,7 --- --- --- 0,5 17:21 14.06.2004
1018,3 25,2 38 24,1 38 8,9 --- --- --- 0,5 17:36 14.06.2004
1018,3 25,3 38 24,1 40 9,6 --- --- --- 0,5 17:51 14.06.2004
1017,9 25,5 40 24,1 42 10,4 --- --- --- 0,5 18:06 14.06.2004
1017,8 25,8 41 24,3 44 11,2 --- --- --- 0,5 18:21 14.06.2004
1017,8 25,7 41 24,2 44 11,2 --- --- --- 0,5 18:36 14.06.2004
1017,7 25,7 41 23,9 44 10,9 --- --- --- 0,5 18:51 14.06.2004
1017,6 25,8 42 23,7 45 11,0 --- --- --- 0,5 19:06 14.06.2004
1017,6 26,0 42 23,8 46 11,5 --- --- --- 0,5 19:21 14.06.2004
1017,6 26,2 42 23,7 46 11,4 --- --- --- 0,5 19:36 14.06.2004
1017,3 26,1 42 23,7 46 11,4 --- --- --- 0,5 19:51 14.06.2004
1017,3 26,2 42 23,6 47 11,6 --- --- --- 0,5 20:06 14.06.2004
1017,4 26,2 43 23,2 48 11,6 --- --- --- 0,5 20:21 14.06.2004
1017,4 26,4 44 23,2 49 11,9 --- --- --- 0,5 20:36 14.06.2004
1017,5 26,4 44 22,9 50 11,9 --- --- --- 0,5 20:51 14.06.2004
1017,4 26,5 44 22,8 50 11,8 --- --- --- 0,5 21:06 14.06.2004
1017,3 26,5 43 22,6 50 11,6 --- --- --- 0,5 21:21 14.06.2004
1017,5 26,5 43 22,5 50 11,5 --- --- --- 0,5 21:36 14.06.2004
1017,4 26,4 43 22,3 51 11,7 --- --- --- 0,5 21:51 14.06.2004
1017,3 25,9 44 22,1 52 11,8 --- --- --- 0,5 22:06 14.06.2004
1017,4 25,4 45 21,8 53 11,8 --- --- --- 0,5 22:21 14.06.2004
1017,3 25,2 45 21,5 54 11,8 --- --- --- 0,5 22:36 14.06.2004
1017,4 25,3 46 21,2 56 12,1 --- --- --- 0,5 22:51 14.06.2004
1017,2 25,6 46 20,9 57 12,0 --- --- --- 0,5 23:06 14.06.2004
1017,5 25,9 47 20,6 58 12,0 --- --- --- 0,5 23:21 14.06.2004
1017,4 26,1 46 20,4 60 12,4 --- --- --- 0,5 23:36 14.06.2004
1017,4 26,2 46 20,1 61 12,3 --- --- --- 0,5 23:51 14.06.2004
1017,4 26,3 46 20,0 62 12,5 --- --- --- 0,5 00:06 15.06.2004
1017,4 26,5 46 19,7 62 12,2 --- --- --- 0,5 00:21 15.06.2004
1017,3 26,6 46 19,6 63 12,3 --- --- --- 0,5 00:36 15.06.2004
1017,1 26,6 46 19,4 64 12,4 --- --- --- 0,5 00:51 15.06.2004
1017,0 26,7 46 19,2 65 12,4 --- --- --- 0,5 01:06 15.06.2004
1017,0 26,8 46 19,1 66 12,6 --- --- --- 0,5 01:21 15.06.2004
1017,0 26,8 46 18,8 66 12,3 --- --- --- 0,5 01:36 15.06.2004
1016,9 26,6 45 18,7 66 12,2 --- --- --- 0,5 01:51 15.06.2004
1016,9 26,4 45 18,4 68 12,4 --- --- --- 0,5 02:06 15.06.2004
1016,8 26,3 45 18,2 68 12,2 --- --- --- 0,5 02:21 15.06.2004
1016,8 26,2 45 18,1 69 12,3 --- --- --- 0,5 02:36 15.06.2004
1016,7 26,1 45 18,0 69 12,2 --- --- --- 0,5 02:51 15.06.2004
1016,6 26,1 45 17,7 69 11,9 --- --- --- 0,5 03:06 15.06.2004
1016,5 26,0 45 17,7 70 12,1 --- --- --- 0,5 03:21 15.06.2004
1016,5 26,0 45 17,7 70 12,1 --- --- --- 0,5 03:36 15.06.2004
1016,3 26,0 45 17,6 70 12,0 --- --- --- 0,5 03:51 15.06.2004
1016,3 26,0 45 17,5 70 11,9 --- --- --- 0,5 04:06 15.06.2004
1016,2 25,7 46 17,4 70 11,8 --- --- --- 0,5 04:21 15.06.2004
1015,9 25,2 46 17,2 70 11,7 --- --- --- 0,5 04:36 15.06.2004
1015,8 24,9 46 16,9 71 11,6 --- --- --- 0,5 04:51 15.06.2004
1015,6 24,7 47 16,8 71 11,5 --- --- --- 0,5 05:06 15.06.2004
1015,6 24,5 47 16,9 71 11,6 --- --- --- 0,5 05:21 15.06.2004
1015,6 24,4 47 16,9 71 11,6 --- --- --- 0,5 05:36 15.06.2004
1015,5 24,3 48 16,7 71 11,4 --- --- --- 0,5 05:51 15.06.2004
1015,4 24,2 48 16,7 71 11,4 --- --- --- 0,5 06:06 15.06.2004
1015,4 24,1 48 16,5 71 11,2 --- --- --- 0,5 06:21 15.06.2004
1015,4 24,0 48 16,6 71 11,3 --- --- --- 0,5 06:36 15.06.2004
1015,4 24,0 49 16,6 71 11,3 --- --- --- 0,5 06:51 15.06.2004
1015,2 23,9 49 16,5 71 11,2 --- --- --- 0,5 07:06 15.06.2004
1015,1 23,8 49 16,8 71 11,5 --- --- --- 0,5 07:21 15.06.2004
1015,1 23,7 49 16,8 72 11,7 --- --- --- 0,5 07:36 15.06.2004
1014,9 23,6 50 17,1 72 12,0 --- --- --- 0,5 07:51 15.06.2004
1015,0 23,6 50 17,3 72 12,2 --- --- --- 0,5 08:06 15.06.2004
1014,9 23,5 51 17,5 73 12,6 --- --- --- 0,5 08:21 15.06.2004
1015,0 23,7 51 17,8 73 12,9 --- --- --- 0,5 08:36 15.06.2004
1014,8 24,0 52 18,3 72 13,1 --- --- --- 0,5 08:51 15.06.2004
1014,7 23,9 52 18,7 71 13,3 --- --- --- 0,5 09:06 15.06.2004
1014,8 23,7 52 18,9 71 13,5 --- --- --- 0,5 09:21 15.06.2004
1014,7 23,6 52 19,2 71 13,8 --- --- --- 0,5 09:36 15.06.2004
1014,7 23,6 53 19,5 70 13,9 --- --- --- 0,5 09:51 15.06.2004
1014,6 23,7 53 19,8 71 14,4 --- --- --- 0,5 10:06 15.06.2004
1014,3 23,7 53 20,1 71 14,7 --- --- --- 0,5 10:21 15.06.2004
1014,3 23,6 53 20,3 70 14,6 --- --- --- 0,5 10:36 15.06.2004
1014,3 23,6 53 20,5 69 14,6 --- --- --- 0,5 10:51 15.06.2004
1014,0 23,5 53 20,7 69 14,8 --- --- --- 0,5 11:06 15.06.2004
1013,8 23,5 53 20,8 68 14,7 --- --- --- 0,5 11:21 15.06.2004
1013,8 23,5 53 21,1 68 14,9 --- --- --- 0,5 11:36 15.06.2004
1013,8 23,5 53 21,2 67 14,8 --- --- --- 0,5 11:51 15.06.2004
1013,5 23,5 53 21,4 66 14,8 --- --- --- 0,5 12:06 15.06.2004
1013,5 23,9 54 21,7 64 14,6 --- --- --- 0,5 12:21 15.06.2004
1013,3 24,2 53 22,1 64 14,9 --- --- --- 0,5 12:36 15.06.2004
1013,1 24,5 52 22,4 62 14,7 --- --- --- 0,5 12:51 15.06.2004
1012,9 24,7 52 22,7 61 14,8 --- --- --- 0,5 13:06 15.06.2004
1012,9 25,0 51 23,1 57 14,1 --- --- --- 0,5 13:21 15.06.2004
1012,8 25,2 51 23,2 57 14,2 --- --- --- 0,5 13:36 15.06.2004
1012,6 25,5 51 23,6 55 14,0 --- --- --- 0,5 13:51 15.06.2004
1012,6 25,8 50 24,1 53 13,9 --- --- --- 0,5 14:06 15.06.2004
1012,2 26,0 49 24,2 52 13,7 --- --- --- 0,5 14:21 15.06.2004
1012,0 26,1 49 24,5 51 13,7 --- --- --- 0,5 14:36 15.06.2004
1012,1 26,2 49 25,4 50 14,2 --- --- --- 0,5 14:51 15.06.2004
1011,8 26,4 48 25,9 49 14,4 --- --- --- 0,5 15:06 15.06.2004
1011,6 26,5 48 26,2 48 14,3 --- --- --- 0,5 15:21 15.06.2004
1011,4 26,6 49 26,4 46 13,8 --- --- --- 0,5 15:36 15.06.2004
1011,2 26,7 48 26,8 45 13,9 --- --- --- 0,5 15:51 15.06.2004
1011,1 26,9 48 27,0 44 13,7 --- --- --- 0,5 16:06 15.06.2004
1011,0 27,1 47 27,0 43 13,3 --- --- --- 0,5 16:21 15.06.2004
1010,9 27,2 46 27,0 43 13,3 --- --- --- 0,5 16:36 15.06.2004
1010,7 27,3 47 26,9 44 13,6 --- --- --- 0,5 16:51 15.06.2004
1010,5 27,5 47 27,0 43 13,3 --- --- --- 0,5 17:06 15.06.2004
1010,6 27,9 47 26,8 43 13,2 --- --- --- 0,5 17:21 15.06.2004
1010,6 28,1 46 26,7 43 13,1 --- --- --- 0,5 17:36 15.06.2004
1010,5 28,2 46 26,8 42 12,8 --- --- --- 0,5 17:51 15.06.2004
1010,5 28,3 45 26,8 41 12,4 --- --- --- 0,5 18:06 15.06.2004
1010,5 28,4 45 27,0 42 13,0 --- --- --- 0,5 18:21 15.06.2004
1010,2 28,5 44 26,9 41 12,5 --- --- --- 0,5 18:36 15.06.2004
1010,2 28,6 44 26,7 42 12,7 --- --- --- 0,5 18:51 15.06.2004
1010,3 28,7 44 26,7 42 12,7 --- --- --- 0,5 19:06 15.06.2004
1010,3 28,7 43 26,5 43 12,9 --- --- --- 0,5 19:21 15.06.2004
1010,2 28,8 43 26,4 43 12,8 --- --- --- 0,5 19:36 15.06.2004
1010,2 28,8 43 26,3 43 12,7 --- --- --- 0,5 19:51 15.06.2004
1010,4 28,9 42 26,1 43 12,5 --- --- --- 0,5 20:06 15.06.2004
1010,4 28,8 42 26,0 43 12,4 --- --- --- 0,5 20:21 15.06.2004
1010,4 28,8 42 25,8 42 11,9 --- --- --- 0,5 20:36 15.06.2004
1010,5 28,7 41 25,6 42 11,7 --- --- --- 0,5 20:51 15.06.2004
1010,5 28,6 41 25,5 43 12,0 --- --- --- 0,5 21:06 15.06.2004
1010,5 28,7 41 25,3 44 12,2 --- --- --- 0,5 21:21 15.06.2004
1010,6 28,5 40 25,1 45 12,3 --- --- --- 0,5 21:36 15.06.2004
1010,6 28,6 40 24,7 45 12,0 --- --- --- 0,5 21:51 15.06.2004
1010,9 28,6 40 24,3 47 12,2 --- --- --- 0,5 22:06 15.06.2004
1011,2 28,4 41 23,8 49 12,4 --- --- --- 0,5 22:21 15.06.2004
1011,0 28,1 41 23,5 50 12,5 --- --- --- 0,5 22:36 15.06.2004
1011,3 27,8 43 23,1 52 12,7 --- --- --- 0,5 22:51 15.06.2004
1011,4 27,8 43 22,9 53 12,8 --- --- --- 0,5 23:06 15.06.2004
1011,4 27,8 44 22,6 54 12,8 --- --- --- 0,5 23:21 15.06.2004
1011,2 27,8 44 22,3 56 13,1 --- --- --- 0,5 23:36 15.06.2004
1011,4 27,8 44 22,1 57 13,2 --- --- --- 0,5 23:51 15.06.2004
1011,4 28,0 44 21,9 58 13,2 --- --- --- 0,5 00:06 16.06.2004
1011,3 28,1 44 21,8 59 13,4 --- --- --- 0,5 00:21 16.06.2004
1011,4 28,3 44 21,7 59 13,3 --- --- --- 0,5 00:36 16.06.2004
1011,4 28,2 44 21,8 60 13,7 --- --- --- 0,5 00:51 16.06.2004
1011,5 28,3 44 21,9 59 13,5 --- --- --- 0,5 01:06 16.06.2004
1011,5 28,3 44 22,0 58 13,3 --- --- --- 0,5 01:21 16.06.2004
1011,5 28,4 44 22,1 58 13,4 --- --- --- 0,5 01:36 16.06.2004
1011,5 28,5 43 22,2 56 13,0 --- --- --- 0,5 01:51 16.06.2004
1011,6 28,4 44 22,1 56 12,9 --- --- --- 0,5 02:06 16.06.2004
1011,4 28,3 44 22,2 55 12,7 --- --- --- 0,5 02:21 16.06.2004
1011,5 27,8 45 22,0 55 12,5 --- --- --- 0,5 02:36 16.06.2004
1011,5 27,4 45 21,7 55 12,2 --- --- --- 0,5 02:51 16.06.2004
1011,5 27,3 45 21,7 56 12,5 --- --- --- 0,5 03:06 16.06.2004
1011,5 27,0 46 21,5 57 12,6 --- --- --- 0,5 03:21 16.06.2004
1011,3 26,9 47 21,5 58 12,9 --- --- --- 0,5 03:36 16.06.2004
1011,3 26,8 47 21,4 59 13,0 --- --- --- 0,5 03:51 16.06.2004
1011,2 26,7 47 21,2 60 13,1 --- --- --- 0,5 04:06 16.06.2004
1011,4 26,5 47 21,1 61 13,3 --- --- --- 0,5 04:21 16.06.2004
1011,6 26,5 49 21,0 61 13,2 --- --- --- 0,5 04:36 16.06.2004
1011,4 26,4 49 20,8 62 13,2 --- --- --- 0,5 04:51 16.06.2004
1011,7 26,3 49 20,6 62 13,0 --- --- --- 0,5 05:06 16.06.2004
1011,6 26,2 49 20,4 64 13,3 --- --- --- 0,5 05:21 16.06.2004
1011,6 26,2 48 20,3 63 13,0 --- --- --- 0,5 05:36 16.06.2004
1011,7 26,1 49 20,2 63 12,9 --- --- --- 0,5 05:51 16.06.2004
1011,7 26,1 48 20,1 63 12,8 --- --- --- 0,5 06:06 16.06.2004
1011,7 26,0 48 19,7 63 12,4 --- --- --- 0,5 06:21 16.06.2004
1011,7 26,0 48 19,4 64 12,4 --- --- --- 0,5 06:36 16.06.2004
1011,9 25,9 49 19,2 65 12,4 --- --- --- 0,5 06:51 16.06.2004
1011,9 25,8 49 19,2 65 12,4 --- --- --- 0,5 07:06 16.06.2004
1012,0 25,7 49 19,1 66 12,6 --- --- --- 0,5 07:21 16.06.2004
1012,1 25,7 49 19,1 66 12,6 --- --- --- 0,5 07:36 16.06.2004
1012,3 25,6 49 19,2 66 12,7 --- --- --- 0,5 07:51 16.06.2004
1012,5 25,6 49 19,5 63 12,2 --- --- --- 0,5 08:06 16.06.2004
1012,4 25,6 49 19,7 63 12,4 --- --- --- 0,5 08:21 16.06.2004
1012,4 25,6 49 19,9 62 12,4 --- --- --- 0,5 08:36 16.06.2004
1012,6 25,9 50 20,0 62 12,5 --- --- --- 0,5 08:51 16.06.2004
1012,9 26,2 48 20,1 61 12,3 --- --- --- 0,5 09:06 16.06.2004
1012,7 26,4 48 20,2 61 12,4 --- --- --- 0,5 09:21 16.06.2004
1012,8 26,6 48 20,4 61 12,6 --- --- --- 0,5 09:36 16.06.2004
1012,9 26,9 48 20,5 60 12,4 --- --- --- 0,5 09:51 16.06.2004
1012,7 27,2 47 20,6 59 12,3 --- --- --- 0,5 10:06 16.06.2004
1013,0 27,1 46 20,8 60 12,7 --- --- --- 0,5 10:21 16.06.2004
1012,7 27,3 45 20,9 59 12,6 --- --- --- 0,5 10:36 16.06.2004
1012,7 27,6 47 21,1 58 12,5 --- --- --- 0,5 10:51 16.06.2004
1012,8 27,7 47 21,1 58 12,5 --- --- --- 0,5 11:06 16.06.2004
1012,6 27,5 44 21,3 58 12,7 --- --- --- 0,5 11:21 16.06.2004
1012,7 27,1 43 21,4 57 12,5 --- --- --- 0,5 11:36 16.06.2004
1012,7 26,8 43 21,4 56 12,2 --- --- --- 0,5 11:51 16.06.2004
1012,8 26,7 43 21,7 55 12,2 --- --- --- 0,5 12:06 16.06.2004
1012,8 26,6 42 21,9 54 12,2 --- --- --- 0,5 12:21 16.06.2004
1012,8 26,5 41 22,1 53 12,1 --- --- --- 0,5 12:36 16.06.2004
1012,8 26,7 41 22,1 53 12,1 --- --- --- 0,5 12:51 16.06.2004
1012,7 26,7 41 22,2 53 12,1 --- --- --- 0,5 13:06 16.06.2004
1012,7 26,8 41 22,2 53 12,1 --- --- --- 0,5 13:21 16.06.2004
1012,7 26,7 42 22,3 52 11,9 --- --- --- 0,5 13:36 16.06.2004
1012,4 26,8 41 22,4 51 11,7 --- --- --- 0,5 13:51 16.06.2004
1012,0 26,8 40 22,5 49 11,2 --- --- --- 0,5 14:06 16.06.2004
1012,0 26,7 40 22,7 49 11,4 --- --- --- 0,5 14:21 16.06.2004
1011,9 26,7 40 22,8 49 11,5 --- --- --- 0,5 14:36 16.06.2004
1011,7 26,9 40 23,2 50 12,2 --- --- --- 0,5 14:51 16.06.2004
1011,8 27,1 40 23,5 47 11,5 --- --- --- 0,5 15:06 16.06.2004
1011,8 27,4 40 23,8 46 11,5 --- --- --- 0,5 15:21 16.06.2004
1011,7 27,6 41 23,7 47 11,7 --- --- --- 0,5 15:36 16.06.2004
1011,5 27,6 41 23,6 46 11,3 --- --- --- 0,5 15:51 16.06.2004
1011,4 27,7 41 23,7 47 11,7 --- --- --- 0,5 16:06 16.06.2004
1011,3 27,9 41 24,1 46 11,7 --- --- --- 0,5 16:21 16.06.2004
1011,1 28,0 40 24,3 46 11,9 --- --- --- 0,5 16:36 16.06.2004
1011,1 28,2 40 24,7 43 11,3 --- --- --- 0,5 16:51 16.06.2004
1011,1 28,3 40 24,7 44 11,6 --- --- --- 0,5 17:06 16.06.2004
1011,1 28,4 39 24,7 43 11,3 --- --- --- 0,5 17:21 16.06.2004
1010,9 28,4 39 24,6 44 11,5 --- --- --- 0,5 17:36 16.06.2004
1010,7 27,7 39 24,4 44 11,3 --- --- --- 0,5 17:51 16.06.2004
1010,6 27,4 39 24,3 46 11,9 --- --- --- 0,5 18:06 16.06.2004
1010,4 27,3 39 24,3 45 11,6 --- --- --- 0,5 18:21 16.06.2004
1010,5 27,1 39 24,2 45 11,5 --- --- --- 0,5 18:36 16.06.2004
1010,5 27,0 39 24,2 46 11,8 --- --- --- 0,5 18:51 16.06.2004
1010,4 26,8 41 24,2 46 11,8 --- --- --- 0,5 19:06 16.06.2004
1010,5 27,1 40 24,1 46 11,7 --- --- --- 0,5 19:21 16.06.2004
1010,1 27,4 41 24,1 47 12,1 --- --- --- 0,5 19:36 16.06.2004
1010,1 27,8 41 24,2 47 12,2 --- --- --- 0,5 19:51 16.06.2004
1010,0 27,8 41 24,2 47 12,2 --- --- --- 0,5 20:06 16.06.2004
1010,0 28,0 40 24,1 47 12,1 --- --- --- 0,5 20:21 16.06.2004
1010,0 27,8 41 24,1 47 12,1 --- --- --- 0,5 20:36 16.06.2004
1010,0 27,8 42 23,7 48 12,0 --- --- --- 0,5 20:51 16.06.2004
1010,0 27,8 42 23,5 49 12,2 --- --- --- 0,5 21:06 16.06.2004
1009,9 27,7 43 23,2 52 12,8 --- --- --- 0,5 21:21 16.06.2004
1009,9 27,8 43 22,8 53 12,7 --- --- --- 0,5 21:36 16.06.2004
1010,0 27,8 42 22,5 53 12,4 --- --- --- 0,5 21:51 16.06.2004
1010,0 27,7 42 22,2 55 12,7 --- --- --- 0,5 22:06 16.06.2004
1010,1 27,5 42 21,9 55 12,4 --- --- --- 0,5 22:21 16.06.2004
1010,4 27,4 42 21,6 57 12,7 --- --- --- 0,5 22:36 16.06.2004
1010,4 27,6 43 21,4 58 12,8 --- --- --- 0,5 22:51 16.06.2004
1010,4 27,8 43 21,1 58 12,5 --- --- --- 0,5 23:06 16.06.2004
1010,4 27,8 43 20,9 59 12,6 --- --- --- 0,5 23:21 16.06.2004
1010,5 27,9 44 20,6 59 12,3 --- --- --- 0,5 23:36 16.06.2004
1010,6 28,1 42 20,4 59 12,1 --- --- --- 0,5 23:51 16.06.2004
1010,5 28,2 42 20,2 59 11,9 --- --- --- 0,5 00:06 17.06.2004
1010,7 28,3 42 20,0 59 11,7 --- --- --- 0,5 00:21 17.06.2004
1010,6 28,3 42 19,8 59 11,5 --- --- --- 0,5 00:36 17.06.2004
1010,4 28,4 42 19,4 59 11,2 --- --- --- 0,5 00:51 17.06.2004
1010,4 28,4 42 19,2 60 11,2 --- --- --- 0,5 01:06 17.06.2004
1010,1 28,5 42 19,0 60 11,0 --- --- --- 0,5 01:21 17.06.2004
1010,1 28,5 41 18,7 60 10,8 --- --- --- 0,5 01:36 17.06.2004
1010,1 28,5 41 18,5 60 10,6 --- --- --- 0,5 01:51 17.06.2004
1009,8 28,5 41 18,2 62 10,8 --- --- --- 0,5 02:06 17.06.2004
1009,6 28,5 41 18,0 62 10,6 --- --- --- 0,5 02:21 17.06.2004
1009,7 28,3 41 17,7 62 10,3 --- --- --- 0,5 02:36 17.06.2004
1009,5 27,5 42 17,7 63 10,5 --- --- --- 0,5 02:51 17.06.2004
1009,5 27,2 43 17,5 63 10,4 --- --- --- 0,5 03:06 17.06.2004
1009,2 26,8 44 17,2 63 10,1 --- --- --- 0,5 03:21 17.06.2004
1009,1 26,6 44 17,1 63 10,0 --- --- --- 0,5 03:36 17.06.2004
1009,2 26,4 44 16,9 64 10,0 --- --- --- 0,5 03:51 17.06.2004
1009,0 26,3 44 16,8 64 9,9 --- --- --- 0,5 04:06 17.06.2004
1008,8 26,1 44 16,7 64 9,8 --- --- --- 0,5 04:21 17.06.2004
1008,5 26,0 45 16,6 64 9,7 --- --- --- 0,5 04:36 17.06.2004
1008,4 25,8 46 16,4 65 9,8 --- --- --- 0,5 04:51 17.06.2004
1008,3 25,7 46 16,3 66 9,9 --- --- --- 0,5 05:06 17.06.2004
1008,2 25,6 46 16,2 66 9,8 --- --- --- 0,5 05:21 17.06.2004
1008,0 25,5 46 16,1 66 9,7 --- --- --- 0,5 05:36 17.06.2004
1007,9 25,4 46 16,1 66 9,7 --- --- --- 0,5 05:51 17.06.2004
1007,8 25,3 46 15,9 67 9,8 --- --- --- 0,5 06:06 17.06.2004
1007,8 25,3 46 16,1 67 9,9 --- --- --- 0,5 06:21 17.06.2004
1007,8 25,2 47 15,9 68 10,0 --- --- --- 0,5 06:36 17.06.2004
1007,7 25,2 47 15,9 68 10,0 --- --- --- 0,5 06:51 17.06.2004
1007,7 25,2 47 15,9 69 10,2 --- --- --- 0,5 07:06 17.06.2004
1007,6 25,0 47 16,1 69 10,4 --- --- --- 0,5 07:21 17.06.2004
1007,4 24,9 47 16,4 69 10,7 --- --- --- 0,5 07:36 17.06.2004
1007,5 24,8 48 16,5 69 10,8 --- --- --- 0,5 07:51 17.06.2004
1007,4 25,0 47 17,1 69 11,3 --- --- --- 0,5 08:06 17.06.2004
1007,5 25,2 47 17,5 68 11,5 --- --- --- 0,5 08:21 17.06.2004
1007,5 25,1 45 17,9 68 11,9 --- --- --- 0,5 08:36 17.06.2004
1007,4 24,8 46 18,2 68 12,2 --- --- --- 0,5 08:51 17.06.2004
1007,3 24,6 46 18,4 68 12,4 --- --- --- 0,5 09:06 17.06.2004
1007,2 24,5 46 18,7 66 12,2 --- --- --- 0,5 09:21 17.06.2004
1007,2 24,4 46 19,1 66 12,6 --- --- --- 0,5 09:36 17.06.2004
1006,9 24,4 46 19,4 66 12,9 --- --- --- 0,5 09:51 17.06.2004
1006,9 24,5 46 19,5 63 12,2 --- --- --- 0,5 10:06 17.06.2004
1006,8 24,4 44 19,8 60 11,8 --- --- --- 0,5 10:21 17.06.2004
1006,7 24,5 43 20,1 58 11,6 --- --- --- 0,5 10:36 17.06.2004
1006,6 24,5 42 20,3 57 11,5 --- --- --- 0,5 10:51 17.06.2004
1006,5 24,4 42 20,5 55 11,1 --- --- --- 0,5 11:06 17.06.2004
1006,6 24,2 41 20,7 54 11,0 --- --- --- 0,5 11:21 17.06.2004
1006,5 24,3 42 20,9 54 11,2 --- --- --- 0,5 11:36 17.06.2004
1006,5 24,3 42 21,1 54 11,4 --- --- --- 0,5 11:51 17.06.2004
1006,6 24,3 42 21,1 54 11,4 --- --- --- 0,5 12:06 17.06.2004
1006,4 24,4 43 21,3 53 11,3 --- --- --- 0,5 12:21 17.06.2004
1006,2 24,4 43 21,4 53 11,4 --- --- --- 0,5 12:36 17.06.2004
1006,2 24,4 42 21,6 52 11,3 --- --- --- 0,5 12:51 17.06.2004
1006,3 24,8 43 21,7 51 11,1 --- --- --- 0,5 13:06 17.06.2004
1006,2 25,1 43 21,8 51 11,2 --- --- --- 0,5 13:21 17.06.2004
1006,2 25,2 43 22,1 51 11,5 --- --- --- 0,5 13:36 17.06.2004
1006,2 24,9 43 22,4 51 11,7 --- --- --- 0,5 13:51 17.06.2004
1006,1 24,7 44 22,5 51 11,8 --- --- --- 0,5 14:06 17.06.2004
1005,8 24,6 44 22,5 50 11,5 --- --- --- 0,5 14:21 17.06.2004
1005,8 24,6 44 23,0 50 12,0 --- --- --- 0,5 14:36 17.06.2004
1005,6 24,6 45 23,6 47 11,6 --- --- --- 0,5 14:51 17.06.2004
1005,5 25,1 45 24,8 45 12,0 --- --- --- 0,5 15:06 17.06.2004
1005,3 25,4 45 25,8 42 11,9 --- --- --- 0,5 15:21 17.06.2004
1005,1 25,7 44 26,5 39 11,4 --- --- --- 0,5 15:36 17.06.2004
1004,9 26,0 43 26,8 38 11,3 --- --- --- 0,5 15:51 17.06.2004
1004,7 26,1 42 26,7 38 11,2 --- --- --- 0,5 16:06 17.06.2004
1004,8 26,4 42 26,7 38 11,2 --- --- --- 0,5 16:21 17.06.2004
1004,2 26,4 42 26,6 38 11,1 --- --- --- 0,5 16:36 17.06.2004
1003,9 26,4 42 26,4 38 10,9 --- --- --- 0,5 16:51 17.06.2004
1004,0 26,6 41 26,2 38 10,7 --- --- --- 0,5 17:06 17.06.2004
1003,8 26,9 41 26,2 38 10,7 --- --- --- 0,5 17:21 17.06.2004
1003,5 27,0 39 26,2 37 10,3 --- --- --- 0,5 17:36 17.06.2004
1003,5 27,2 39 26,1 37 10,3 --- --- --- 0,5 17:51 17.06.2004
1003,3 27,4 38 26,1 36 9,8 --- --- --- 0,5 18:06 17.06.2004
1003,5 27,7 37 26,0 36 9,8 --- --- --- 0,5 18:21 17.06.2004
1003,3 28,0 37 26,0 37 10,2 --- --- --- 0,5 18:36 17.06.2004
1003,3 28,2 37 25,8 38 10,4 --- --- --- 0,5 18:51 17.06.2004
1003,3 28,1 38 25,6 40 11,0 --- --- --- 0,5 19:06 17.06.2004
1003,4 28,0 38 25,4 42 11,5 --- --- --- 0,5 19:21 17.06.2004
1003,6 28,0 38 25,1 43 11,6 --- --- --- 0,5 19:36 17.06.2004
1003,8 28,0 39 24,8 44 11,7 --- --- --- 0,5 19:51 17.06.2004
1003,9 27,9 40 24,6 45 11,9 --- --- --- 0,5 20:06 17.06.2004
1003,9 27,7 40 24,3 46 11,9 --- --- --- 0,5 20:21 17.06.2004
1003,9 27,4 39 24,1 46 11,7 --- --- --- 0,5 20:36 17.06.2004
1004,0 27,2 39 23,7 46 11,4 --- --- --- 0,5 20:51 17.06.2004
1004,2 26,7 39 23,5 46 11,2 --- --- --- 0,5 21:06 17.06.2004
1004,2 26,4 40 23,1 48 11,5 --- --- --- 0,5 21:21 17.06.2004
1004,5 26,4 40 22,7 49 11,4 --- --- --- 0,5 21:36 17.06.2004
1004,5 26,2 40 22,3 49 11,0 --- --- --- 0,5 21:51 17.06.2004
1004,3 25,9 40 21,9 50 11,0 --- --- --- 0,5 22:06 17.06.2004
1004,4 25,4 40 21,7 50 10,8 --- --- --- 0,5 22:21 17.06.2004
1004,5 25,5 43 21,5 50 10,6 --- --- --- 0,5 22:36 17.06.2004
1004,3 26,0 44 21,4 50 10,5 --- --- --- 0,5 22:51 17.06.2004
1004,4 26,5 44 21,2 49 10,0 --- --- --- 0,5 23:06 17.06.2004
1004,5 26,7 45 21,0 49 9,9 --- --- --- 0,5 23:21 17.06.2004
1004,2 26,9 45 20,8 49 9,7 --- --- --- 0,5 23:36 17.06.2004
1004,2 26,9 45 20,6 49 9,5 --- --- --- 0,5 23:51 17.06.2004
1004,0 26,9 45 20,5 49 9,4 --- --- --- 0,5 00:06 18.06.2004
1004,0 27,0 44 20,2 50 9,4 --- --- --- 0,5 00:21 18.06.2004
1004,1 27,1 44 20,1 50 9,3 --- --- --- 0,5 00:36 18.06.2004
1004,0 27,2 43 19,9 50 9,1 --- --- --- 0,5 00:51 18.06.2004
1003,9 27,1 43 19,6 50 8,9 --- --- --- 0,5 01:06 18.06.2004
1003,8 27,1 43 19,5 51 9,1 --- --- --- 0,5 01:21 18.06.2004
1004,0 26,6 45 19,2 53 9,4 --- --- --- 0,5 01:36 18.06.2004
1003,8 26,1 45 19,1 54 9,5 --- --- --- 0,5 01:51 18.06.2004
1003,9 25,9 46 18,8 54 9,3 --- --- --- 0,5 02:06 18.06.2004
1003,7 25,6 46 18,7 54 9,2 --- --- --- 0,5 02:21 18.06.2004
1003,6 25,5 46 18,4 56 9,4 --- --- --- 0,5 02:36 18.06.2004
1003,5 25,4 46 18,3 56 9,3 --- --- --- 0,5 02:51 18.06.2004
1003,3 25,3 46 18,1 57 9,4 --- --- --- 0,5 03:06 18.06.2004
1003,4 25,1 46 18,0 57 9,3 --- --- --- 0,5 03:21 18.06.2004
1003,4 25,1 46 17,8 57 9,1 --- --- --- 0,5 03:36 18.06.2004
1003,3 25,0 47 17,7 58 9,3 --- --- --- 0,5 03:51 18.06.2004
1003,2 25,0 47 17,5 58 9,1 --- --- --- 0,5 04:06 18.06.2004
1002,9 24,9 47 17,3 58 8,9 --- --- --- 0,5 04:21 18.06.2004
1002,9 24,8 47 17,1 59 9,0 --- --- --- 0,5 04:36 18.06.2004
1002,6 24,7 46 16,7 59 8,6 --- --- --- 0,5 04:51 18.06.2004
1002,7 24,7 47 16,4 60 8,6 --- --- --- 0,5 05:06 18.06.2004
1002,8 24,6 46 16,2 62 8,9 --- --- --- 0,5 05:21 18.06.2004
1002,8 24,5 47 16,2 63 9,1 --- --- --- 0,5 05:36 18.06.2004
1002,7 24,4 47 16,1 63 9,0 --- --- --- 0,5 05:51 18.06.2004
1002,8 24,4 47 15,9 64 9,1 --- --- --- 0,5 06:06 18.06.2004
1002,8 24,4 47 15,9 64 9,1 --- --- --- 0,5 06:21 18.06.2004
1002,7 24,3 47 15,9 65 9,3 --- --- --- 0,5 06:36 18.06.2004
1002,8 24,3 47 16,0 65 9,4 --- --- --- 0,5 06:51 18.06.2004
1002,7 24,7 47 16,0 65 9,4 --- --- --- 0,5 07:06 18.06.2004
1002,6 24,9 47 16,2 65 9,6 --- --- --- 0,5 07:21 18.06.2004
1002,6 24,6 46 16,2 65 9,6 --- --- --- 0,5 07:36 18.06.2004
1002,6 24,3 46 16,1 65 9,5 --- --- --- 0,5 07:51 18.06.2004
1002,4 24,0 45 16,3 66 9,9 --- --- --- 0,5 08:06 18.06.2004
1002,6 23,9 46 16,5 65 9,9 --- --- --- 0,5 08:21 18.06.2004
1002,7 23,6 46 16,7 64 9,8 --- --- --- 0,5 08:36 18.06.2004
1002,6 23,5 46 16,7 64 9,8 --- --- --- 0,5 08:51 18.06.2004
1002,7 23,3 45 16,8 64 9,9 --- --- --- 0,5 09:06 18.06.2004
1002,8 23,1 45 17,1 64 10,2 --- --- --- 0,5 09:21 18.06.2004
1002,7 23,0 45 17,2 64 10,3 --- --- --- 0,5 09:36 18.06.2004
1002,6 23,0 45 17,3 64 10,4 --- --- --- 0,5 09:51 18.06.2004
1002,6 22,9 46 17,4 63 10,3 --- --- --- 0,5 10:06 18.06.2004
1002,4 22,8 46 17,7 63 10,5 --- --- --- 0,5 10:21 18.06.2004
1002,3 22,7 46 17,7 62 10,3 --- --- --- 0,5 10:36 18.06.2004
1002,3 22,7 46 17,9 62 10,5 --- --- --- 0,5 10:51 18.06.2004
1002,3 22,8 46 18,1 61 10,4 --- --- --- 0,5 11:06 18.06.2004
1002,2 22,8 47 18,1 60 10,2 --- --- --- 0,5 11:21 18.06.2004
1002,1 22,8 47 18,4 59 10,2 --- --- --- 0,5 11:36 18.06.2004
1002,1 22,8 47 18,4 58 10,0 --- --- --- 0,5 11:51 18.06.2004
1002,0 22,8 47 18,4 58 10,0 --- --- --- 0,5 12:06 18.06.2004
1002,1 22,8 47 18,4 58 10,0 --- --- --- 0,5 12:21 18.06.2004
1001,9 22,9 47 18,5 57 9,8 --- --- --- 0,5 12:36 18.06.2004
1001,9 22,9 47 18,5 57 9,8 --- --- --- 0,5 12:51 18.06.2004
1001,8 22,9 48 18,6 57 9,9 --- --- --- 0,5 13:06 18.06.2004
1001,6 23,0 47 19,1 56 10,1 --- --- --- 0,5 13:21 18.06.2004
1001,5 23,0 47 19,2 56 10,2 --- --- --- 0,5 13:36 18.06.2004
1001,3 23,1 47 19,5 54 9,9 --- --- --- 0,5 13:51 18.06.2004
1001,2 23,1 47 19,7 53 9,8 --- --- --- 0,5 14:06 18.06.2004
1001,2 23,1 47 19,6 53 9,7 --- --- --- 0,5 14:21 18.06.2004
1001,1 23,1 47 19,6 53 9,7 --- --- --- 0,5 14:36 18.06.2004
1001,0 23,1 47 19,5 53 9,6 --- --- --- 0,5 14:51 18.06.2004
1001,0 23,1 47 19,5 52 9,4 --- --- --- 0,5 15:06 18.06.2004
1001,0 23,1 47 19,6 52 9,5 --- --- --- 0,5 15:21 18.06.2004
1000,8 23,1 47 19,7 52 9,5 --- --- --- 0,5 15:36 18.06.2004
1000,7 23,1 46 19,8 52 9,6 --- --- --- 0,5 15:51 18.06.2004
1000,7 23,1 46 19,8 52 9,6 --- --- --- 0,5 16:06 18.06.2004
1000,6 23,1 46 19,7 51 9,3 --- --- --- 0,5 16:21 18.06.2004
1000,7 23,1 46 20,0 51 9,5 --- --- --- 0,5 16:36 18.06.2004
1000,7 23,1 46 20,0 51 9,5 --- --- --- 0,5 16:51 18.06.2004
1000,5 23,1 46 19,9 51 9,4 --- --- --- 0,5 17:06 18.06.2004
1000,5 23,1 46 19,9 51 9,4 --- --- --- 0,5 17:21 18.06.2004
1000,3 23,1 46 19,9 52 9,7 --- --- --- 0,5 17:36 18.06.2004
1000,4 23,0 46 19,7 52 9,5 --- --- --- 0,5 17:51 18.06.2004
1000,3 23,0 46 19,5 53 9,6 --- --- --- 0,5 18:06 18.06.2004
1000,4 23,0 46 19,4 53 9,5 --- --- --- 0,5 18:21 18.06.2004
1000,3 23,0 47 19,3 55 10,0 --- --- --- 0,5 18:36 18.06.2004
1000,3 23,1 47 19,2 55 9,9 --- --- --- 0,5 18:51 18.06.2004
1000,3 23,1 47 19,2 55 9,9 --- --- --- 0,5 19:06 18.06.2004
1000,2 23,1 47 19,1 55 9,8 --- --- --- 0,5 19:21 18.06.2004
1000,3 23,2 47 19,1 55 9,8 --- --- --- 0,5 19:36 18.06.2004
1000,2 23,2 47 18,9 55 9,6 --- --- --- 0,5 19:51 18.06.2004
1000,2 23,1 47 18,7 55 9,5 --- --- --- 0,5 20:06 18.06.2004
1000,2 23,1 48 18,7 55 9,5 --- --- --- 0,5 20:21 18.06.2004
1000,1 23,1 48 18,7 54 9,2 --- --- --- 0,5 20:36 18.06.2004
1000,1 23,1 48 18,5 54 9,0 --- --- --- 0,5 20:51 18.06.2004
1000,1 23,2 48 18,4 55 9,2 --- --- --- 0,5 21:06 18.06.2004
1000,0 23,2 48 18,2 55 9,0 --- --- --- 0,5 21:21 18.06.2004
1000,1 23,1 48 18,1 55 8,9 --- --- --- 0,5 21:36 18.06.2004
1000,1 23,1 48 17,9 54 8,4 --- --- --- 0,5 21:51 18.06.2004
1000,1 23,1 48 17,8 54 8,3 --- --- --- 0,5 22:06 18.06.2004
1000,4 23,1 47 17,7 54 8,2 --- --- --- 0,5 22:21 18.06.2004
1000,4 23,0 47 17,6 54 8,2 --- --- --- 0,5 22:36 18.06.2004
1000,3 22,9 47 17,4 54 8,0 --- --- --- 0,5 22:51 18.06.2004
1000,4 22,9 48 17,3 54 7,9 --- --- --- 0,5 23:06 18.06.2004
1000,6 22,8 48 17,3 55 8,1 --- --- --- 0,5 23:21 18.06.2004
1000,5 22,8 48 17,2 55 8,1 --- --- --- 0,5 23:36 18.06.2004
1000,4 22,8 48 16,9 55 7,8 --- --- --- 0,5 23:51 18.06.2004
1000,5 22,7 48 16,7 56 7,9 --- --- --- 0,5 00:06 19.06.2004
1000,3 22,7 48 16,7 55 7,6 --- --- --- 0,5 00:21 19.06.2004
1000,3 22,7 48 16,5 55 7,4 --- --- --- 0,5 00:36 19.06.2004
1000,3 22,7 48 16,5 56 7,7 --- --- --- 0,5 00:51 19.06.2004
1000,2 23,1 47 19,1 55 9,8 --- --- --- 0,5 19:21 18.04.2004
1000,3 23,2 47 19,1 55 9,8 --- --- --- 0,5 19:36 18.04.2004
1000,2 23,2 47 18,9 55 9,6 --- --- --- 0,5 19:51 18.04.2004
1000,2 23,1 47 18,7 55 9,5 --- --- --- 0,5 20:06 18.04.2004
1000,2 23,1 48 18,7 55 9,5 --- --- --- 0,5 20:21 18.04.2004
1000,1 23,1 48 18,7 54 9,2 --- --- --- 0,5 20:36 18.04.2004
1000,1 23,1 48 18,5 54 9,0 --- --- --- 0,5 20:51 18.04.2004
1000,1 23,2 48 18,4 55 9,2 --- --- --- 0,5 21:06 18.04.2004
1000,0 23,2 48 18,2 55 9,0 --- --- --- 0,5 21:21 18.04.2004
1000,1 23,1 48 18,1 55 8,9 --- --- --- 0,5 21:36 18.04.2004
1000,1 23,1 48 17,9 54 8,4 --- --- --- 0,5 21:51 18.04.2004
1000,1 23,1 48 17,8 54 8,3 --- --- --- 0,5 22:06 18.04.2004
1000,4 23,1 47 17,7 54 8,2 --- --- --- 0,5 22:21 18.04.2004
1000,4 23,0 47 17,6 54 8,2 --- --- --- 0,5 22:36 18.04.2004
1000,3 22,9 47 17,4 54 8,0 --- --- --- 0,5 22:51 18.04.2004
1000,4 22,9 48 17,3 54 7,9 --- --- --- 0,5 23:06 18.04.2004
1000,6 22,8 48 17,3 55 8,1 --- --- --- 0,5 23:21 18.04.2004
1000,5 22,8 48 17,2 55 8,1 --- --- --- 0,5 23:36 18.04.2004
1000,4 22,8 48 16,9 55 7,8 --- --- --- 0,5 23:51 18.04.2004
1000,5 22,7 48 16,7 56 7,9 --- --- --- 0,5 00:06 19.04.2004
1000,3 22,7 48 16,7 55 7,6 --- --- --- 0,5 00:21 19.04.2004
1000,3 22,7 48 16,5 55 7,4 --- --- --- 0,5 00:36 19.04.2004
1000,3 22,7 48 16,5 56 7,7 --- --- --- 0,5 00:51 19.04.2004
1000,0 22,8 48 16,4 56 7,6 --- --- --- 0,5 01:06 19.04.2004
1000,0 22,9 47 16,3 57 7,7 --- --- --- 0,5 01:21 19.04.2004
999,9 22,9 48 16,2 57 7,6 --- --- --- 0,5 01:36 19.04.2004
999,8 22,9 48 16,2 57 7,6 --- --- --- 0,5 01:51 19.04.2004
999,8 22,8 48 16,1 57 7,6 --- --- --- 0,5 02:06 19.04.2004
999,6 22,8 48 16,0 57 7,5 --- --- --- 0,5 02:21 19.04.2004
999,6 22,8 48 15,9 57 7,4 --- --- --- 0,5 02:36 19.04.2004
999,5 22,8 48 15,8 57 7,3 --- --- --- 0,5 02:51 19.04.2004
999,4 22,8 48 15,7 58 7,4 --- --- --- 0,5 03:06 19.04.2004
999,4 22,8 48 15,7 58 7,4 --- --- --- 0,5 03:21 19.04.2004
999,3 22,8 48 15,6 58 7,3 --- --- --- 0,5 03:36 19.04.2004
999,1 22,8 48 15,5 58 7,2 --- --- --- 0,5 03:51 19.04.2004
999,0 22,8 48 15,5 59 7,5 --- --- --- 0,5 04:06 19.04.2004
998,8 22,8 48 15,4 59 7,4 --- --- --- 0,5 04:21 19.04.2004
998,8 22,8 48 15,4 60 7,6 --- --- --- 0,5 04:36 19.04.2004
998,6 22,8 48 15,3 61 7,8 --- --- --- 0,5 04:51 19.04.2004
998,6 22,7 48 15,3 61 7,8 --- --- --- 0,5 05:06 19.04.2004
998,4 22,7 48 15,2 61 7,7 --- --- --- 0,5 05:21 19.04.2004
998,3 22,7 48 15,2 61 7,7 --- --- --- 0,5 05:36 19.04.2004
998,5 22,6 48 15,1 61 7,6 --- --- --- 0,5 05:51 19.04.2004
998,6 22,6 48 15,1 62 7,8 --- --- --- 0,5 06:06 19.04.2004
998,8 22,5 48 15,0 62 7,7 --- --- --- 0,5 06:21 19.04.2004
998,7 22,4 48 15,0 62 7,7 --- --- --- 0,5 06:36 19.04.2004
998,9 22,4 48 14,8 62 7,6 --- --- --- 0,5 06:51 19.04.2004
999,0 22,3 48 14,8 63 7,8 --- --- --- 0,5 07:06 19.04.2004
998,9 22,3 48 14,8 63 7,8 --- --- --- 0,5 07:21 19.04.2004
999,0 22,3 48 14,8 63 7,8 --- --- --- 0,5 07:36 19.04.2004
998,9 22,2 48 14,8 63 7,8 --- --- --- 0,5 07:51 19.04.2004
999,0 22,1 48 14,8 63 7,8 --- --- --- 0,5 08:06 19.04.2004
999,0 22,1 48 14,7 65 8,2 --- --- --- 0,5 08:21 19.04.2004
999,0 22,0 49 14,7 66 8,4 --- --- --- 0,5 08:36 19.04.2004
999,1 22,0 49 14,5 67 8,4 --- --- --- 0,5 08:51 19.04.2004
999,2 22,0 49 14,4 70 9,0 --- --- --- 0,5 09:06 19.04.2004
999,2 22,1 49 14,5 71 9,3 --- --- --- 0,5 09:21 19.04.2004
999,4 22,0 49 14,5 71 9,3 --- --- --- 0,5 09:36 19.04.2004
999,4 21,9 50 14,4 71 9,2 --- --- --- 0,5 09:51 19.04.2004
999,6 21,9 50 14,5 71 9,3 --- --- --- 0,5 10:06 19.04.2004
999,6 21,8 50 14,5 71 9,3 --- --- --- 0,5 10:21 19.04.2004
999,5 21,8 50 14,7 71 9,5 --- --- --- 0,5 10:36 19.04.2004
999,5 21,8 50 14,8 71 9,6 --- --- --- 0,5 10:51 19.04.2004
999,7 21,7 50 14,9 70 9,4 --- --- --- 0,5 11:06 19.04.2004
999,8 21,7 50 15,2 70 9,7 --- --- --- 0,5 11:21 19.04.2004
1000,1 21,7 50 15,0 69 9,3 --- --- --- 0,5 11:36 19.04.2004
1000,1 21,7 50 14,5 69 8,8 --- --- --- 0,5 11:51 19.04.2004
1000,1 21,7 50 14,4 70 9,0 --- --- --- 0,5 12:06 19.04.2004
1000,1 21,8 50 14,7 70 9,3 --- --- --- 0,5 12:21 19.04.2004
1000,1 21,8 50 14,9 71 9,7 --- --- --- 0,5 12:36 19.04.2004
1000,1 21,9 50 15,2 71 9,9 --- --- --- 0,5 12:51 19.04.2004
1000,2 21,9 50 15,7 70 10,2 --- --- --- 0,5 13:06 19.04.2004
1000,3 21,9 49 16,1 67 9,9 --- --- --- 0,5 13:21 19.04.2004
1000,2 21,8 47 16,5 64 9,6 --- --- --- 0,5 13:36 19.04.2004
1000,1 21,7 46 16,8 62 9,5 --- --- --- 0,5 13:51 19.04.2004
1000,2 21,7 46 17,1 61 9,5 --- --- --- 0,5 14:06 19.04.2004
1000,1 21,7 45 17,4 58 9,0 --- --- --- 0,5 14:21 19.04.2004
1000,0 21,9 45 18,3 56 9,3 --- --- --- 0,5 14:36 19.04.2004
999,7 22,0 43 19,5 52 9,4 --- --- --- 0,5 14:51 19.04.2004
1000,0 22,1 43 19,9 48 8,5 --- --- --- 0,5 15:06 19.04.2004
1000,0 22,1 42 19,8 47 8,1 --- --- --- 0,5 15:21 19.04.2004
999,9 22,0 42 19,5 48 8,2 --- --- --- 0,5 15:36 19.04.2004
999,9 21,9 42 19,1 48 7,8 --- --- --- 0,5 15:51 19.04.2004
999,9 22,1 41 19,1 51 8,7 --- --- --- 0,5 16:06 19.04.2004
1000,1 22,2 42 19,4 50 8,7 --- --- --- 0,5 16:21 19.04.2004
1000,1 22,3 42 19,5 50 8,8 --- --- --- 0,5 16:36 19.04.2004
1000,1 22,3 42 19,4 50 8,7 --- --- --- 0,5 16:51 19.04.2004
1000,1 22,4 41 19,3 49 8,3 --- --- --- 0,5 17:06 19.04.2004
1000,0 22,5 40 19,5 47 7,9 --- --- --- 0,5 17:21 19.04.2004
999,9 22,4 40 19,6 47 8,0 --- --- --- 0,5 17:36 19.04.2004
999,9 22,5 40 19,4 48 8,1 --- --- --- 0,5 17:51 19.04.2004
999,9 22,4 40 19,2 48 7,9 --- --- --- 0,5 18:06 19.04.2004
999,9 22,3 40 19,0 48 7,7 --- --- --- 0,5 18:21 19.04.2004
999,8 22,3 40 18,9 49 7,9 --- --- --- 0,5 18:36 19.04.2004
999,8 22,3 40 18,7 49 7,7 --- --- --- 0,5 18:51 19.04.2004
999,6 22,3 40 18,5 50 7,9 --- --- --- 0,5 19:06 19.04.2004
999,6 22,2 43 18,5 52 8,4 --- --- --- 0,5 19:21 19.04.2004
999,7 22,2 42 18,7 52 8,6 --- --- --- 0,5 19:36 19.04.2004
999,6 22,2 41 18,9 51 8,5 --- --- --- 0,5 19:51 19.04.2004
999,7 22,2 40 18,9 50 8,2 --- --- --- 0,5 20:06 19.04.2004
999,8 22,0 39 18,7 49 7,7 --- --- --- 0,5 20:21 19.04.2004
999,9 21,9 40 18,5 49 7,6 --- --- --- 0,5 20:36 19.04.2004
999,8 22,0 39 18,2 49 7,3 --- --- --- 0,5 20:51 19.04.2004
999,9 22,0 39 18,2 49 7,3 --- --- --- 0,5 21:06 19.04.2004
1000,0 22,0 38 18,1 48 6,9 --- --- --- 0,5 21:21 19.04.2004
1000,0 22,0 37 17,7 48 6,5 --- --- --- 0,5 21:36 19.04.2004
1000,2 22,3 38 17,4 48 6,2 --- --- --- 0,5 21:51 19.04.2004
1000,1 22,8 39 16,8 50 6,3 --- --- --- 0,5 22:06 19.04.2004
1000,2 22,5 39 16,2 54 6,9 --- --- --- 0,5 22:21 19.04.2004
1000,4 22,6 40 15,7 56 6,9 --- --- --- 0,5 22:36 19.04.2004
1000,5 22,7 41 15,2 58 7,0 --- --- --- 0,5 22:51 19.04.2004
1000,6 22,8 41 14,8 59 6,8 --- --- --- 0,5 23:06 19.04.2004
1000,6 22,9 42 14,4 61 6,9 --- --- --- 0,5 23:21 19.04.2004
1000,6 23,0 42 14,2 61 6,8 --- --- --- 0,5 23:36 19.04.2004
1000,7 23,0 41 13,8 61 6,4 --- --- --- 0,5 23:51 19.04.2004
1000,8 23,0 41 13,6 62 6,4 --- --- --- 0,5 00:06 20.04.2004
1000,8 23,0 41 13,4 63 6,5 --- --- --- 0,5 00:21 20.04.2004
1000,8 23,0 41 13,2 63 6,3 --- --- --- 0,5 00:36 20.04.2004
1001,0 23,1 42 13,0 64 6,3 --- --- --- 0,5 00:51 20.04.2004
1000,9 23,1 41 12,8 63 5,9 --- --- --- 0,5 01:06 20.04.2004
1001,0 23,1 42 12,6 64 5,9 --- --- --- 0,5 01:21 20.04.2004
1001,1 23,0 42 12,5 65 6,1 --- --- --- 0,5 01:36 20.04.2004
1001,0 22,9 43 12,3 66 6,1 --- --- --- 0,5 01:51 20.04.2004
1001,0 22,6 43 12,3 66 6,1 --- --- --- 0,5 02:06 20.04.2004
1001,0 22,4 43 12,1 66 5,9 --- --- --- 0,5 02:21 20.04.2004
1000,8 22,2 43 11,9 67 5,9 --- --- --- 0,5 02:36 20.04.2004
1000,9 22,1 43 11,8 67 5,8 --- --- --- 0,5 02:51 20.04.2004
1000,7 21,9 44 11,8 67 5,8 --- --- --- 0,5 03:06 20.04.2004
1000,7 21,8 44 11,6 67 5,6 --- --- --- 0,5 03:21 20.04.2004
1000,5 21,7 44 11,4 68 5,7 --- --- --- 0,5 03:36 20.04.2004
1000,4 21,6 44 11,3 68 5,6 --- --- --- 0,5 03:51 20.04.2004
1000,3 21,4 44 11,2 68 5,5 --- --- --- 0,5 04:06 20.04.2004
1000,3 21,3 44 11,1 68 5,4 --- --- --- 0,5 04:21 20.04.2004
1000,2 21,2 44 10,8 68 5,1 --- --- --- 0,5 04:36 20.04.2004
1000,1 21,1 44 10,8 68 5,1 --- --- --- 0,5 04:51 20.04.2004
1000,2 21,1 44 10,7 68 5,0 --- --- --- 0,5 05:06 20.04.2004
1000,1 21,1 45 10,6 68 4,9 --- --- --- 0,5 05:21 20.04.2004
1000,2 21,0 44 10,5 68 4,8 --- --- --- 0,5 05:36 20.04.2004
1000,2 20,9 45 10,4 69 4,9 --- --- --- 0,5 05:51 20.04.2004
1000,3 20,7 45 10,4 69 4,9 --- --- --- 0,5 06:06 20.04.2004
1000,2 20,7 46 10,4 70 5,1 --- --- --- 0,5 06:21 20.04.2004
1000,2 20,6 46 10,3 70 5,0 --- --- --- 0,5 06:36 20.04.2004
1000,2 20,6 46 10,3 70 5,0 --- --- --- 0,5 06:51 20.04.2004
1000,3 20,5 46 10,3 70 5,0 --- --- --- 0,5 07:06 20.04.2004
1000,2 20,4 46 10,3 71 5,2 --- --- --- 0,5 07:21 20.04.2004
1000,1 20,3 46 10,5 71 5,4 --- --- --- 0,5 07:36 20.04.2004
1000,1 20,3 46 10,7 72 5,8 --- --- --- 0,5 07:51 20.04.2004
1000,1 20,3 46 10,8 73 6,1 --- --- --- 0,5 08:06 20.04.2004
1000,3 20,7 47 11,1 73 6,4 --- --- --- 0,5 08:21 20.04.2004
1000,0 21,0 46 11,5 71 6,4 --- --- --- 0,5 08:36 20.04.2004
1000,1 21,4 46 11,9 71 6,8 --- --- --- 0,5 08:51 20.04.2004
999,9 21,5 46 12,3 70 7,0 --- --- --- 0,5 09:06 20.04.2004
1000,0 21,5 46 12,7 69 7,1 --- --- --- 0,5 09:21 20.04.2004
1000,2 21,6 46 12,9 68 7,1 --- --- --- 0,5 09:36 20.04.2004
1000,2 21,7 46 13,3 67 7,3 --- --- --- 0,5 09:51 20.04.2004
1000,2 21,7 46 13,5 65 7,0 --- --- --- 0,5 10:06 20.04.2004
1000,1 21,7 45 13,7 64 7,0 --- --- --- 0,5 10:21 20.04.2004
1000,2 21,8 45 13,9 63 6,9 --- --- --- 0,5 10:36 20.04.2004
999,9 21,3 41 14,2 61 6,8 --- --- --- 0,5 10:51 20.04.2004
999,8 20,9 42 14,5 59 6,6 --- --- --- 0,5 11:06 20.04.2004
1000,0 20,6 41 14,8 58 6,6 --- --- --- 0,5 11:21 20.04.2004
1000,1 20,3 42 14,7 58 6,5 --- --- --- 0,5 11:36 20.04.2004
999,9 21,0 42 14,8 59 6,8 --- --- --- 0,5 11:51 20.04.2004
1000,1 21,8 44 14,8 57 6,3 --- --- --- 0,5 12:06 20.04.2004
1000,0 22,3 44 14,9 57 6,4 --- --- --- 0,5 12:21 20.04.2004
1000,0 22,8 44 15,1 56 6,4 --- --- --- 0,5 12:36 20.04.2004
1000,0 22,9 43 15,3 55 6,3 --- --- --- 0,5 12:51 20.04.2004
1000,1 22,8 41 15,2 55 6,2 --- --- --- 0,5 13:06 20.04.2004
999,7 23,1 41 15,3 56 6,5 --- --- --- 0,5 13:21 20.04.2004
999,5 23,3 42 15,7 55 6,7 --- --- --- 0,5 13:36 20.04.2004
999,6 23,1 39 15,8 52 5,9 --- --- --- 0,5 13:51 20.04.2004
999,7 23,0 39 15,7 51 5,6 --- --- --- 0,5 14:06 20.04.2004
999,6 22,8 39 15,5 52 5,7 --- --- --- 0,5 14:21 20.04.2004
999,3 23,0 39 15,9 54 6,6 --- --- --- 0,5 14:36 20.04.2004
999,4 23,0 37 16,4 50 5,9 --- --- --- 0,5 14:51 20.04.2004
1000,1 22,2 42 19,4 50 8,7 --- --- --- 0,5 16:21 18.04.2004
1000,1 22,3 42 19,5 50 8,8 --- --- --- 0,5 16:36 18.04.2004
1000,1 22,3 42 19,4 50 8,7 --- --- --- 0,5 16:51 18.04.2004
1000,1 22,4 41 19,3 49 8,3 --- --- --- 0,5 17:06 18.04.2004
1000,0 22,5 40 19,5 47 7,9 --- --- --- 0,5 17:21 18.04.2004
999,9 22,4 40 19,6 47 8,0 --- --- --- 0,5 17:36 18.04.2004
999,9 22,5 40 19,4 48 8,1 --- --- --- 0,5 17:51 18.04.2004
999,9 22,4 40 19,2 48 7,9 --- --- --- 0,5 18:06 18.04.2004
999,9 22,3 40 19,0 48 7,7 --- --- --- 0,5 18:21 18.04.2004
999,8 22,3 40 18,9 49 7,9 --- --- --- 0,5 18:36 18.04.2004
999,8 22,3 40 18,7 49 7,7 --- --- --- 0,5 18:51 18.04.2004
999,6 22,3 40 18,5 50 7,9 --- --- --- 0,5 19:06 18.04.2004
999,6 22,2 43 18,5 52 8,4 --- --- --- 0,5 19:21 18.04.2004
999,7 22,2 42 18,7 52 8,6 --- --- --- 0,5 19:36 18.04.2004
999,6 22,2 41 18,9 51 8,5 --- --- --- 0,5 19:51 18.04.2004
999,7 22,2 40 18,9 50 8,2 --- --- --- 0,5 20:06 18.04.2004
999,8 22,0 39 18,7 49 7,7 --- --- --- 0,5 20:21 18.04.2004
999,9 21,9 40 18,5 49 7,6 --- --- --- 0,5 20:36 18.04.2004
999,8 22,0 39 18,2 49 7,3 --- --- --- 0,5 20:51 18.04.2004
999,9 22,0 39 18,2 49 7,3 --- --- --- 0,5 21:06 18.04.2004
1000,2 20,9 45 10,4 69 4,9 --- --- --- 0,5 05:51 20.06.2004
1000,3 20,7 45 10,4 69 4,9 --- --- --- 0,5 06:06 20.06.2004
1000,2 20,7 46 10,4 70 5,1 --- --- --- 0,5 06:21 20.06.2004
1000,2 20,6 46 10,3 70 5,0 --- --- --- 0,5 06:36 20.06.2004
1000,2 20,6 46 10,3 70 5,0 --- --- --- 0,5 06:51 20.06.2004
1000,3 20,5 46 10,3 70 5,0 --- --- --- 0,5 07:06 20.06.2004
1000,2 20,4 46 10,3 71 5,2 --- --- --- 0,5 07:21 20.06.2004
1000,1 20,3 46 10,5 71 5,4 --- --- --- 0,5 07:36 20.06.2004
1000,1 20,3 46 10,7 72 5,8 --- --- --- 0,5 07:51 20.06.2004
1000,1 20,3 46 10,8 73 6,1 --- --- --- 0,5 08:06 20.06.2004
1000,3 20,7 47 11,1 73 6,4 --- --- --- 0,5 08:21 20.06.2004
1000,0 21,0 46 11,5 71 6,4 --- --- --- 0,5 08:36 20.06.2004
1000,1 21,4 46 11,9 71 6,8 --- --- --- 0,5 08:51 20.06.2004
999,9 21,5 46 12,3 70 7,0 --- --- --- 0,5 09:06 20.06.2004
1000,0 21,5 46 12,7 69 7,1 --- --- --- 0,5 09:21 20.06.2004
1000,2 21,6 46 12,9 68 7,1 --- --- --- 0,5 09:36 20.06.2004
1000,2 21,7 46 13,3 67 7,3 --- --- --- 0,5 09:51 20.06.2004
1000,2 21,7 46 13,5 65 7,0 --- --- --- 0,5 10:06 20.06.2004
1000,1 21,7 45 13,7 64 7,0 --- --- --- 0,5 10:21 20.06.2004
1000,2 21,8 45 13,9 63 6,9 --- --- --- 0,5 10:36 20.06.2004
999,9 21,3 41 14,2 61 6,8 --- --- --- 0,5 10:51 20.06.2004
999,8 20,9 42 14,5 59 6,6 --- --- --- 0,5 11:06 20.06.2004
1000,0 20,6 41 14,8 58 6,6 --- --- --- 0,5 11:21 20.06.2004
1000,1 20,3 42 14,7 58 6,5 --- --- --- 0,5 11:36 20.06.2004
999,9 21,0 42 14,8 59 6,8 --- --- --- 0,5 11:51 20.06.2004
1000,1 21,8 44 14,8 57 6,3 --- --- --- 0,5 12:06 20.06.2004
1000,0 22,3 44 14,9 57 6,4 --- --- --- 0,5 12:21 20.06.2004
1000,0 22,8 44 15,1 56 6,4 --- --- --- 0,5 12:36 20.06.2004
1000,0 22,9 43 15,3 55 6,3 --- --- --- 0,5 12:51 20.06.2004
1000,1 22,8 41 15,2 55 6,2 --- --- --- 0,5 13:06 20.06.2004
999,7 23,1 41 15,3 56 6,5 --- --- --- 0,5 13:21 20.06.2004
999,5 23,3 42 15,7 55 6,7 --- --- --- 0,5 13:36 20.06.2004
999,6 23,1 39 15,8 52 5,9 --- --- --- 0,5 13:51 20.06.2004
999,7 23,0 39 15,7 51 5,6 --- --- --- 0,5 14:06 20.06.2004
999,6 22,8 39 15,5 52 5,7 --- --- --- 0,5 14:21 20.06.2004
999,3 23,0 39 15,9 54 6,6 --- --- --- 0,5 14:36 20.06.2004
999,4 23,0 37 16,4 50 5,9 --- --- --- 0,5 14:51 20.06.2004
999,5 23,0 38 16,5 49 5,7 --- --- --- 0,5 15:06 20.06.2004
999,4 23,0 37 17,1 48 6,0 --- --- --- 0,5 15:21 20.06.2004
999,2 23,1 37 18,1 46 6,3 --- --- --- 0,5 15:36 20.06.2004
999,2 23,5 36 18,3 43 5,5 --- --- --- 0,5 15:51 20.06.2004
999,1 23,4 34 17,9 43 5,1 --- --- --- 0,5 16:06 20.06.2004
999,3 23,6 34 17,5 43 4,8 --- --- --- 0,5 16:21 20.06.2004
999,0 23,6 34 17,6 42 4,5 --- --- --- 0,5 16:36 20.06.2004
998,9 23,7 35 17,8 42 4,7 --- --- --- 0,5 16:51 20.06.2004
999,0 24,0 33 17,8 41 4,3 --- --- --- 0,5 17:06 20.06.2004
998,7 24,1 33 17,5 41 4,1 --- --- --- 0,5 17:21 20.06.2004
998,6 24,1 33 17,2 42 4,1 --- --- --- 0,5 17:36 20.06.2004
998,8 24,1 33 17,5 40 3,7 --- --- --- 0,5 17:51 20.06.2004
998,9 23,6 30 17,5 40 3,7 --- --- --- 0,5 18:06 20.06.2004
998,8 23,1 29 17,5 41 4,1 --- --- --- 0,5 18:21 20.06.2004
998,9 22,6 30 17,4 42 4,3 --- --- --- 0,5 18:36 20.06.2004
998,9 22,6 33 17,2 41 3,8 --- --- --- 0,5 18:51 20.06.2004
998,8 23,2 33 17,0 40 3,3 --- --- --- 0,5 19:06 20.06.2004
998,8 23,5 33 16,9 40 3,2 --- --- --- 0,5 19:21 20.06.2004
998,7 23,7 33 17,1 40 3,4 --- --- --- 0,5 19:36 20.06.2004
998,7 23,6 32 17,3 40 3,5 --- --- --- 0,5 19:51 20.06.2004
999,0 23,5 32 17,4 40 3,6 --- --- --- 0,5 20:06 20.06.2004
999,0 23,7 34 17,4 42 4,3 --- --- --- 0,5 20:21 20.06.2004
999,0 23,9 34 17,2 42 4,1 --- --- --- 0,5 20:36 20.06.2004
999,1 24,0 34 17,0 43 4,3 --- --- --- 0,5 20:51 20.06.2004
999,6 23,7 34 16,8 43 4,1 --- --- --- 0,5 21:06 20.06.2004
999,9 23,9 35 16,7 44 4,4 --- --- --- 0,5 21:21 20.06.2004
999,8 23,6 34 16,4 45 4,4 --- --- --- 0,5 21:36 20.06.2004
999,9 23,6 35 16,0 46 4,4 --- --- --- 0,5 21:51 20.06.2004
1000,1 23,6 35 15,8 47 4,5 --- --- --- 0,5 22:06 20.06.2004
1000,2 23,5 34 15,5 48 4,5 --- --- --- 0,5 22:21 20.06.2004
1000,4 23,4 34 15,5 49 4,8 --- --- --- 0,5 22:36 20.06.2004
1000,4 23,4 36 15,4 50 5,0 --- --- --- 0,5 22:51 20.06.2004
1000,7 23,5 37 15,2 51 5,1 --- --- --- 0,5 23:06 20.06.2004
1000,8 23,8 38 15,1 52 5,3 --- --- --- 0,5 23:21 20.06.2004
1000,8 23,8 38 15,1 52 5,3 --- --- --- 0,5 23:36 20.06.2004
1000,7 23,9 38 15,0 54 5,7 --- --- --- 0,5 23:51 20.06.2004
1000,8 24,0 38 14,8 55 5,8 --- --- --- 0,5 00:06 21.06.2004
1000,9 24,0 37 14,7 56 6,0 --- --- --- 0,5 00:21 21.06.2004
1001,0 24,1 38 14,7 56 6,0 --- --- --- 0,5 00:36 21.06.2004
1000,9 24,1 38 14,5 57 6,1 --- --- --- 0,5 00:51 21.06.2004
1000,9 24,2 38 14,4 61 6,9 --- --- --- 0,5 01:06 21.06.2004
1000,8 24,2 38 14,3 63 7,3 --- --- --- 0,5 01:21 21.06.2004
1000,8 24,2 38 14,2 64 7,5 --- --- --- 0,5 01:36 21.06.2004
1000,8 24,2 39 14,1 65 7,6 --- --- --- 0,5 01:51 21.06.2004
1000,8 23,6 40 13,9 66 7,6 --- --- --- 0,5 02:06 21.06.2004
1000,8 23,0 40 13,8 67 7,7 --- --- --- 0,5 02:21 21.06.2004
1000,8 22,7 41 13,8 67 7,7 --- --- --- 0,5 02:36 21.06.2004
1000,9 22,5 42 13,9 68 8,1 --- --- --- 0,5 02:51 21.06.2004
1000,9 22,3 42 13,8 68 8,0 --- --- --- 0,5 03:06 21.06.2004
1000,8 22,1 42 13,7 68 7,9 --- --- --- 0,5 03:21 21.06.2004
1000,8 22,0 43 13,6 68 7,8 --- --- --- 0,5 03:36 21.06.2004
1000,7 21,8 44 13,5 69 7,9 --- --- --- 0,5 03:51 21.06.2004
1000,8 21,8 44 13,4 70 8,0 --- --- --- 0,5 04:06 21.06.2004
1000,7 21,7 45 13,3 70 7,9 --- --- --- 0,5 04:21 21.06.2004
1000,8 21,6 45 13,4 71 8,2 --- --- --- 0,5 04:36 21.06.2004
1000,9 21,5 45 13,4 70 8,0 --- --- --- 0,5 04:51 21.06.2004
1000,7 21,4 45 13,4 70 8,0 --- --- --- 0,5 05:06 21.06.2004
1000,9 21,4 45 13,2 70 7,8 --- --- --- 0,5 05:21 21.06.2004
1000,9 21,3 45 12,8 71 7,6 --- --- --- 0,5 05:36 21.06.2004
1001,2 21,3 45 12,5 71 7,4 --- --- --- 0,5 05:51 21.06.2004
1001,4 21,2 45 12,3 71 7,2 --- --- --- 0,5 06:06 21.06.2004
1001,4 21,2 45 12,1 72 7,2 --- --- --- 0,5 06:21 21.06.2004
1001,5 21,0 45 12,1 72 7,2 --- --- --- 0,5 06:36 21.06.2004
1001,4 20,9 46 12,1 72 7,2 --- --- --- 0,5 06:51 21.06.2004
1001,8 20,5 45 12,1 73 7,4 --- --- --- 0,5 07:06 21.06.2004
1001,9 19,9 45 12,2 73 7,5 --- --- --- 0,5 07:21 21.06.2004
1002,1 19,5 46 12,5 74 8,0 --- --- --- 0,5 07:36 21.06.2004
1002,0 19,3 46 12,9 73 8,1 --- --- --- 0,5 07:51 21.06.2004
1002,3 19,0 46 13,2 72 8,2 --- --- --- 0,5 08:06 21.06.2004
1002,3 19,3 48 13,4 72 8,4 --- --- --- 0,5 08:21 21.06.2004
1002,3 19,8 48 13,5 70 8,1 --- --- --- 0,5 08:36 21.06.2004
1002,3 20,1 48 13,6 70 8,2 --- --- --- 0,5 08:51 21.06.2004
1002,4 20,3 48 13,8 69 8,2 --- --- --- 0,5 09:06 21.06.2004
1002,4 20,3 48 13,9 69 8,3 --- --- --- 0,5 09:21 21.06.2004
1002,6 20,3 48 14,1 68 8,3 --- --- --- 0,5 09:36 21.06.2004
1002,8 20,4 47 14,3 67 8,2 --- --- --- 0,5 09:51 21.06.2004
1002,8 20,4 47 14,4 66 8,1 --- --- --- 0,5 10:06 21.06.2004
1002,9 20,7 46 14,7 65 8,2 --- --- --- 0,5 10:21 21.06.2004
1003,2 20,6 46 14,8 64 8,0 --- --- --- 0,5 10:36 21.06.2004
1003,2 21,0 44 14,9 62 7,7 --- --- --- 0,5 10:51 21.06.2004
1003,2 21,1 44 15,0 61 7,5 --- --- --- 0,5 11:06 21.06.2004
1003,1 21,2 44 15,2 62 7,9 --- --- --- 0,5 11:21 21.06.2004
1003,3 21,2 44 15,4 60 7,6 --- --- --- 0,5 11:36 21.06.2004
1003,3 21,2 44 15,5 59 7,5 --- --- --- 0,5 11:51 21.06.2004
1003,2 21,2 43 15,7 59 7,7 --- --- --- 0,5 12:06 21.06.2004
1003,0 21,5 43 15,9 59 7,9 --- --- --- 0,5 12:21 21.06.2004
1003,4 21,6 43 16,2 58 7,9 --- --- --- 0,5 12:36 21.06.2004
1003,0 21,7 43 16,3 57 7,7 --- --- --- 0,5 12:51 21.06.2004
1002,9 21,7 43 16,5 56 7,7 --- --- --- 0,5 13:06 21.06.2004
1002,8 21,6 42 16,8 54 7,4 --- --- --- 0,5 13:21 21.06.2004
1002,8 21,5 42 17,1 54 7,7 --- --- --- 0,5 13:36 21.06.2004
1003,1 21,9 43 17,4 53 7,7 --- --- --- 0,5 13:51 21.06.2004
1002,8 22,1 42 17,6 53 7,9 --- --- --- 0,5 14:06 21.06.2004
1002,7 22,3 42 17,6 52 7,6 --- --- --- 0,5 14:21 21.06.2004
1002,7 22,2 41 17,6 50 7,0 --- --- --- 0,5 14:36 21.06.2004
1002,8 22,4 40 17,5 50 6,9 --- --- --- 0,5 14:51 21.06.2004
1002,9 22,5 41 17,8 50 7,2 --- --- --- 0,5 15:06 21.06.2004
1002,9 22,4 40 17,8 50 7,2 --- --- --- 0,5 15:21 21.06.2004
1003,0 22,0 40 17,6 50 7,0 --- --- --- 0,5 15:36 21.06.2004
1003,2 22,1 40 17,9 49 7,0 --- --- --- 0,5 15:51 21.06.2004
1003,2 21,9 40 18,2 48 7,0 --- --- --- 0,5 16:06 21.06.2004
1003,1 21,8 40 18,2 48 7,0 --- --- --- 0,5 16:21 21.06.2004
1003,4 21,6 40 18,1 49 7,2 --- --- --- 0,5 16:36 21.06.2004
1003,3 21,4 40 17,6 49 6,7 --- --- --- 0,5 16:51 21.06.2004
1003,4 21,4 40 17,5 50 6,9 --- --- --- 0,5 17:06 21.06.2004
1003,5 21,5 41 17,5 50 6,9 --- --- --- 0,5 17:21 21.06.2004
1003,6 21,7 41 17,5 51 7,2 --- --- --- 0,5 17:36 21.06.2004
1003,6 21,7 41 17,5 52 7,5 --- --- --- 0,5 17:51 21.06.2004
1003,7 21,7 41 17,5 52 7,5 --- --- --- 0,5 18:06 21.06.2004
1003,5 21,7 41 17,5 51 7,2 --- --- --- 0,5 18:21 21.06.2004
1003,6 21,7 41 17,7 51 7,4 --- --- --- 0,5 18:36 21.06.2004
1003,5 21,6 41 17,8 51 7,5 --- --- --- 0,5 18:51 21.06.2004
1003,7 21,6 41 17,7 51 7,4 --- --- --- 0,5 19:06 21.06.2004
1003,7 21,7 42 17,5 52 7,5 --- --- --- 0,5<